[[{"header":{"parameterUnit":"m.s-1","parameterCategory":1,"la1":30.6,"la2":29.2853,"lo1":-89.7004,"lo2":-87.6739,"dy":0.0162,"dx":0.0183,"nx":112,"ny":82,"refTime":"2026-04-27T00:00:00:Z","depth":0,"parameterNumber":2,"parameterNumberName":"U-component_of_WINDS"},"data":[0.0,0.0,0.0,0.0,0.0,0.0,0.0,0.0,0.0,0.0,0.0,0.0,0.0,0.0,0.0,0.0,0.0,0.0,0.0,0.0,0.0,0.0,0.0,0.0,0.0,0.0,0.0,0.0,0.0,0.0,0.0,0.0,0.0,0.0,0.0,0.0,0.0,0.0,0.0,0.0,0.0,0.0,0.0,0.0,0.0,0.0,0.0,0.0,0.0,0.0,0.0,0.0,0.0,0.0,0.0,0.0,0.0,0.0,0.0,0.0,0.0,0.0,0.0,0.0,0.0,0.0,0.0,0.0,0.0,0.0,0.0,0.0,0.0,0.0,0.0,0.0,0.0,0.0,0.0,0.0,0.0,0.0,0.0,0.0,0.0,0.0,0.0,0.0,0.0,0.0,-2.7066,-2.8727,-3.0449,-3.1271,-3.0717,-3.0477,-2.9325,-2.6926,0.0,0.0,0.0,0.0,0.0,0.0,0.0,0.0,0.0,0.0,0.0,0.0,0.0,0.0,0.0,0.0,0.0,0.0,0.0,0.0,0.0,0.0,0.0,0.0,0.0,0.0,0.0,0.0,0.0,0.0,0.0,0.0,0.0,0.0,0.0,0.0,0.0,0.0,0.0,0.0,0.0,0.0,0.0,0.0,0.0,0.0,0.0,0.0,0.0,0.0,0.0,0.0,0.0,0.0,0.0,0.0,0.0,0.0,0.0,0.0,0.0,0.0,0.0,0.0,0.0,0.0,0.0,0.0,0.0,0.0,0.0,0.0,0.0,0.0,0.0,0.0,0.0,0.0,0.0,0.0,0.0,0.0,0.0,0.0,0.0,0.0,0.0,0.0,0.0,0.0,0.0,0.0,0.0,0.0,0.0,0.0,0.0,0.0,0.0,0.0,0.0,0.0,0.0,0.0,-2.6901,-2.9894,-3.0972,-3.1466,-3.1361,-3.0357,-2.9097,-2.754,0.0,0.0,0.0,0.0,0.0,0.0,0.0,0.0,0.0,0.0,0.0,0.0,0.0,0.0,0.0,0.0,0.0,0.0,0.0,0.0,0.0,0.0,0.0,0.0,0.0,0.0,0.0,0.0,0.0,0.0,0.0,0.0,0.0,0.0,0.0,0.0,0.0,0.0,0.0,0.0,0.0,0.0,0.0,0.0,0.0,0.0,0.0,0.0,0.0,0.0,0.0,0.0,0.0,0.0,0.0,0.0,0.0,0.0,0.0,0.0,0.0,0.0,0.0,0.0,0.0,0.0,0.0,0.0,0.0,0.0,0.0,0.0,0.0,0.0,0.0,0.0,0.0,0.0,0.0,0.0,0.0,0.0,0.0,0.0,0.0,0.0,0.0,0.0,0.0,0.0,0.0,0.0,0.0,0.0,0.0,0.0,0.0,0.0,0.0,0.0,0.0,0.0,0.0,-2.6677,-2.8218,-3.0763,-3.1316,-3.1511,-3.1511,-3.0642,-2.9397,-2.7705,-2.6986,0.0,0.0,0.0,0.0,0.0,0.0,0.0,0.0,0.0,0.0,0.0,0.0,0.0,0.0,0.0,0.0,0.0,0.0,0.0,0.0,0.0,0.0,0.0,0.0,0.0,0.0,0.0,0.0,0.0,0.0,0.0,0.0,0.0,0.0,0.0,0.0,0.0,0.0,0.0,0.0,0.0,0.0,0.0,0.0,0.0,0.0,0.0,0.0,0.0,0.0,0.0,0.0,0.0,0.0,0.0,0.0,0.0,0.0,0.0,0.0,0.0,0.0,0.0,0.0,0.0,0.0,0.0,0.0,0.0,0.0,0.0,0.0,0.0,0.0,0.0,0.0,0.0,0.0,0.0,0.0,0.0,0.0,0.0,0.0,0.0,0.0,0.0,0.0,0.0,0.0,0.0,0.0,0.0,0.0,0.0,0.0,0.0,0.0,0.0,0.0,0.0,0.0,-2.8757,-2.9684,-3.1331,-3.1511,-3.1511,-3.1511,-3.0627,-2.934,-2.7705,-2.6662,0.0,0.0,0.0,0.0,0.0,0.0,0.0,0.0,0.0,0.0,0.0,0.0,0.0,0.0,0.0,0.0,0.0,0.0,0.0,0.0,0.0,0.0,0.0,0.0,0.0,0.0,0.0,0.0,0.0,0.0,0.0,0.0,0.0,0.0,0.0,0.0,0.0,0.0,0.0,0.0,0.0,0.0,0.0,0.0,0.0,0.0,0.0,0.0,0.0,0.0,0.0,0.0,0.0,0.0,0.0,0.0,0.0,0.0,0.0,0.0,0.0,0.0,0.0,0.0,0.0,0.0,0.0,0.0,0.0,0.0,0.0,0.0,0.0,0.0,0.0,0.0,0.0,0.0,0.0,0.0,0.0,0.0,0.0,0.0,0.0,0.0,0.0,0.0,0.0,0.0,0.0,0.0,0.0,0.0,0.0,0.0,0.0,0.0,0.0,0.0,0.0,0.0,-2.9235,-3.0672,-3.1421,-3.1511,-3.1511,-3.1511,-2.9819,-2.8397,-2.7645,-2.5809,0.0,0.0,0.0,0.0,0.0,0.0,0.0,0.0,0.0,0.0,0.0,0.0,0.0,0.0,0.0,0.0,0.0,0.0,0.0,0.0,0.0,0.0,0.0,0.0,0.0,0.0,0.0,0.0,0.0,0.0,0.0,0.0,0.0,0.0,0.0,0.0,0.0,0.0,0.0,0.0,0.0,0.0,0.0,0.0,0.0,0.0,0.0,0.0,0.0,0.0,0.0,0.0,0.0,0.0,0.0,0.0,0.0,0.0,0.0,0.0,0.0,0.0,0.0,0.0,0.0,0.0,0.0,0.0,0.0,0.0,0.0,0.0,0.0,0.0,0.0,0.0,0.0,0.0,0.0,0.0,0.0,0.0,0.0,0.0,0.0,0.0,0.0,0.0,0.0,0.0,0.0,0.0,0.0,0.0,0.0,0.0,0.0,0.0,0.0,0.0,0.0,0.0,-2.8978,-3.0342,-3.1391,-3.1511,-3.1511,-3.1511,-3.0434,-2.9146,-2.769,0.0,0.0,0.0,0.0,0.0,0.0,0.0,0.0,0.0,0.0,0.0,0.0,0.0,0.0,0.0,0.0,0.0,0.0,0.0,0.0,0.0,0.0,0.0,0.0,0.0,0.0,0.0,0.0,0.0,0.0,0.0,0.0,0.0,0.0,0.0,0.0,0.0,0.0,0.0,0.0,0.0,0.0,0.0,0.0,0.0,0.0,0.0,0.0,0.0,0.0,0.0,0.0,0.0,0.0,0.0,0.0,0.0,0.0,0.0,0.0,0.0,0.0,0.0,0.0,0.0,0.0,0.0,0.0,0.0,0.0,0.0,0.0,0.0,0.0,0.0,0.0,0.0,0.0,0.0,0.0,0.0,0.0,0.0,0.0,0.0,0.0,0.0,0.0,0.0,0.0,0.0,0.0,0.0,0.0,0.0,0.0,0.0,0.0,0.0,0.0,0.0,0.0,-2.73,-2.9101,-3.0552,-3.1406,-3.1511,-3.1406,-3.1197,-3.0402,-2.9056,-2.7106,0.0,0.0,0.0,0.0,0.0,0.0,0.0,0.0,0.0,0.0,0.0,0.0,0.0,0.0,0.0,0.0,0.0,0.0,0.0,0.0,0.0,0.0,0.0,0.0,0.0,0.0,0.0,0.0,0.0,0.0,0.0,0.0,0.0,0.0,0.0,0.0,0.0,0.0,0.0,0.0,0.0,0.0,0.0,0.0,0.0,0.0,0.0,0.0,0.0,0.0,0.0,0.0,0.0,0.0,0.0,0.0,0.0,0.0,0.0,0.0,0.0,0.0,0.0,0.0,0.0,0.0,0.0,0.0,0.0,0.0,0.0,0.0,0.0,0.0,0.0,0.0,0.0,0.0,0.0,0.0,0.0,0.0,0.0,0.0,0.0,0.0,0.0,0.0,0.0,0.0,0.0,0.0,0.0,0.0,0.0,0.0,0.0,0.0,0.0,0.0,0.0,0.0,-2.742,-2.9879,-3.1496,-3.1511,-3.1511,-3.1227,-3.0567,-2.934,-2.7739,0.0,0.0,0.0,0.0,0.0,0.0,0.0,0.0,0.0,0.0,0.0,0.0,0.0,0.0,0.0,0.0,0.0,0.0,0.0,0.0,0.0,0.0,0.0,0.0,0.0,0.0,0.0,0.0,0.0,0.0,0.0,0.0,0.0,0.0,0.0,0.0,0.0,0.0,0.0,0.0,0.0,0.0,0.0,0.0,0.0,0.0,0.0,0.0,0.0,0.0,0.0,0.0,0.0,0.0,0.0,0.0,0.0,0.0,0.0,0.0,0.0,0.0,0.0,0.0,0.0,0.0,0.0,0.0,0.0,0.0,0.0,0.0,0.0,0.0,0.0,0.0,0.0,0.0,0.0,0.0,0.0,0.0,0.0,0.0,0.0,0.0,0.0,0.0,0.0,0.0,0.0,0.0,0.0,0.0,0.0,0.0,0.0,0.0,0.0,0.0,0.0,0.0,0.0,-2.736,-2.946,-3.0972,-3.1451,-3.1511,-3.1227,-3.0567,-2.934,-2.7739,-2.5734,0.0,0.0,0.0,0.0,0.0,0.0,0.0,0.0,0.0,0.0,0.0,0.0,0.0,0.0,0.0,0.0,0.0,0.0,0.0,0.0,0.0,0.0,0.0,0.0,0.0,0.0,0.0,0.0,0.0,0.0,0.0,0.0,0.0,0.0,0.0,0.0,0.0,0.0,0.0,0.0,0.0,0.0,0.0,0.0,0.0,0.0,0.0,0.0,0.0,0.0,0.0,0.0,0.0,0.0,0.0,0.0,0.0,0.0,0.0,0.0,0.0,0.0,0.0,0.0,0.0,0.0,0.0,0.0,0.0,0.0,0.0,0.0,0.0,0.0,0.0,0.0,0.0,0.0,0.0,0.0,0.0,0.0,0.0,0.0,0.0,0.0,0.0,0.0,0.0,0.0,0.0,0.0,0.0,0.0,0.0,0.0,0.0,0.0,0.0,0.0,0.0,0.0,-2.7345,-2.928,-3.0776,-3.1436,-3.1256,-3.0823,-3.0193,-2.8936,-2.7215,-2.4956,0.0,0.0,0.0,0.0,0.0,0.0,0.0,0.0,0.0,0.0,0.0,0.0,0.0,0.0,0.0,0.0,0.0,0.0,0.0,0.0,0.0,0.0,0.0,0.0,0.0,0.0,0.0,0.0,0.0,0.0,0.0,0.0,0.0,0.0,0.0,0.0,0.0,0.0,0.0,0.0,0.0,0.0,0.0,0.0,0.0,0.0,0.0,0.0,0.0,0.0,0.0,0.0,0.0,0.0,0.0,0.0,0.0,0.0,0.0,0.0,0.0,0.0,0.0,0.0,0.0,0.0,0.0,0.0,0.0,0.0,0.0,0.0,0.0,0.0,0.0,0.0,0.0,0.0,0.0,0.0,0.0,0.0,0.0,0.0,0.0,0.0,0.0,0.0,0.0,0.0,0.0,0.0,0.0,0.0,0.0,0.0,0.0,0.0,0.0,0.0,0.0,0.0,-2.7255,-2.9146,-3.0597,-3.1256,-3.0791,-3.0163,-2.9577,-2.8289,-2.6387,-2.3774,0.0,0.0,0.0,0.0,0.0,0.0,0.0,0.0,0.0,0.0,0.0,0.0,0.0,0.0,0.0,0.0,0.0,0.0,0.0,0.0,0.0,0.0,0.0,0.0,0.0,0.0,0.0,0.0,0.0,0.0,0.0,0.0,0.0,0.0,0.0,0.0,0.0,0.0,0.0,0.0,0.0,0.0,0.0,0.0,0.0,0.0,0.0,0.0,0.0,0.0,0.0,0.0,0.0,0.0,0.0,0.0,0.0,0.0,0.0,0.0,-2.4881,-2.435,0.0,0.0,0.0,0.0,0.0,0.0,0.0,0.0,0.0,0.0,0.0,0.0,0.0,0.0,0.0,0.0,0.0,0.0,0.0,0.0,0.0,0.0,0.0,0.0,0.0,0.0,0.0,0.0,0.0,0.0,0.0,0.0,0.0,0.0,0.0,0.0,0.0,0.0,0.0,0.0,-2.6542,-2.8098,-2.9265,-2.9924,-2.9864,-2.9547,-2.8861,-2.7575,-2.5884,-2.3729,-2.2532,0.0,0.0,0.0,0.0,0.0,0.0,0.0,0.0,0.0,0.0,0.0,0.0,0.0,0.0,0.0,0.0,0.0,0.0,0.0,0.0,0.0,0.0,0.0,0.0,0.0,0.0,0.0,0.0,0.0,0.0,0.0,0.0,0.0,0.0,0.0,0.0,0.0,0.0,0.0,0.0,0.0,0.0,0.0,0.0,0.0,0.0,0.0,0.0,0.0,0.0,0.0,0.0,0.0,0.0,0.0,0.0,0.0,0.0,0.0,-2.6288,-2.5749,0.0,0.0,0.0,0.0,0.0,0.0,0.0,0.0,0.0,0.0,0.0,0.0,0.0,0.0,0.0,0.0,0.0,0.0,0.0,0.0,0.0,0.0,0.0,0.0,0.0,0.0,0.0,0.0,0.0,0.0,0.0,0.0,0.0,0.0,0.0,0.0,0.0,0.0,0.0,0.0,-2.6333,-2.7769,-2.8861,-2.9532,-2.9295,-2.8966,-2.8622,-2.7081,-2.554,-2.4178,-2.2577,0.0,0.0,0.0,0.0,0.0,0.0,0.0,0.0,0.0,0.0,0.0,0.0,0.0,0.0,0.0,0.0,0.0,0.0,0.0,0.0,0.0,0.0,0.0,0.0,0.0,0.0,0.0,0.0,0.0,0.0,0.0,0.0,0.0,0.0,0.0,0.0,0.0,0.0,0.0,0.0,0.0,0.0,0.0,0.0,0.0,0.0,0.0,0.0,0.0,0.0,0.0,0.0,0.0,-2.7634,-2.8349,-2.8483,-2.9146,-2.9445,-2.9385,-2.8158,-2.769,-2.769,-2.6452,0.0,0.0,0.0,0.0,0.0,0.0,0.0,0.0,0.0,0.0,0.0,0.0,0.0,0.0,0.0,0.0,0.0,0.0,0.0,0.0,0.0,0.0,-2.4918,-2.4148,-2.4881,-2.5151,-2.2877,0.0,0.0,0.0,0.0,0.0,0.0,0.0,0.0,0.0,0.0,0.0,-2.6183,-2.759,-2.8622,-2.9202,-2.8742,-2.8427,-2.8427,-2.6692,-2.5307,-2.4649,-2.2892,-2.1515,0.0,0.0,0.0,0.0,0.0,0.0,0.0,0.0,0.0,0.0,0.0,0.0,0.0,0.0,0.0,0.0,0.0,0.0,0.0,0.0,0.0,0.0,0.0,0.0,0.0,0.0,0.0,0.0,0.0,0.0,0.0,0.0,-1.9513,-1.9678,0.0,0.0,0.0,0.0,0.0,0.0,0.0,0.0,0.0,0.0,0.0,0.0,0.0,-2.53,-2.5226,-2.7126,-2.8412,-2.9097,-3.0387,-3.1286,-3.1884,-3.2542,-3.2841,-3.2811,-3.2063,0.0,-2.8412,-2.766,0.0,0.0,0.0,0.0,0.0,0.0,0.0,0.0,0.0,0.0,0.0,0.0,0.0,0.0,0.0,0.0,0.0,0.0,0.0,0.0,0.0,0.0,-2.6896,-2.563,-2.5914,-2.6213,-2.53,-2.3819,-2.2643,-2.2478,-2.2044,-2.1455,0.0,0.0,0.0,0.0,0.0,0.0,-2.5555,-2.6886,-2.7764,-2.7854,-2.7779,-2.7735,-2.7735,-2.6422,-2.5307,-2.4649,-2.331,-2.1994,-2.0748,-2.0524,0.0,0.0,0.0,0.0,0.0,0.0,0.0,0.0,0.0,0.0,0.0,0.0,0.0,0.0,0.0,0.0,0.0,0.0,0.0,0.0,0.0,0.0,0.0,0.0,0.0,0.0,0.0,0.0,0.0,-1.942,-2.0124,-1.9753,-2.0034,-2.0109,0.0,0.0,0.0,0.0,0.0,0.0,0.0,0.0,0.0,-2.4328,-2.6258,-2.729,-2.729,-2.9223,-3.0387,-3.0687,-3.2003,-3.2781,-3.308,-3.3365,-3.3499,-3.3484,-3.3185,-3.2407,-3.121,-2.9457,-2.8334,-2.7649,0.0,0.0,0.0,0.0,-2.7051,-2.6826,-2.7649,-2.7445,-2.6797,-2.6408,0.0,0.0,0.0,0.0,0.0,0.0,0.0,-2.4769,-2.554,-2.6378,-2.6986,-2.6752,-2.6956,-2.7091,-2.6806,-2.5773,-2.4575,-2.3437,-2.3266,-2.2766,-2.1002,-2.1002,0.0,0.0,0.0,-2.4657,-2.5989,-2.7001,-2.76,-2.76,-2.76,-2.745,-2.7076,-2.6153,-2.5307,-2.4649,-2.34,-2.2448,-2.1844,-2.1111,-2.0554,0.0,0.0,0.0,0.0,0.0,0.0,0.0,0.0,0.0,0.0,0.0,0.0,0.0,0.0,0.0,0.0,0.0,0.0,0.0,0.0,0.0,0.0,0.0,0.0,0.0,0.0,0.0,0.0,-1.9836,-2.0434,-1.9783,-2.0438,-2.0692,0.0,0.0,0.0,0.0,0.0,0.0,-2.4088,-2.5555,-2.6378,-2.6378,-2.8143,-2.9175,-2.9355,-3.0943,-3.1929,-3.2273,-3.3275,-3.3844,-3.4008,-3.4008,-3.4008,-3.3993,-3.3829,-3.3739,-3.3559,-3.1091,-2.9789,-2.9265,-2.8438,-2.8109,-2.8169,-2.8667,-2.8558,-2.8319,-2.9759,-2.9639,-2.8786,-2.8453,-2.7914,-2.7076,-2.539,0.0,0.0,0.0,0.0,-2.589,-2.7051,-2.723,-2.723,-2.775,-2.772,-2.76,-2.76,-2.721,-2.6348,-2.4687,-2.4619,-2.4186,-2.2063,-2.2108,0.0,-2.3122,-2.4148,-2.5277,-2.6437,-2.7195,-2.76,-2.76,-2.76,-2.733,-2.6647,-2.5989,-2.5307,-2.4649,-2.355,-2.2868,-2.2703,-2.1575,-2.0868,-2.0703,0.0,0.0,0.0,0.0,0.0,0.0,0.0,0.0,0.0,0.0,0.0,0.0,0.0,0.0,0.0,0.0,0.0,0.0,0.0,0.0,0.0,0.0,0.0,0.0,0.0,0.0,0.0,0.0,0.0,-1.9783,-2.0842,0.0,0.0,0.0,0.0,-2.2643,-2.4388,-2.548,-2.551,-2.738,-2.8442,-2.8442,-2.9714,-3.0717,-3.1346,-3.2064,-3.3095,-3.4354,-3.4429,-3.4771,-3.54,-3.54,-3.54,-3.537,-3.4711,-3.4459,-3.4294,-3.2258,-3.1391,-3.1227,-2.9983,-2.9502,-2.9517,-2.9547,-2.9532,-2.9517,-2.9621,-2.9606,-2.9651,-3.0178,-2.9939,-2.9322,-2.8562,-2.7889,0.0,0.0,-2.8397,-2.8562,-2.9277,-2.8966,-2.8502,-2.8547,-2.8053,-2.76,-2.76,-2.757,-2.733,-2.6572,-2.5959,-2.5315,-2.4545,0.0,-2.447,-2.45,-2.5098,-2.5809,-2.6497,-2.7195,-2.76,-2.76,-2.76,-2.733,-2.6647,-2.5989,-2.5307,-2.4649,-2.3954,-2.3295,-2.2718,-2.2009,-2.135,-2.0703,-2.0048,0.0,0.0,0.0,0.0,0.0,0.0,0.0,0.0,0.0,0.0,0.0,0.0,0.0,0.0,0.0,0.0,0.0,0.0,0.0,0.0,0.0,0.0,0.0,0.0,0.0,0.0,0.0,0.0,-2.1655,-2.2772,0.0,-2.2637,-2.34,-2.4283,-2.5144,-2.6267,-2.7245,-2.8113,-2.922,-2.9819,-2.9819,-3.1106,-3.1884,-3.2123,-3.3245,-3.4039,-3.4518,-3.4921,-3.5265,-3.5504,-3.5504,-3.5504,-3.5489,-3.525,-3.513,-3.504,-3.3903,-3.3185,-3.2706,-3.1809,-3.1465,-3.142,-3.0986,-3.0808,-3.0808,-3.0808,-3.0808,-3.0806,-3.0567,-3.0088,-2.9562,-2.9337,-2.9082,-2.8948,-2.9187,-2.922,-2.928,-2.9547,-2.9086,-2.8607,-2.8607,-2.8094,-2.76,-2.76,-2.76,-2.7525,-2.7285,-2.6692,-2.5899,-2.4784,-2.4963,-2.5232,-2.5232,-2.5809,-2.6482,-2.7165,-2.745,-2.76,-2.76,-2.721,-2.6701,-2.6019,-2.5337,-2.4664,-2.4014,-2.3729,-2.349,-2.3302,-2.2263,-2.1724,-2.1732,-2.0388,-1.9463,0.0,0.0,0.0,0.0,0.0,0.0,0.0,0.0,0.0,0.0,0.0,0.0,0.0,0.0,0.0,0.0,0.0,0.0,0.0,0.0,0.0,0.0,0.0,0.0,0.0,-2.2024,-2.2927,-2.2718,-2.4029,-2.4664,-2.4014,-2.4933,-2.5974,-2.6881,-2.7959,-2.8978,-2.9849,-3.0507,-3.0956,-3.118,-3.2048,-3.2721,-3.317,-3.4069,-3.4623,-3.4831,-3.5295,-3.5504,-3.5504,-3.5504,-3.5504,-3.5504,-3.5504,-3.5504,-3.5474,-3.5011,-3.4562,-3.4083,-3.32,-3.2841,-3.2766,-3.2079,-3.1839,-3.1809,-3.1585,-3.1511,-3.1436,-3.0972,-3.0567,-3.0238,-3.0238,-3.0238,-3.0238,-3.0238,-3.0238,-3.0238,-3.0238,-2.9579,-2.8936,-2.8936,-2.8259,-2.76,-2.76,-2.76,-2.76,-2.76,-2.724,-2.6671,-2.5779,-2.5974,-2.6273,-2.6273,-2.6632,-2.7106,-2.754,-2.76,-2.751,-2.7285,-2.6881,-2.6243,-2.5337,-2.4859,-2.4306,-2.364,-2.34,-2.3295,-2.3295,-2.2054,-2.1514,-2.1847,-2.0436,-1.9706,-1.9699,0.0,0.0,0.0,0.0,0.0,0.0,0.0,0.0,0.0,0.0,0.0,0.0,0.0,0.0,0.0,0.0,0.0,0.0,0.0,0.0,0.0,0.0,0.0,-2.0688,-2.2428,-2.343,-2.2882,-2.4492,-2.5435,-2.4784,-2.6482,-2.7645,-2.769,-2.943,-3.0507,-3.0537,-3.1137,-3.1809,-3.2497,-3.2512,-3.3155,-3.4503,-3.4533,-3.4846,-3.5504,-3.5504,-3.5504,-3.5504,-3.5504,-3.5504,-3.5504,-3.5504,-3.5504,-3.5504,-3.5504,-3.5504,-3.537,-3.4038,-3.3529,-3.344,-3.2781,-3.2527,-3.2392,-3.1735,-3.1511,-3.1511,-3.1511,-3.1511,-3.1511,-3.1511,-3.1511,-3.1511,-3.1511,-3.1511,-3.1511,-3.1511,-3.0552,-2.9606,-2.9606,-2.8588,-2.76,-2.76,-2.76,-2.76,-2.76,-2.76,-2.76,-2.76,-2.76,-2.76,-2.76,-2.76,0.0,-2.757,-2.757,-2.7315,-2.6632,-2.6542,-2.6019,-2.4709,-2.459,-2.4276,-2.361,-2.3032,-2.2703,-2.2703,-2.144,-2.0801,-2.0967,-2.0127,-1.9697,-1.9683,0.0,0.0,0.0,0.0,0.0,0.0,0.0,0.0,0.0,0.0,0.0,0.0,0.0,0.0,0.0,0.0,0.0,0.0,0.0,0.0,0.0,-2.0531,-2.153,-2.2652,-2.3678,-2.4619,-2.542,-2.6432,-2.718,-2.747,-2.7993,-2.8712,-2.9624,-3.0193,-3.0717,-3.1197,-3.1406,-3.1809,-3.2497,-3.2976,-3.3634,-3.4503,-3.4966,-3.5325,-3.5504,-3.5504,-3.5504,-3.5504,-3.5504,-3.5504,-3.5504,-3.5504,-3.5504,-3.5504,-3.5504,-3.5504,-3.5429,-3.4547,-3.4234,-3.4128,-3.3469,-3.2916,-3.2392,-3.1735,-3.1511,-3.1511,-3.1511,-3.1511,-3.1511,-3.1511,-3.1511,-3.1511,-3.1511,-3.1511,-3.1511,-3.1511,-3.0552,-2.9606,-2.9606,-2.8588,-2.76,-2.76,-2.76,-2.76,-2.76,-2.76,-2.76,-2.76,-2.76,-2.76,-2.76,-2.76,-2.742,-2.6941,-2.6881,-2.6626,-2.5959,-2.545,-2.4993,-2.4634,-2.4141,-2.361,-2.2987,-2.2793,-2.2703,-2.2703,-2.1874,-2.0984,-2.0081,-1.9821,-1.9697,0.0,0.0,0.0,0.0,0.0,0.0,0.0,0.0,0.0,0.0,0.0,0.0,0.0,0.0,0.0,0.0,0.0,0.0,0.0,0.0,0.0,0.0,-2.1635,-2.2951,-2.4253,-2.4754,-2.5397,-2.6467,-2.7195,-2.7869,-2.8532,-2.8846,-2.943,-3.0432,-3.0776,-3.1077,-3.1481,-3.1511,-3.1929,-3.2901,-3.3305,-3.3948,-3.4906,-3.531,-3.5504,-3.5504,-3.5504,-3.5504,-3.5504,-3.5504,-3.5504,-3.5504,-3.5504,-3.5504,-3.5504,-3.5504,-3.5504,-3.5474,0.0,0.0,0.0,0.0,-3.308,-3.2392,-3.1735,-3.1511,-3.1511,-3.1511,-3.1511,-3.1511,-3.1511,-3.1511,-3.1511,-3.1511,-3.1511,-3.1436,-3.1152,-3.0342,-2.9532,-2.9235,-2.8378,-2.76,-2.76,-2.76,-2.76,-2.76,-2.76,0.0,-2.76,-2.76,-2.76,-2.76,-2.736,-2.7046,-2.6632,-2.6348,-2.5929,-2.5247,-2.4829,-2.4485,-2.4201,-2.3819,0.0,0.0,0.0,-2.2499,-2.2009,-2.1803,0.0,0.0,0.0,0.0,0.0,0.0,0.0,0.0,-1.969,-1.9705,0.0,0.0,0.0,0.0,0.0,0.0,0.0,0.0,0.0,0.0,0.0,0.0,0.0,0.0,0.0,0.0,-2.2817,-2.4073,-2.542,-2.5674,-2.5959,-2.6617,-2.724,-2.7899,-2.8637,-2.9235,-2.9864,-3.0567,-3.1152,-3.1511,-3.1511,-3.1511,0.0,0.0,0.0,-3.4143,-3.5489,-3.5504,-3.5504,-3.5504,-3.5504,-3.5504,-3.5504,-3.5504,-3.5504,-3.5504,-3.5504,-3.5504,-3.5504,-3.5504,-3.5504,-3.5504,-3.5504,-3.5504,-3.534,-3.3993,-3.3125,-3.2527,-3.1765,0.0,0.0,-3.1511,-3.1511,-3.1511,-3.1511,-3.1511,-3.1511,-3.1511,-3.1511,-3.1346,-3.0687,-3.0043,-2.9442,-2.8757,-2.8094,-2.76,-2.76,-2.76,-2.76,-2.76,-2.76,-2.76,-2.76,-2.76,-2.76,-2.76,-2.7031,-2.6557,-2.6497,-2.5899,-2.5217,-2.456,-2.4485,0.0,-2.3655,-2.3595,-2.3565,-2.349,-2.3002,-2.2229,-2.1188,-2.1507,-2.1212,-2.0175,-2.015,-2.0142,-2.0135,-2.0135,-2.015,-2.0139,-2.0138,-2.0138,0.0,0.0,0.0,0.0,0.0,0.0,0.0,0.0,0.0,0.0,0.0,0.0,0.0,0.0,0.0,-2.2209,-2.3116,-2.4073,-2.542,-2.6063,-2.6671,-2.733,-2.7525,-2.8079,-2.9292,-2.9532,-3.0058,-3.1212,-3.1436,-3.1511,-3.1511,-3.1511,-3.2108,-3.3455,-3.3499,-3.4143,-3.5489,-3.5504,-3.5504,-3.5504,-3.5504,0.0,-3.5504,-3.5504,-3.5504,-3.5504,-3.5504,-3.5504,-3.5504,-3.5504,-3.5504,-3.5504,-3.5504,-3.5504,-3.534,-3.3993,-3.341,-3.314,-3.1914,-3.1511,-3.1511,-3.1511,-3.1511,-3.1511,-3.1511,-3.1511,0.0,-3.1511,-3.1511,-3.1346,-3.0687,-3.0043,-2.9442,-2.8757,-2.8094,-2.76,-2.76,-2.76,-2.76,-2.76,-2.76,-2.76,-2.76,-2.76,-2.76,-2.76,-2.7031,-2.6393,-2.5869,-2.5202,-2.453,-2.3879,-2.3789,-2.3744,-2.361,-2.3595,-2.3385,-2.2897,-2.2763,-2.2497,-2.2077,-2.1826,-2.2062,-2.2833,-2.2858,-2.2845,-2.2847,-2.2847,-2.2854,-2.2847,-2.2853,-2.2845,0.0,0.0,0.0,0.0,0.0,0.0,0.0,0.0,0.0,0.0,0.0,-1.9016,-2.0019,0.0,-2.1625,-2.2942,-2.3969,-2.4956,-2.5959,-2.6686,-2.7225,-2.7555,-2.7899,-2.8513,-2.9517,-2.9864,-3.0447,-3.1436,-3.1511,-3.1511,-3.1511,-3.1809,-3.2452,-3.3469,-3.3814,-3.4472,-3.5489,-3.5504,-3.5504,-3.5504,-3.5504,-3.5504,-3.5504,-3.5504,-3.5504,-3.5504,-3.5504,-3.5504,-3.5504,-3.5504,-3.5504,-3.5504,-3.5504,-3.5504,-3.534,-3.3993,-3.3499,-3.3305,-3.1959,-3.1511,-3.1511,-3.1511,-3.1511,-3.1511,-3.1511,-3.1511,-3.1511,-3.1511,-3.1511,-3.1346,-3.0687,-3.0043,-2.9442,-2.8757,-2.8094,-2.76,-2.76,-2.76,-2.76,-2.76,-2.76,-2.76,-2.76,-2.76,-2.76,-2.76,-2.6737,-2.5974,-2.5644,-2.4709,-2.3984,-2.364,-2.3595,-2.3595,-2.3595,-2.3595,-2.3475,-2.3182,-2.3152,-2.3083,-2.2957,-2.2753,-2.2942,-2.3584,-2.3606,-2.3606,-2.3604,-2.3604,-2.3597,-2.3592,-2.3603,-2.3604,0.0,0.0,0.0,0.0,0.0,0.0,0.0,0.0,-1.7639,-1.8835,-1.9615,-2.0288,-2.0961,-2.1964,-2.2942,-2.3684,-2.4822,-2.5839,-2.6497,-2.718,-2.76,-2.76,-2.8094,-2.8712,-2.9532,-3.0028,-3.0657,-3.1451,-3.1511,-3.1511,-3.1511,-3.2004,-3.2677,-3.3469,-3.4008,-3.4681,-3.5489,-3.5504,-3.5504,-3.5504,-3.5504,-3.5504,-3.5504,-3.5504,-3.5504,-3.5504,-3.5504,-3.5504,-3.5504,-3.5504,-3.5429,-3.531,-3.531,-3.5235,-3.4981,-3.3903,-3.341,-3.314,-3.1914,-3.1511,-3.1511,-3.1511,-3.1511,-3.1511,-3.1511,-3.1511,-3.1511,-3.1511,-3.1511,-3.1346,-3.0687,-3.0043,-2.9442,-2.8757,-2.8094,-2.76,-2.76,-2.76,-2.76,-2.76,-2.76,-2.76,-2.76,-2.76,-2.7555,-2.742,-2.6378,-2.5555,-2.5412,-2.4358,-2.3595,-2.3595,-2.3595,-2.3595,-2.3595,-2.3595,-2.3595,-2.3595,-2.3595,-2.3591,-2.3612,-2.3597,-2.3597,-2.3597,-2.3597,-2.3598,-2.3595,-2.3595,-2.3595,-2.3595,-2.3595,-2.3595,-1.8446,-1.7712,-1.7085,-1.8192,-1.7594,-1.7174,0.0,0.0,-1.957,-2.0314,-2.1021,-2.168,-2.2358,-2.2598,-2.3092,-2.4291,-2.5113,-2.5839,-2.6497,-2.718,-2.76,-2.76,-2.766,-2.8214,-2.9487,-2.9666,-3.0193,-3.1406,-3.1511,-3.1511,-3.1511,-3.157,-3.2183,-3.3455,-3.3559,-3.4218,-3.5489,-3.5504,-3.5504,-3.5504,-3.5504,-3.5504,-3.5504,-3.5504,-3.5504,-3.5504,-3.5504,-3.5504,-3.5504,-3.5504,-3.5145,-3.4623,-3.4623,-3.4233,-3.3709,-3.3559,-3.3125,-3.2527,-3.1765,-3.1511,-3.1511,-3.1511,-3.1511,-3.1511,-3.1511,-3.1511,-3.1511,-3.1511,-3.1511,-3.1346,-3.0687,-3.0043,-2.9442,-2.8757,-2.8094,-2.76,-2.76,-2.76,-2.76,-2.76,-2.76,-2.76,-2.76,-2.76,-2.7405,-2.6806,-2.6078,-2.5367,-2.4784,-2.4073,-2.3595,-2.3595,-2.3595,-2.3595,-2.3595,-2.3595,-2.3595,-2.3595,-2.3595,-2.3601,-2.3593,-2.3593,-2.3593,-2.3593,-2.3593,-2.3586,-2.3595,-2.3595,-2.3595,-2.3595,-2.3595,-2.3595,-1.8732,-1.8583,-1.8386,-1.8177,-1.7997,-1.8192,-1.9405,-1.9708,-2.0007,-2.1066,-2.1814,-2.2373,-2.2643,-2.3002,-2.3655,-2.4963,-2.5435,-2.5974,-2.7046,-2.742,-2.76,-2.76,-2.76,-2.8124,-2.9472,-2.9909,-3.0507,-3.1436,-3.1511,-3.1511,-3.1511,-3.2228,-3.2931,-3.3484,-3.4262,-3.4936,-3.5504,-3.5504,-3.5504,-3.5504,-3.5504,-3.5504,-3.5504,-3.5504,-3.5504,-3.5504,-3.5504,-3.5504,-3.5504,-3.5504,-3.5325,-3.504,-3.4668,-3.4099,-3.344,-3.3066,-3.2751,-3.2392,-3.1735,-3.1511,-3.1511,-3.1511,-3.1511,-3.1511,-3.1511,-3.1511,-3.1511,-3.1511,-3.1212,-3.0838,-3.0582,-2.9759,-2.8951,-2.8667,-2.8094,-2.76,-2.76,-2.76,-2.76,-2.76,-2.76,-2.76,-2.76,-2.76,-2.724,-2.6183,-2.5779,-2.551,-2.5217,-2.4268,-2.3595,-2.3595,-2.3595,-2.3595,-2.3595,-2.3595,-2.3595,-2.3595,-2.3595,-2.3595,-2.3595,-2.3595,-2.3595,-2.3595,-2.3595,-2.3595,-2.3595,-2.3595,-2.3595,-2.3595,-2.3595,-2.3595,-1.9061,-1.9061,-1.9001,-1.8386,-1.8627,-1.9151,-1.9809,-2.0262,-2.0801,-2.1789,-2.2493,-2.2957,-2.2957,-2.3295,-2.4044,-2.539,-2.5615,-2.6063,-2.7405,-2.76,-2.76,-2.76,-2.76,-2.8049,-2.9217,-2.9879,-3.0612,-3.1436,-3.1511,-3.1511,-3.1511,-3.2407,-3.3125,-3.3484,-3.4442,-3.513,-3.5504,-3.5504,-3.5504,-3.5504,-3.5504,-3.5504,-3.5504,-3.5504,-3.5504,-3.5504,-3.5504,-3.5504,-3.5504,-3.5504,-3.528,-3.4906,-3.4397,-3.3694,-3.2901,-3.2392,-3.2213,-3.2138,-3.1675,-3.1511,-3.1511,-3.1511,-3.1511,-3.1511,-3.1511,-3.1511,-3.1511,-3.1511,-3.1152,-3.0791,-3.0791,-2.9834,-2.8876,-2.8876,-2.8229,-2.76,-2.76,-2.76,-2.76,-2.76,-2.76,-2.76,-2.76,-2.76,-2.721,-2.6048,-2.5719,-2.548,-2.5106,-2.4208,-2.3595,-2.3595,-2.3595,-2.3595,-2.3595,-2.3595,-2.3595,-2.3595,-2.3595,-2.3595,-2.3595,-2.3595,-2.3595,-2.3595,-2.3595,-2.3595,-2.3595,-2.3595,-2.3595,-2.3595,-2.3595,-2.3595,-1.9513,-1.8747,-1.8057,-1.9316,-1.9648,-1.9857,-2.0509,-2.168,-2.2613,-2.2658,-2.3152,-2.3565,-2.3565,-2.3595,-2.4044,-2.539,-2.5615,-2.6063,-2.7405,-2.76,-2.76,-2.76,-2.76,-2.7869,-2.8562,-2.922,-3.0148,-3.1406,-3.1511,-3.1511,-3.1511,-3.154,-3.2153,-3.3455,-3.3529,-3.4173,-3.5489,-3.5504,-3.5504,-3.5504,-3.5504,-3.5504,-3.5504,-3.5504,-3.5504,-3.5504,-3.5504,-3.5504,-3.5504,-3.5504,-3.4741,-3.3559,-3.3529,-3.2736,-3.157,-3.154,-3.1525,-3.1525,-3.1511,-3.1511,-3.1511,-3.1511,-3.1511,-3.1511,-3.1511,-3.1511,-3.1511,-3.1511,-3.1496,-3.1466,-3.1466,-3.0537,-2.9577,-2.9577,-2.8558,-2.76,-2.76,-2.76,-2.76,-2.76,-2.76,-2.76,-2.76,-2.76,-2.736,-2.6662,-2.6019,-2.5136,-2.3834,-2.3625,-2.3595,-2.3595,-2.3595,-2.3595,-2.3595,-2.3595,-2.3595,-2.3595,-2.3595,-2.3595,-2.3595,-2.3595,-2.3595,-2.3595,-2.3595,-2.3595,-2.3595,-2.3595,-2.3595,-2.3595,-2.3595,-2.3595,-1.8553,-1.8687,-1.9136,-1.9588,-2.0034,-2.0662,-2.1754,-2.2388,-2.2808,-2.3206,-2.3445,-2.3595,-2.3595,-2.3595,-2.4044,-2.539,-2.5615,-2.6063,-2.7405,-2.76,-2.76,-2.76,-2.76,-2.7869,-2.8532,-2.9205,-2.9939,-3.0763,-3.1241,-3.1511,-3.1511,-3.1914,-3.2557,-3.3469,-3.3918,-3.4577,-3.5489,-3.5504,-3.5504,-3.5504,-3.5504,-3.5504,-3.5504,-3.5504,-3.5504,-3.5504,-3.5504,-3.5504,-3.5504,-3.5504,-3.4966,-3.4098,-3.3664,-3.2961,-3.2108,-3.166,-3.1511,-3.1511,-3.1511,-3.1511,-3.1511,-3.1511,-3.1511,-3.1511,-3.1511,-3.1511,-3.1511,-3.1511,-3.0883,-3.0328,-3.0746,-2.9549,-2.8393,-2.8816,-2.8259,-2.76,-2.76,-2.76,-2.76,-2.76,-2.76,-2.76,-2.76,-2.76,-2.7225,-2.6093,-2.5375,-2.4605,-2.3714,-2.3595,-2.3595,-2.3595,-2.3595,-2.3595,-2.3595,-2.3595,-2.3595,-2.3595,-2.3595,-2.3595,-2.3595,-2.3595,-2.3595,-2.3595,-2.3595,-2.3595,-2.3595,-2.3595,-2.3595,-2.3595,-2.3595,-2.3595,-1.8939,-1.9388,-2.0109,-2.0348,-2.0748,-2.136,-2.2467,-2.27,-2.2807,-2.3214,-2.3287,-2.3206,-2.2966,-2.2921,-2.343,-2.4978,-2.5232,-2.5794,-2.7375,-2.76,-2.76,-2.76,-2.76,-2.7764,-2.8188,-2.8846,-2.9579,-3.0447,-3.1122,-3.1511,-3.1511,-3.1914,-3.2437,-3.3125,-3.3784,-3.4442,-3.513,-3.5385,-3.5504,-3.5504,-3.5504,-3.5504,-3.5504,-3.5504,-3.5504,-3.5504,-3.5504,-3.5504,-3.5489,-3.5235,-3.4741,-3.4099,-3.3395,-3.2736,-3.2079,-3.166,-3.1511,-3.1511,-3.1511,-3.1511,-3.1511,-3.1511,-3.1511,-3.1511,-3.1511,-3.1511,-3.1511,-3.1511,-3.0898,-3.0313,-3.0462,-2.94,-2.8364,-2.8547,-2.8094,-2.76,-2.76,-2.76,-2.76,-2.76,-2.76,-2.76,-2.76,-2.721,-2.6497,-2.5397,-2.4664,-2.4081,-2.3655,-2.3595,-2.3595,-2.3595,-2.3595,-2.3595,-2.3595,-2.3595,-2.3595,-2.3595,-2.3595,-2.3595,-2.3595,-2.3591,-2.3612,-2.3595,-2.3591,-2.3591,-2.3595,-2.3595,-2.3595,-2.3595,-2.3595,-2.3595,-2.0543,-2.0718,-2.0897,-2.1575,-2.1727,-2.1859,-2.2506,-2.2658,-2.265,-2.2617,-2.2622,-2.2448,0.0,0.0,-2.2353,-2.4201,-2.459,-2.5322,-2.7285,-2.757,-2.76,-2.76,-2.76,-2.76,-2.7645,-2.8248,-2.916,-3.0417,-3.1077,-3.1466,-3.1511,-3.1511,-3.1824,-3.2542,-3.317,-3.3829,-3.4548,-3.5175,-3.5504,-3.5504,-3.5504,-3.5504,-3.5504,-3.5504,-3.5504,-3.5504,-3.5504,-3.5504,-3.5444,-3.4788,-3.4114,-3.3425,-3.2766,-3.2079,-3.1511,-3.1511,-3.1511,-3.1511,-3.1511,-3.1511,-3.1511,-3.1511,-3.1511,-3.1511,-3.1511,-3.1511,-3.1511,-3.1511,-3.1481,-3.1316,-3.0717,-3.0043,-2.9412,-2.8786,-2.8124,-2.76,-2.76,-2.76,-2.76,-2.76,-2.76,-2.7585,-2.754,-2.6452,-2.5367,-2.4709,-2.4022,-2.3595,-2.3595,-2.3595,-2.3595,-2.3595,-2.3595,-2.3595,-2.3595,-2.3595,-2.3595,-2.3595,-2.3595,-2.3595,-2.3595,-2.3589,-2.3543,-2.3389,-2.3522,-2.361,-2.3595,-2.3595,-2.3595,-2.3595,-2.3595,-2.3595,-2.0643,-2.1066,-2.1605,-2.2283,-2.2072,-2.1774,-2.2036,-2.2024,-2.1828,-2.1445,-2.1676,-2.1739,-2.1081,-2.1769,-2.2613,-2.3107,-2.4403,-2.5704,-2.6692,-2.7285,-2.76,-2.76,0.0,-2.7809,-2.8293,-2.8936,-2.9669,-3.0447,-3.0672,-3.0957,-3.1481,-3.1511,-3.2034,-3.3215,-3.341,-3.4053,-3.5235,-3.5415,-3.5504,-3.5504,-3.5504,-3.5504,-3.5504,-3.5504,-3.5504,-3.5504,-3.5504,-3.5504,-3.5444,-3.4788,-3.4114,-3.3425,-3.2766,-3.2079,-3.1511,-3.1511,-3.1511,-3.1511,-3.1511,-3.1511,-3.1511,-3.1511,-3.1511,-3.1511,-3.1511,-3.1511,-3.1511,-3.1511,-3.1137,-3.0823,-3.1152,-3.0073,-2.8936,-2.9277,-2.8453,-2.76,-2.76,-2.76,-2.76,-2.76,-2.76,-2.7435,-2.6941,-2.6153,-2.5367,-2.4709,-2.4022,-2.3595,-2.3595,-2.3595,-2.3595,-2.3595,-2.3595,-2.3595,-2.3595,-2.3595,-2.3595,-2.3595,-2.3595,-2.3595,-2.3595,-2.3599,-2.2677,-2.0733,-2.2612,-2.3599,-2.3595,-2.3595,-2.3595,-2.3595,-2.3595,-2.3595,-2.1575,-2.2039,-2.2622,-2.2996,-2.239,-2.1798,-2.2165,-2.1739,-2.118,-2.0876,-2.105,-2.0976,-2.0004,-2.0917,-2.1924,-2.2224,-2.3894,0.0,-2.6452,-2.718,-2.76,0.0,-2.76,0.0,-2.8532,-2.8936,-2.952,-3.0432,-3.0763,-3.1092,-3.1481,-3.1511,-3.1839,-3.2617,-3.3185,-3.4143,-3.5489,-3.5504,-3.5504,-3.5504,-3.5504,-3.5504,-3.5504,-3.5504,-3.5504,-3.5504,-3.5504,-3.5325,-3.4996,-3.4322,-3.3664,-3.3006,-3.2303,-3.1824,-3.1511,-3.1511,-3.1511,-3.1511,-3.1511,-3.1511,-3.1511,-3.1511,-3.1511,-3.1511,-3.1511,-3.1511,-3.1511,-3.1511,-3.1227,-3.0943,-3.1032,-3.0058,-2.9056,-2.9131,-2.8364,-2.76,-2.76,-2.76,-2.76,-2.76,-2.76,-2.7285,-2.6318,-2.5854,-2.5262,-2.4306,-2.3849,-2.3595,-2.3595,-2.3595,-2.3595,-2.3595,-2.3595,-2.3595,-2.3595,-2.3595,-2.3595,-2.3595,-2.3595,-2.3595,-2.3595,-2.3597,-2.2901,-2.1427,-2.285,-2.3603,-2.3595,-2.3595,-2.3595,-2.3595,-2.3595,-2.3595,-2.2808,-2.3191,-2.358,-2.349,-2.2584,-2.1822,-2.2227,-2.1404,-2.0538,-2.0487,-2.0516,-2.015,-1.8822,-1.975,-2.0853,-2.135,0.0,-2.4933,-2.6273,-2.7046,-2.7495,-2.7585,-2.76,-2.7899,-2.8652,-2.8727,-2.9265,-3.0552,-3.1167,-3.1511,-3.1511,-3.1511,-3.154,-3.163,-3.2946,-3.4188,-3.5355,-3.5459,-3.5504,-3.5504,-3.5504,-3.5504,-3.5504,-3.5415,-3.5415,-3.5504,-3.5415,-3.5026,-3.4459,-3.3769,-3.3095,-3.2422,-3.1765,-3.1511,-3.1511,-3.1511,-3.1511,-3.1511,-3.1511,-3.1511,-3.1511,-3.1511,-3.1511,-3.1511,-3.1511,-3.1511,-3.1511,-3.1511,-3.1511,-3.1346,-3.0687,-3.0043,-2.9442,-2.8757,-2.8094,-2.76,-2.76,-2.76,-2.76,-2.76,-2.76,-2.7205,-2.5918,-2.5661,-2.5174,-2.3898,-2.3638,-2.3595,-2.3595,-2.3595,-2.3595,-2.3595,-2.3595,-2.3595,-2.3595,-2.3595,-2.3595,-2.3595,-2.3595,-2.3595,-2.3595,-2.3598,-2.3604,-2.3595,-2.3604,-2.3604,-2.3595,-2.3595,-2.3595,-2.3595,-2.3595,-2.3595,-2.3295,-2.352,-2.3475,-2.2987,-2.2276,-2.1454,-2.0589,-2.0122,0.0,0.0,-1.9564,-1.945,-1.8117,-1.9418,-2.0572,-2.0127,-2.2143,-2.4238,-2.5585,-2.6348,-2.6986,0.0,-2.76,-2.8079,-2.9322,-2.9442,-2.9953,-3.1227,-3.1436,-3.1511,-3.1511,-3.1511,-3.175,-3.2303,-3.3619,-3.4459,-3.4683,-3.522,-3.5504,-3.5504,-3.5504,-3.5504,-3.5489,-3.4921,-3.4966,-3.5474,-3.4906,-3.4623,-3.4459,-3.3769,-3.3095,-3.2422,-3.1765,-3.1511,-3.1511,-3.1511,-3.1511,-3.1511,-3.1511,-3.1511,-3.1511,-3.1511,-3.1511,-3.1511,-3.1511,-3.1511,-3.1511,-3.1511,-3.1511,-3.1346,-3.0687,-3.0043,-2.9442,-2.8757,-2.8094,-2.76,-2.76,-2.76,-2.76,-2.76,-2.76,-2.7314,-2.642,-2.5886,-2.5311,-2.4399,-2.3879,-2.3595,-2.3595,-2.3595,-2.3595,-2.3595,-2.3595,-2.3595,-2.3595,-2.3595,-2.3595,-2.3595,-2.3595,-2.3595,-2.3595,-2.3593,-2.3593,-2.3595,-2.3593,-2.3593,-2.3595,-2.3595,-2.3595,-2.3595,-2.3595,-2.3595,-2.352,-2.3595,-2.3445,-2.2853,-2.2209,-2.1456,-2.0533,0.0,0.0,0.0,-1.953,-1.9408,-1.8386,-1.9582,-2.0483,-1.9813,-2.164,-2.358,-2.4889,-2.5674,-2.6452,-2.748,-2.7914,-2.8513,-2.9517,-2.9864,-3.0477,-3.1436,-3.1511,-3.1511,-3.1511,-3.1511,-3.1809,-3.2497,-3.3455,-3.4159,-3.4503,-3.516,-3.5504,-3.5504,-3.5504,-3.5325,-3.4966,-3.4996,-3.4996,-3.4951,-3.4653,-3.4309,-3.3918,-3.326,-3.2572,-3.1944,-3.163,-3.1511,-3.1511,-3.1511,-3.1511,-3.1511,-3.1511,-3.1511,-3.1511,-3.1511,-3.1511,-3.1511,-3.1511,-3.1511,-3.1511,-3.1511,-3.1511,-3.1436,-3.1092,-3.0313,-2.9532,-2.919,-2.8349,-2.76,-2.76,-2.76,-2.7685,-2.7993,-2.8067,-2.7721,-2.6653,-2.6243,-2.5582,-2.4204,-2.3752,-2.3595,-2.3595,-2.3595,-2.3595,-2.3595,-2.3595,-2.3595,-2.3595,-2.3595,-2.3595,-2.3595,-2.3595,-2.3595,-2.3595,-2.3595,-2.3595,-2.3595,-2.3595,-2.3595,-2.3595,-2.3595,-2.3595,-2.3595,-2.3595,-2.3595,-2.3595,-2.3595,-2.3415,-2.2673,-2.2104,-2.1485,-2.0677,-2.0079,0.0,-1.9708,-1.9708,-1.9513,-1.8822,-1.969,-2.0318,0.0,-2.1265,-2.2966,-2.4395,-2.5173,-2.6093,-2.7435,-2.8173,0.0,-2.9547,-3.0148,-3.0791,-3.1451,-3.1511,-3.1511,-3.1511,-3.1511,-3.1735,-3.2258,-3.2946,-3.3604,-3.4294,-3.4936,-3.5355,-3.5504,-3.5355,-3.5085,-3.4728,-3.4816,-3.4726,-3.4488,-3.4219,-3.3769,-3.3245,-3.2721,-3.2093,-3.1511,-3.1511,-3.1511,-3.1511,-3.1511,-3.1511,-3.1511,-3.1511,-3.1511,-3.1511,-3.1511,-3.1511,-3.1511,-3.1511,-3.1511,-3.1511,-3.1511,-3.1511,-3.1436,-3.1152,-3.0357,-2.9532,-2.9247,-2.8364,-2.76,-2.76,-2.771,-2.7919,-2.8415,-2.8606,-2.8295,-2.7092,-2.666,-2.5923,-2.4245,-2.3771,-2.3595,-2.3595,-2.3595,-2.3595,-2.3595,-2.3595,-2.3595,-2.3595,-2.3595,-2.3595,-2.3595,-2.3595,-2.3595,-2.3595,-2.3595,-2.3595,-2.3595,-2.3595,-2.3595,-2.3595,-2.3595,-2.3595,-2.3595,-2.3595,-2.3595,-2.3595,-2.3595,-2.331,-2.2084,-2.1739,-2.1365,-2.0082,0.0,-1.9708,-1.9708,-1.9708,-1.9513,-1.8822,-1.9286,-1.9768,-1.9708,0.0,-2.2458,-2.4335,-2.5173,-2.6093,-2.7435,0.0,0.0,-2.9547,-3.0148,-3.0791,-3.1451,-3.1511,-3.1511,-3.1511,-3.1511,-3.1525,-3.1585,-3.2228,-3.2916,-3.3589,-3.4279,-3.4891,-3.5489,-3.4861,-3.4861,-3.5355,-3.3589,-3.341,-3.4444,-3.3215,-3.2662,-3.2602,-3.2542,-3.2093,-3.1511,-3.1511,-3.1511,-3.1511,-3.1511,-3.1511,-3.1511,-3.1511,-3.1511,-3.1511,-3.1511,-3.1511,-3.1511,-3.1511,-3.1511,-3.1511,-3.1511,-3.1511,-3.1227,-3.0058,-2.9696,-2.9292,-2.8064,-2.769,-2.76,-2.76,-2.8018,-2.8415,-2.8487,-2.8943,-2.9077,-2.8273,-2.7237,-2.6209,-2.5367,-2.4295,-2.3595,-2.3595,-2.3595,-2.3595,-2.3595,-2.3595,-2.3595,-2.3595,-2.3595,-2.3595,-2.3595,-2.3595,-2.3595,-2.3595,-2.3595,-2.3595,-2.3595,-2.3595,-2.3595,-2.3595,-2.3595,-2.3595,-2.3595,-2.3595,-2.3595,-2.349,-2.3595,-2.3295,-2.2024,-2.1695,-2.1335,-2.0007,0.0,-1.9708,-1.9708,-1.9708,-1.9618,-1.9346,-1.9528,-1.9708,-1.9708,-2.0157,-2.1036,-2.2637,-2.343,-2.4477,-2.6183,-2.7694,-2.8861,-2.9547,-3.0507,-3.1212,-3.1481,-3.1511,-3.1511,-3.1511,-3.1511,-3.1511,-3.1511,-3.2557,-3.323,-3.3499,-3.4562,-3.5026,-3.4876,-3.4638,-3.4203,-3.3694,-3.329,-3.317,-3.326,-3.2736,-3.2512,-3.2482,-3.2049,-3.1735,-3.1511,-3.1511,-3.1511,-3.1511,-3.1511,-3.1511,-3.1511,-3.1511,-3.1511,-3.1511,-3.1511,-3.1511,-3.1511,-3.1511,-3.1511,-3.1421,-3.1002,-3.0883,-3.0717,-2.9846,-2.928,-2.8742,-2.7824,-2.76,-2.7685,-2.8067,-2.8334,-2.8606,-2.8966,-2.9225,-2.9054,-2.7998,-2.7429,-2.6732,-2.5674,-2.4777,-2.4201,-2.4201,-2.3849,-2.3595,-2.3595,-2.3595,-2.3595,-2.3595,-2.3595,-2.3595,-2.3595,-2.3595,-2.3595,-2.3595,-2.3595,-2.3595,-2.3595,-2.3595,-2.3595,-2.3595,-2.3595,-2.3595,-2.3595,-2.3595,-2.3595,-2.3227,-2.346,-2.3295,-2.2024,-2.1695,-2.1335,0.0,-1.9708,-1.9708,-1.9708,-1.9708,-1.9708,-1.9708,-1.9708,-1.9708,0.0,-1.9872,-2.0453,-2.1819,-2.2568,-2.361,-2.539,-2.72,-2.8562,-2.922,-3.0629,-3.1511,-3.1511,-3.1511,-3.1511,-3.1511,-3.1511,-3.1511,-3.1511,-3.2437,-3.3006,-3.32,-3.4143,-3.4472,-3.4219,-3.3978,-3.3514,-3.2811,-3.2886,-3.2766,-3.2497,-3.2273,-3.2183,-3.2153,-3.169,-3.1511,-3.1511,-3.1511,-3.1511,-3.1511,-3.1511,-3.1511,-3.1511,-3.1511,-3.1511,-3.1511,-3.1511,-3.1376,-3.1197,-3.1197,-3.1197,-3.1062,-3.0417,-3.0088,-2.9834,-2.94,-2.8801,-2.8225,-2.7956,-2.786,-2.8042,-2.8638,-2.8919,-2.9104,-2.9361,-2.9695,-2.9534,-2.8266,-2.8059,-2.7604,-2.6351,-2.541,-2.4799,-2.4627,-2.4007,-2.3595,-2.3595,-2.3595,-2.3595,-2.3595,-2.3595,-2.3595,-2.3595,-2.3595,-2.3595,-2.3595,-2.3595,-2.3595,-2.3595,-2.3595,-2.3595,-2.3595,-2.3595,-2.3595,-2.3595,-2.3595,-2.3595,-2.2703,-2.3152,-2.3295,-2.2024,-2.1695,-2.1335,-2.0007,-1.9708,-1.9708,-1.9708,-1.9708,-1.9708,-1.9708,-1.9708,-1.9708,-1.9708,-2.0258,-2.1171,-2.2508,-2.3212,-2.4088,0.0,-2.6806,-2.7884,-2.8547,-3.036,-3.1511,-3.1511,-3.1511,-3.1511,-3.1511,-3.1511,-3.1511,-3.1511,-3.1511,-3.1839,-3.2512,-3.2512,-3.2871,-3.3499,-3.2841,-3.2871,-3.344,-3.2108,-3.1869,-3.2452,-3.1795,-3.1511,-3.1511,-3.1511,-3.1511,-3.1511,-3.1511,-3.1511,-3.1511,-3.1511,-3.1511,-3.1511,-3.1511,-3.1511,-3.1511,-3.1511,-3.1047,-3.0507,-3.0507,-3.0507,-3.0387,-2.9786,-2.9131,-2.8622,-2.8607,-2.8124,-2.775,-2.8343,-2.8487,-2.8677,-2.9248,-2.9848,-3.0102,-2.9518,-3.0356,-3.0797,-2.9607,-2.9328,-2.886,-2.767,-2.6324,-2.5256,-2.4695,-2.4007,-2.3595,-2.3595,-2.3595,-2.3595,-2.3595,-2.3595,-2.3595,-2.3595,-2.3595,-2.3595,-2.3595,-2.3595,-2.3595,-2.3595,-2.3595,-2.3595,-2.3595,-2.3595,-2.3595,-2.3595,-2.3595,-2.3595,-2.1874,-2.2158,-2.2099,-2.1231,-2.1021,-2.0797,-1.9884,-1.9708,-1.9708,-1.9708,-1.9708,-1.9708,-1.9708,-1.9708,-2.0007,-2.0917,-2.1246,0.0,-2.2583,-2.361,0.0,-2.551,-2.7964,-2.9849,-3.0509,-3.1137,-3.1511,-3.1511,-3.1511,-3.1511,-3.1511,-3.1511,-3.1511,-3.1511,-3.1944,-3.2273,-3.2512,-3.2961,-3.3066,-3.2826,-3.2617,-3.2363,-3.2108,-3.169,-3.1615,-3.1795,-3.1585,-3.1511,-3.1511,-3.1511,-3.1511,-3.1511,-3.1511,-3.1511,-3.1511,-3.1511,-3.1511,-3.1511,-3.1511,-3.1511,-3.1511,-3.1511,-3.1032,-3.0417,-2.9998,-2.9864,-2.9744,-2.9086,-2.8412,-2.7929,-2.7929,-2.8076,-2.8262,-2.8439,-2.8826,-2.9271,-2.987,-2.9848,-2.9629,-2.9429,-2.9717,-2.9717,-2.8919,-2.8754,-2.8619,-2.8241,-2.6681,-2.55,-2.5323,-2.4298,-2.3745,-2.4116,-2.3815,-2.3595,-2.3595,-2.3604,-2.3616,-2.3601,-2.3604,-2.3595,-2.3616,-2.3595,-2.3595,-2.3595,-2.3595,-2.3595,-2.3595,-2.3595,-2.3595,-2.3595,-2.3595,-2.3849,-2.1141,-2.1515,-2.1545,-2.0872,-2.0703,-2.0509,-1.9839,-1.9708,-1.9708,-1.9708,-1.9708,-1.9708,-1.9708,-1.9708,-1.9977,-2.0816,-2.1156,-2.165,0.0,0.0,0.0,-2.6183,-2.8607,-3.0417,-3.1047,-3.1346,-3.1511,-3.1511,-3.1511,-3.1511,-3.1511,-3.1511,-3.1511,-3.1511,-3.1899,-3.2108,-3.2108,-3.2557,-3.2557,-3.2108,-3.2108,-3.1899,-3.1511,-3.1511,-3.1511,-3.1511,-3.1511,-3.1511,0.0,-3.1511,-3.1511,-3.1511,-3.1511,-3.1511,-3.1511,-3.1511,-3.1511,-3.1511,-3.1511,-3.1511,-3.1511,-3.1511,-3.0883,-3.0043,-2.94,-2.9052,-2.8768,-2.8349,-2.7929,-2.7635,-2.7885,-2.8213,-2.8614,-2.9081,-2.9473,-2.9892,-3.0497,-3.0335,-3.0016,-2.9783,-2.9913,-2.9805,-2.8973,-2.9035,-2.9019,-2.8559,-2.7435,-2.6489,-2.6045,-2.5438,-2.4972,-2.4802,-2.4688,-2.4413,-2.3937,-2.3896,-2.3989,-2.4179,-2.3814,-2.3599,-2.3601,-2.3595,-2.3595,-2.3595,-2.3595,-2.3595,-2.3595,-2.3595,-2.3595,-2.3595,-2.3595,-2.3969,0.0,-2.11,-2.141,-2.0778,-2.0628,-2.0483,-1.9824,-1.9708,0.0,-1.9708,-1.9708,-1.9708,-1.9768,-1.9738,-1.9753,-1.9887,-2.0438,-2.1321,-2.2658,-2.3475,0.0,-2.7435,-2.8933,-2.9953,-3.0522,-3.1122,-3.1511,-3.1511,-3.1511,-3.1511,-3.1511,-3.1511,-3.1511,-3.1511,-3.1511,-3.1511,-3.1511,-3.1511,-3.1511,-3.1511,-3.1511,-3.1511,-3.1511,-3.1511,-3.1511,-3.1511,-3.1511,-3.1511,-3.1511,-3.1511,-3.1511,-3.1511,-3.1511,-3.1511,-3.1511,-3.1511,-3.1511,-3.1511,-3.1511,-3.1511,-3.1496,-3.1391,-3.0567,-2.9472,-2.8742,-2.8094,-2.7625,-2.7635,-2.766,-2.781,-2.8415,-2.8606,-2.8919,-3.0038,-3.0335,-3.0518,-3.1075,-3.1171,-3.0975,-3.0414,-3.074,-3.0777,-2.9607,-2.9848,-2.9848,-2.8677,-2.8419,-2.7924,-2.6814,-2.7083,-2.694,-2.5732,-2.6023,-2.5843,-2.4697,-2.4486,-2.4651,-2.5185,-2.4184,-2.3599,-2.3601,-2.3595,-2.3595,-2.3595,-2.3595,-2.3595,-2.3595,-2.3595,-2.3595,-2.3595,-2.3595,-2.3984,-2.0358,0.0,-2.0142,-1.9959,-1.9947,-1.9902,0.0,-1.9708,-1.9708,-1.9708,-1.9708,-1.9872,-2.0378,-2.0049,-2.0202,-2.1744,-2.2134,-2.2682,-2.3962,-2.6048,-2.7844,-2.8992,-3.0268,-3.1107,-3.1256,-3.1406,-3.1511,-3.1511,-3.1511,-3.1511,-3.1511,-3.1511,-3.1511,-3.1511,-3.1511,-3.1511,-3.1511,-3.1511,-3.1511,-3.1511,-3.1511,-3.1511,-3.1511,-3.1511,-3.1511,-3.1511,-3.1511,-3.1511,-3.1511,-3.1511,-3.1511,-3.1511,-3.1511,-3.1511,-3.1511,-3.1511,-3.1511,-3.1511,-3.1511,-3.1511,-3.1346,-3.0357,-2.9834,-2.9382,-2.8199,-2.772,-2.7685,-2.8165,-2.8286,-2.8439,-2.9019,-2.954,-2.9951,-3.023,-3.0658,-3.1035,-3.1171,-3.0838,-3.0477,-3.033,-3.0398,-3.0272,-2.954,-2.9518,-2.9361,-2.8606,-2.8046,-2.7602,-2.7319,-2.7346,-2.7441,-2.7537,-2.6796,-2.6333,-2.646,-2.5342,-2.4791,-2.5194,-2.4178,-2.3599,-2.3601,-2.3595,-2.3595,-2.3595,-2.3595,-2.3595,-2.3595,-2.3595,-2.3595,-2.3595,-2.3595,-2.4238,-2.0616,-2.0465,-2.0294,-2.0294,-2.0294,-2.0294,-2.0294,-2.0294,-2.0243,-2.0017,0.0,-2.0033,-2.0205,-2.0198,-2.0513,-2.1605,-2.2517,-2.3774,-2.5704,-2.8011,-2.9633,-2.9978,-3.119,-3.1881,-3.1524,-3.1511,-3.1511,-3.1511,-3.1511,-3.1511,-3.1511,-3.1511,-3.1511,-3.1511,-3.1511,-3.1511,-3.1511,-3.1511,-3.1511,-3.1511,-3.1511,-3.1511,-3.1511,-3.1511,-3.1511,-3.1511,-3.1511,-3.1511,-3.1511,-3.1511,-3.1511,-3.1511,-3.1511,-3.1511,-3.1511,-3.1511,-3.1511,-3.1511,-3.1511,-3.1511,-3.1331,-3.0342,-3.0006,-2.9818,-2.8794,-2.8443,-2.8424,-2.8487,-2.8685,-2.9042,-2.9651,-3.0059,-3.0372,-3.0658,-3.0958,-3.119,-3.119,-3.0938,-3.072,-3.072,-3.0477,-3.0102,-2.9496,-2.9406,-2.9219,-2.8583,-2.8665,-2.8682,-2.8406,-2.8822,-2.9015,-2.8685,-2.8032,-2.7514,-2.7208,-2.5863,-2.5086,-2.5206,-2.4653,-2.4106,-2.3616,-2.3595,-2.3595,-2.3595,-2.3595,-2.3595,-2.3595,-2.3595,-2.3595,-2.361,-2.3924,-2.4605,-2.1231,-2.1247,-2.1199,-2.1039,-2.0991,-2.0991,-2.0991,0.0,0.0,0.0,0.0,0.0,-2.011,-2.0505,-2.0912,-2.1107,-2.2712,-2.4762,-2.724,-2.9236,-3.0451,-3.0501,-3.1637,-3.2203,-3.1553,-3.1511,-3.1511,-3.1511,-3.1511,-3.1511,-3.1511,-3.1511,-3.1511,-3.1511,-3.1511,-3.1511,-3.1511,-3.1511,-3.1511,-3.1511,-3.1511,-3.1511,-3.1511,-3.1511,-3.1511,-3.1511,-3.1511,-3.1511,-3.1511,-3.1511,-3.1511,-3.1511,-3.1511,-3.1511,-3.1511,-3.1511,-3.1511,-3.1511,-3.1511,-3.1511,-3.1376,-3.0612,-3.0414,-3.0351,-2.9586,-2.9446,-2.9429,-2.8919,-2.9134,-2.9673,-3.0272,-3.0435,-3.0576,-3.1092,-3.119,-3.119,-3.119,-3.1131,-3.1055,-3.1055,-3.0658,-3.0081,-2.9384,-2.9406,-2.9293,-2.8606,-2.9518,-3.0123,-2.9607,-3.0497,-3.0763,-2.9636,-2.9332,-2.8739,-2.7565,-2.6198,-2.5267,-2.4963,-2.4958,-2.4554,-2.3653,-2.3595,-2.3595,-2.3595,-2.3595,-2.3595,-2.3595,-2.3595,-2.3595,-2.361,-2.4291,-2.4963,-2.2259,-2.2392,-2.215,-2.1231,-2.0991,-2.0991,-2.0991,-2.0991,0.0,0.0,0.0,0.0,0.0,-2.1712,-2.1904,-2.2981,-2.4358,-2.5824,-2.7375,-2.8843,-2.9925,-3.0432,-3.1191,-3.1611,-3.1511,-3.1511,-3.1511,-3.1511,-3.1511,-3.1511,-3.1511,-3.1511,-3.1511,-3.1511,-3.1511,-3.1511,-3.1511,-3.1511,-3.1511,-3.1511,-3.1511,-3.1511,-3.1511,-3.1511,-3.1511,-3.1511,-3.1511,-3.1511,-3.1511,-3.1511,-3.1511,-3.1511,-3.1511,-3.1511,-3.1511,-3.1511,-3.1511,-3.1511,-3.1511,-3.1511,-3.1316,-3.0118,-3.0065,-3.0258,-2.9029,-2.935,-3.0145,-3.0059,-3.0102,-3.0293,-3.0915,-3.1055,-3.1092,-3.1171,-3.119,-3.119,-3.119,-3.0797,-3.0435,-3.0435,-3.0356,-2.9951,-2.8826,-2.9496,-2.9783,-2.8677,-2.9518,-3.0272,-3.0166,-3.076,-3.112,-3.0923,-2.9886,-2.8936,-2.8303,-2.6486,-2.4967,-2.3904,-2.3848,-2.3769,-2.361,-2.3595,-2.3595,-2.3595,-2.3595,-2.3595,-2.3595,-2.3595,-2.3595,-2.361,-2.4291,-2.4963,-2.2313,-2.2458,-2.2415,-2.2329,-2.1907,-2.1454,-2.1087,-2.0991,0.0,0.0,0.0,0.0,0.0,0.0,-2.3759,-2.5435,-2.5938,-2.6737,-2.8438,-2.9516,-3.0354,-3.0969,-3.1656,-3.1923,-3.1539,-3.1511,-3.1511,-3.1511,-3.1511,-3.1511,-3.1511,-3.1511,-3.1511,-3.1511,-3.1511,-3.1511,-3.1511,-3.1511,-3.1511,-3.1511,-3.1511,-3.1511,-3.1511,-3.1511,-3.1511,-3.1511,-3.1511,-3.1511,-3.1511,-3.1511,-3.1511,-3.1511,-3.1511,-3.1511,-3.1511,-3.1511,-3.1511,-3.1511,-3.1511,-3.1256,-3.0863,-3.0281,-3.0242,-3.0321,-2.9681,-3.0102,-3.0797,-3.0797,-3.0797,-3.0858,-3.1131,-3.119,-3.119,-3.119,-3.119,-3.119,-3.119,-3.0995,-3.0797,-3.0797,-3.0518,-3.0123,-2.9563,-2.9935,-3.0123,-2.9563,-3.023,-3.0797,-3.0797,-3.1035,-3.119,-3.119,-3.0059,-2.9194,-2.8976,-2.7169,-2.5364,-2.3703,-2.3604,-2.3595,-2.3595,-2.3595,-2.3595,-2.3595,-2.3595,-2.3595,-2.3595,-2.3595,-2.3789,-2.4156,-2.4829,-2.551,-2.2382,-2.2478,-2.2507,-2.3091,0.0,-2.1989,-2.1698,-2.1504,-2.1439,0.0,0.0,0.0,0.0,-2.3656,-2.5526,-2.7234,-2.7265,-2.763,-2.9352,-3.0027,-3.0647,-3.1404,-3.2007,-3.212,-3.1553,-3.1511,-3.1511,-3.1511,-3.1511,-3.1511,-3.1511,-3.1511,-3.1511,-3.1511,-3.1511,-3.1511,-3.1511,-3.1511,-3.1511,-3.1511,-3.1511,-3.1511,-3.1511,-3.1511,-3.1511,-3.1511,-3.1511,-3.1511,-3.1511,-3.1511,-3.1511,-3.1511,-3.1511,-3.1511,-3.1511,-3.1511,-3.1511,-3.1511,-3.1511,-3.1146,-3.0703,-3.0566,-3.0557,-3.0571,-3.0358,-3.072,-3.119,-3.119,-3.119,-3.119,-3.119,-3.119,-3.119,-3.119,-3.119,-3.119,-3.119,-3.1075,-3.0995,-3.0995,-3.0617,-3.0251,-3.0123,-3.0314,-3.0456,-3.0314,-3.0818,-3.119,-3.119,-3.119,-3.1151,-3.1015,-3.0038,-2.923,-2.8798,-2.7585,-2.6045,-2.4193,-2.3762,-2.3599,-2.3606,-2.3591,-2.3604,-2.3595,-2.3595,-2.3595,-2.3595,-2.3759,-2.4096,-2.4634,-2.5442,-2.6108,-2.3003,-2.296,-2.2617,-2.2713,-2.2495,-2.2497,-2.3325,-2.2981,0.0,-2.2807,0.0,0.0,0.0,-2.4905,-2.6625,-2.7459,-2.8039,-2.8652,-2.9492,-2.9633,-3.0141,-3.1346,-3.1568,-3.1553,-3.1511,-3.1511,-3.1511,-3.1511,-3.1511,-3.1511,-3.1511,-3.1511,-3.1511,-3.1511,-3.1511,-3.1511,-3.1511,-3.1511,-3.1511,-3.1511,-3.1511,-3.1511,-3.1511,-3.1511,-3.1511,-3.1511,-3.1511,-3.1511,-3.1511,-3.1511,-3.1511,-3.1511,-3.1511,-3.1511,-3.1511,-3.1511,-3.1511,-3.1511,-3.1511,-3.144,-3.1235,-3.068,-3.0831,-3.1123,-3.0486,-3.072,-3.119,-3.119,-3.119,-3.119,-3.119,-3.119,-3.119,-3.119,-3.119,-3.119,-3.119,-3.0777,-3.0356,-3.0356,-3.033,-3.0123,-2.9563,-3.0377,-3.0955,-3.0393,-3.0818,-3.119,-3.119,-3.119,-3.0995,-3.0435,-2.9783,-2.8682,-2.6959,-2.724,-2.6928,-2.554,-2.4285,-2.3603,-2.3606,-2.3591,-2.3592,-2.361,-2.3595,-2.3595,-2.3595,-2.4216,-2.456,-2.4634,-2.5929,-2.6542,-2.25,-2.2889,-2.3088,-2.3118,-2.339,0.0,0.0,-2.2848,-2.3146,-2.3746,-2.439,0.0,0.0,-2.6514,-2.6914,-2.7987,-2.8042,-2.8178,-2.8899,-2.8966,-2.9445,-3.0746,-3.0896,-3.1032,-3.1466,-3.1511,-3.1511,-3.1511,-3.1511,-3.1316,-3.0883,-3.0896,-3.0717,-3.0328,-3.0313,-3.0507,-3.0853,-3.0896,-3.1077,-3.1511,-3.1511,-3.1511,-3.1511,-3.1511,-3.1511,-3.1511,-3.1511,-3.1511,-3.1511,-3.1511,-3.1511,-3.1511,-3.1511,-3.1511,-3.1511,-3.1511,-3.1511,-3.1511,-3.1511,-3.1511,-3.1466,-3.1175,-3.1516,-3.1891,-3.1107,-3.1335,-3.1802,-3.1326,-3.119,-3.119,-3.119,-3.119,-3.119,-3.119,-3.119,-3.119,-3.119,-3.1015,-3.0858,-3.0858,-3.0858,-3.0797,-3.0576,-3.0898,-3.1131,-3.0898,-3.1055,-3.119,-3.119,-3.119,-3.0975,-3.0356,-2.9429,-2.8403,-2.7315,-2.746,-2.737,-2.6881,-2.6363,-2.6089,-2.6091,-2.5566,-2.5136,-2.4852,-2.4852,-2.4852,-2.4852,-2.5098,-2.545,-2.5854,-2.6363,-2.6811,-2.2163,-2.2682,-2.3105,-2.3342,0.0,0.0,-2.3405,-2.3706,-2.4259,-2.4871,-2.576,-2.6766,-2.79,0.0,-2.7194,-2.8082,-2.8018,-2.8052,-2.8528,-2.8607,-2.8996,-3.0088,-3.0223,-3.0402,-3.0866,-3.0883,-3.0883,-3.0883,-3.0883,-3.0717,-3.0238,-3.0223,-3.0028,-2.9621,-2.9606,-2.9789,-3.0208,-3.0223,-3.0447,-3.0883,-3.0883,-3.1107,-3.1511,-3.1511,-3.1511,-3.1511,-3.1511,-3.1511,-3.1511,-3.1511,-3.1511,-3.1511,-3.1511,-3.1511,-3.1511,-3.1511,-3.1511,-3.1524,-3.1768,-3.1854,-3.1872,-3.1766,-3.2037,-3.2279,-3.1463,-3.1565,-3.1853,-3.1326,-3.119,-3.119,-3.119,-3.119,-3.119,-3.119,-3.119,-3.119,-3.119,-3.119,-3.119,-3.119,-3.119,-3.119,-3.119,-3.119,-3.119,-3.119,-3.119,-3.119,-3.119,-3.1035,-3.0617,-2.9805,-2.8826,-2.8046,-2.7644,-2.76,-2.759,-2.7595,-2.7613,-2.759,-2.7593,-2.6758,-2.6068,-2.5615,-2.5615,-2.5615,-2.5615,-2.5809,-2.6153,-2.6626,-2.6821,-2.7165,-2.2163,-2.2296,-2.2496,-2.3224,0.0,0.0,-2.545,-2.5924,-2.6065,-2.6305,-2.6441,-2.6734,-2.7402,-2.7503,-2.7542,-2.7605,-2.8091,-2.8492,-2.8565,-2.8592,-2.8831,-2.9517,-2.9592,-2.9592,-2.9606,-2.9606,-2.9606,-2.9606,-2.9606,-2.9606,-2.9592,-2.9592,-2.9592,-2.9592,-2.9592,-2.9592,-2.9592,-2.9592,-2.9592,-2.9606,-2.9606,-3.0253,-3.1481,-3.1481,-3.1481,-3.1481,-3.1481,-3.1481,-3.1481,-3.1496,-3.1496,-3.1496,-3.1511,-3.1511,-3.1511,-3.1511,-3.1496,-3.1611,-3.2355,-3.2547,-3.2512,-3.2422,-3.2357,-3.2175,-3.143,-3.119,-3.1207,-3.119,-3.119,-3.119,-3.119,-3.119,-3.119,-3.119,-3.119,-3.119,-3.119,-3.119,-3.119,-3.119,-3.119,-3.119,-3.119,-3.119,-3.119,-3.119,-3.119,-3.119,-3.119,-3.0658,-2.9827,-2.863,-2.7968,-2.761,-2.7581,-2.7624,-2.761,-2.7605,-2.7599,-2.7605,-2.7595,-2.6765,-2.6096,-2.5621,-2.563,-2.563,-2.563,-2.6288,-2.6602,-2.6641,-2.7285,-2.76,-2.2268,-2.2682,-2.3122,-2.3342,0.0,0.0,0.0,-2.6856,0.0,0.0,-2.9111,-2.8602,-2.8808,-2.849,-2.8064,-2.7655,-2.776,-2.7886,-2.7895,-2.7899,-2.8154,-2.8816,-2.8891,-2.9071,-2.9562,-2.9606,-2.9606,-2.9606,-2.9606,-2.9385,-2.8921,-2.8891,-2.8667,-2.8214,-2.8184,-2.8423,-2.8891,-2.8891,-2.9131,-2.9606,-2.9606,-2.9789,-3.0163,-3.0163,-3.0163,-3.0163,-3.0163,-3.0163,-3.0193,-3.0627,-3.0806,-3.0823,-3.1316,-3.1511,-3.1511,-3.1511,-3.1824,-3.2299,-3.2504,-3.2869,-3.3125,-3.2584,-3.2707,-3.2848,-3.1579,-3.1546,-3.187,-3.1343,-3.119,-3.119,-3.119,-3.119,-3.119,-3.119,-3.119,-3.119,-3.119,-3.119,-3.119,-3.119,-3.119,-3.119,-3.119,-3.119,-3.119,-3.119,-3.119,-3.1055,-3.0617,-3.0038,-2.9361,-2.8583,-2.8343,-2.807,-2.7634,-2.8382,-2.8492,-2.7634,-2.76,-2.7605,-2.7605,-2.7355,-2.7156,-2.7016,-2.7016,-2.7016,-2.7016,-2.721,-2.73,-2.7315,-2.751,-2.76,-2.2665,-2.3054,0.0,-2.4137,-2.549,-2.6928,-2.7841,0.0,0.0,0.0,-3.0435,-2.9761,-2.9761,-2.9081,-2.8367,-2.8018,-2.776,-2.76,-2.76,-2.76,-2.775,-2.8143,-2.8188,-2.8378,-2.8768,-2.8813,-2.8813,-2.8813,-2.8813,-2.8633,-2.8203,-2.8188,-2.8034,-2.76,-2.76,-2.7794,-2.8188,-2.8188,-2.8423,-2.8813,-2.8813,-2.8813,-2.8828,-2.9367,-2.9606,-2.9606,-2.9606,-2.9606,-2.9636,-2.9983,-3.0133,-3.0178,-3.0597,-3.0761,-3.0775,-3.1011,-3.1393,-3.1834,-3.2367,-3.2765,-3.2994,-3.2508,-3.2638,-3.273,-3.1562,-3.1495,-3.1769,-3.1326,-3.119,-3.119,-3.119,-3.119,-3.119,-3.119,-3.119,-3.119,-3.119,-3.119,-3.119,-3.119,-3.119,-3.119,-3.119,-3.119,-3.119,-3.119,-3.119,-3.0898,-3.0059,-2.9629,-2.9157,-2.8559,-2.8487,-2.8449,-2.8334,-2.8528,-2.8369,-2.7649,-2.7595,-2.76,-2.76,-2.76,-2.76,-2.76,-2.76,-2.76,-2.76,-2.76,-2.76,-2.76,-2.76,-2.76,-2.319,-2.3393,-2.3748,-2.5236,-2.6251,0.0,-2.9702,-3.0209,-3.0395,-3.1055,0.0,-3.0372,-3.0293,-2.9406,-2.863,-2.8511,-2.8042,-2.766,-2.7625,-2.76,-2.76,-2.76,-2.76,-2.76,-2.76,-2.76,-2.76,-2.76,-2.76,-2.76,-2.76,-2.76,-2.76,-2.76,-2.76,-2.76,-2.76,-2.76,-2.76,-2.76,-2.76,-2.76,-2.7645,-2.8858,-2.9427,-2.9427,-2.9427,-2.9427,-2.9427,-2.9487,-2.9517,-2.9517,-2.9592,-2.9633,-2.9753,-3.0299,-3.0566,-3.0829,-3.1992,-3.2412,-3.2381,-3.2328,-3.2259,-3.2073,-3.1393,-3.119,-3.119,-3.119,-3.119,-3.119,-3.119,-3.119,-3.119,-3.119,-3.119,-3.119,-3.119,-3.119,-3.119,-3.119,-3.119,-3.119,-3.119,-3.119,-3.119,-3.119,-3.119,-3.0781,-2.9629,-2.9473,-2.9225,-2.8559,-2.8606,-2.8847,-2.9356,-2.85,-2.7821,-2.7616,-2.7601,-2.7605,-2.76,-2.76,-2.76,-2.76,-2.76,-2.76,-2.76,-2.76,-2.76,-2.76,-2.76,-2.76,-2.319,-2.3393,0.0,-2.5236,-2.7063,-2.8942,-3.0581,-3.0954,-3.1004,-3.1157,-3.1112,-3.0858,-3.0393,-3.0102,-2.9607,-2.8654,-2.8391,-2.814,-2.7675,-2.76,-2.76,-2.76,-2.76,-2.76,-2.76,-2.76,-2.76,-2.76,-2.76,-2.76,-2.76,-2.76,-2.76,-2.76,-2.76,-2.76,-2.76,-2.76,-2.76,-2.76,-2.76,-2.76,-2.76,-2.7899,-2.8034,-2.8034,-2.8034,-2.8034,-2.8064,-2.8592,-2.8816,-2.8861,-2.9385,-2.9898,-3.0325,-3.0454,-3.1128,-3.2015,-3.2308,-3.237,-3.2311,-3.2303,-3.1921,-3.1413,-3.1241,-3.119,-3.119,-3.119,-3.119,-3.119,-3.119,-3.119,-3.119,-3.119,-3.119,-3.119,-3.119,-3.119,-3.119,-3.119,-3.119,-3.119,-3.119,-3.119,-3.119,-3.119,-3.119,-3.0955,-3.0208,-3.0102,-2.9695,-2.863,-2.9339,-2.977,-2.9421,-3.0028,-2.9617,-2.772,-2.7605,-2.7591,-2.761,-2.76,-2.76,-2.76,-2.76,-2.76,-2.76,-2.76,-2.76,-2.76,-2.76,-2.76,-2.363,0.0,0.0,-2.6674,0.0,-2.982,-3.0937,-3.119,-3.119,-3.119,-3.119,-3.1095,-3.0797,-3.0497,-3.0102,-2.9451,-2.8873,-2.8391,-2.8067,-2.7785,-2.76,-2.76,-2.76,-2.76,-2.76,-2.76,-2.76,-2.76,-2.76,-2.76,-2.76,-2.76,-2.76,-2.76,-2.76,-2.76,-2.76,-2.76,-2.76,-2.76,-2.7894,-2.8174,-2.8448,-2.787,-2.76,-2.76,-2.76,-2.76,-2.763,-2.7989,-2.8113,-2.8195,-2.8819,-2.9271,-2.9614,-3.0204,-3.0817,-3.1429,-3.1743,-3.1804,-3.1769,-3.1769,-3.1495,-3.119,-3.119,-3.119,-3.119,-3.119,-3.119,-3.119,-3.119,-3.119,-3.119,-3.119,-3.119,-3.119,-3.119,-3.119,-3.119,-3.119,-3.119,-3.119,-3.119,-3.119,-3.119,-3.119,-3.119,-3.0995,-3.0393,-3.0611,-3.0588,-2.9971,-3.0772,-3.1057,-3.0313,-3.0827,-3.0647,-2.9384,-2.8784,-2.8201,-2.7637,-2.7877,-2.791,-2.7625,-2.76,-2.76,-2.76,-2.76,-2.76,-2.76,-2.76,-2.76,-2.3797,0.0,-2.5218,-2.8248,-2.9448,0.0,-3.1004,-3.119,-3.119,-3.119,-3.119,-3.119,-3.119,-3.0797,-3.0435,-3.033,-2.9451,-2.8779,-2.8662,-2.814,-2.776,-2.776,-2.766,-2.765,-2.7735,-2.776,-2.781,-2.7894,-2.7919,-2.7919,-2.7919,-2.781,-2.776,-2.776,-2.7635,-2.76,-2.76,-2.76,-2.76,-2.7625,-2.8198,-2.8756,-2.9203,-2.8328,-2.7845,-2.776,-2.776,-2.7685,-2.76,-2.76,-2.76,-2.766,-2.8247,-2.8559,-2.8779,-2.9892,-3.0372,-3.0518,-3.1035,-3.119,-3.119,-3.119,-3.119,-3.119,-3.119,-3.119,-3.119,-3.119,-3.119,-3.119,-3.119,-3.119,-3.119,-3.119,-3.119,-3.119,-3.119,-3.119,-3.119,-3.119,-3.119,-3.119,-3.119,-3.119,-3.119,-3.119,-3.119,-3.1066,-3.0684,-3.1172,-3.1548,-3.1594,-3.2221,-3.2287,-3.1358,-3.1227,-3.1198,-3.1201,-3.0266,-2.9257,-2.827,-2.841,-2.8286,-2.776,-2.7635,-2.76,-2.76,-2.76,-2.76,-2.76,-2.76,-2.76,-2.2533,0.0,-2.5218,0.0,-2.9077,-2.9517,0.0,0.0,-3.119,-3.119,-3.119,-3.119,-3.119,-3.1131,-3.0898,-3.0393,-3.0166,-2.987,-2.9361,-2.8756,-2.8367,-2.8367,-2.7934,-2.781,-2.8334,-2.8367,-2.8606,-2.9111,-2.9157,-2.9157,-2.9157,-2.8662,-2.8367,-2.8367,-2.7885,-2.76,-2.76,-2.76,-2.76,-2.7625,-2.8198,-2.8535,-2.863,-2.8996,-2.8857,-2.8367,-2.8367,-2.8091,-2.76,-2.76,-2.76,-2.766,-2.8247,-2.8826,-2.9361,-3.0059,-3.0638,-3.1075,-3.1171,-3.119,-3.119,-3.119,-3.119,-3.119,-3.119,-3.119,-3.119,-3.119,-3.119,-3.119,-3.119,-3.119,-3.119,-3.119,-3.119,-3.119,-3.119,-3.119,-3.119,-3.119,-3.119,-3.119,-3.119,-3.119,-3.119,-3.119,-3.119,-3.139,-3.1955,-3.2124,-3.2224,-3.2348,-3.2921,-3.2813,-3.1665,-3.1318,-3.1203,-3.1209,-3.1041,-3.0886,-3.0723,-2.9297,-2.8463,-2.8367,-2.7885,-2.76,-2.76,-2.76,-2.76,-2.76,-2.76,-2.76,-2.3308,-2.4609,-2.6268,0.0,-2.9314,-2.9888,-3.0954,-3.119,-3.119,-3.119,-3.119,-3.119,-3.119,-3.119,-3.1112,-3.0858,-3.0518,-3.0208,-2.9935,-2.9088,-2.863,-2.895,-2.8472,-2.8343,-2.8966,-2.8996,-2.9111,-2.9384,-2.9406,-2.9406,-2.9406,-2.9157,-2.8996,-2.8996,-2.874,-2.8614,-2.8614,-2.8271,-2.8271,-2.8614,-2.9225,-2.9695,-3.0021,-3.0293,-2.9717,-2.8487,-2.8487,-2.8165,-2.7625,-2.7968,-2.8091,-2.8213,-2.9134,-2.9673,-2.9995,-3.058,-3.0975,-3.119,-3.119,-3.119,-3.119,-3.119,-3.119,-3.119,-3.119,-3.119,-3.119,-3.119,-3.119,-3.1292,-3.1718,-3.1819,-3.1921,-3.2324,-3.2425,-3.2425,-3.2425,-3.2104,-3.1955,-3.2357,-3.2425,-3.2425,-3.2425,-3.2425,-3.2425,-3.2425,-3.2425,-3.2544,-3.2865,-3.3292,-3.3558,-3.3605,-3.4218,-3.4418,-3.3884,-3.3725,-3.3671,-3.3652,-3.3671,-3.3287,-3.2465,-3.095,-2.9959,-2.9635,-2.8299,-2.76,-2.76,-2.76,-2.76,-2.76,-2.76,-2.76,-2.3814,-2.5032,-2.6268,-2.7994,-2.911,-3.0006,0.0,0.0,-3.119,-3.119,-3.119,-3.119,-3.119,-3.119,-3.119,-3.119,-3.0818,-3.0518,-3.0518,-2.9629,-2.9111,-2.9585,-2.9104,-2.8966,-2.9563,-2.9629,-2.9695,-2.9865,-2.9848,-2.9848,-2.9848,-2.9717,-2.9629,-2.9629,-2.9473,-2.9406,-2.9406,-2.895,-2.895,-2.9406,-3.0016,-3.0539,-3.0975,-3.1131,-3.0393,-2.8966,-2.8966,-2.8519,-2.7885,-2.8487,-2.8732,-2.8826,-2.9892,-3.0293,-3.0356,-3.0975,-3.119,-3.119,-3.119,-3.119,-3.119,-3.119,-3.119,-3.119,-3.119,-3.119,-3.119,-3.119,-3.1326,-3.1616,-3.2158,-3.2446,-3.2713,-3.3271,-3.3406,-3.3406,-3.3406,-3.2966,-3.273,-3.3288,-3.3406,-3.3406,-3.3406,-3.3406,-3.3406,-3.3406,-3.3406,-3.3474,-3.366,-3.415,-3.4573,-3.4759,-3.5261,-3.5599,-3.5601,-3.5601,-3.5598,-3.5608,-3.56,-3.5095,-3.4008,-3.2492,-3.1472,-3.1027,-2.9238,-2.8244,-2.8052,-2.8052,-2.7993,-2.7835,-2.7835,-2.776,-2.3054,-2.3511,-2.4086,-2.6285,-2.796,-2.9264,0.0,-3.07,-3.119,-3.119,-3.119,-3.119,-3.119,-3.119,-3.119,-3.119,-3.1171,-3.1151,-3.1151,-3.0617,-3.0208,-3.0251,-2.9717,-2.9585,-3.0187,-3.0251,-3.0497,-3.1055,-3.1112,-3.1112,-3.1112,-3.0559,-3.0251,-3.0251,-2.9695,-2.9406,-2.9406,-2.9361,-2.9361,-2.9406,-3.0016,-3.033,-3.0372,-3.0955,-3.0838,-3.0208,-3.0208,-2.954,-2.8487,-2.9088,-2.9361,-2.9406,-3.0059,-3.0293,-3.0356,-3.0975,-3.119,-3.119,-3.119,-3.119,-3.119,-3.119,-3.119,-3.119,-3.119,-3.119,-3.119,-3.119,-3.1701,-3.2242,-3.2293,-3.2814,-3.3355,-3.3389,-3.3406,-3.3406,-3.3406,-3.3372,-3.3355,-3.3406,-3.3406,-3.3406,-3.3406,-3.3406,-3.3406,-3.3406,-3.3406,-3.366,-3.4336,-3.4472,-3.4776,-3.5464,-3.5583,-3.56,-3.5605,-3.5605,-3.5605,-3.5588,-3.5601,-3.5586,-3.5492,-3.3528,-3.2446,-3.2401,-3.1036,-3.0016,-2.9316,-2.9316,-2.8996,-2.8439,-2.8439,-2.814,-2.3122,-2.3393,0.0,-2.5558,-2.6759,-2.7706,-2.8449,-2.9228,-2.9788,-2.9788,-2.9788,-2.9922,-3.0412,-3.0886,-3.119,-3.119,-3.119,-3.119,-3.119,-3.0679,-3.0456,-3.0838,-3.0335,-3.0208,-3.0818,-3.0878,-3.0975,-3.119,-3.119,-3.119,-3.119,-3.0995,-3.0878,-3.0878,-3.0679,-3.0372,-2.9978,-3.0356,-3.0356,-2.9978,-3.058,-3.0878,-3.0878,-3.1095,-3.0858,-3.0314,-3.0699,-3.0187,-2.9111,-2.9717,-2.9995,-3.0038,-3.0638,-3.0878,-3.0898,-3.1131,-3.119,-3.119,-3.119,-3.119,-3.119,-3.119,-3.119,-3.119,-3.119,-3.119,-3.119,-3.119,-3.1735,-3.2412,-3.2882,-3.3541,-3.4235,-3.4687,-3.4805,-3.4805,-3.4805,-3.4805,-3.4805,-3.4805,-3.4805,-3.4805,-3.4805,-3.4805,-3.4805,-3.4805,-3.4805,-3.4906,-3.5182,-3.5216,-3.5318,-3.5566,-3.56,-3.56,-3.56,-3.56,-3.56,-3.56,-3.5599,-3.561,-3.561,-3.442,-3.3784,-3.3784,-3.285,-3.1627,-3.0108,-2.9614,-2.9293,-2.9081,-2.9081,-2.8756,-2.2902,-2.3207,0.0,0.0,-2.5778,-2.659,-2.757,-2.8196,-2.867,-2.8942,-2.8993,-2.9162,-2.9634,-3.0125,-3.0531,-3.0784,-3.0835,-3.0835,-3.0835,-3.0707,-3.074,-3.1151,-3.0858,-3.0777,-3.1151,-3.119,-3.119,-3.119,-3.119,-3.119,-3.119,-3.119,-3.1089,-3.0835,-3.1072,-3.0897,-3.0231,-3.0878,-3.0995,-3.0617,-3.1015,-3.119,-3.119,-3.119,-3.0975,-3.0621,-3.1035,-3.0638,-2.9739,-3.0335,-3.0601,-3.0638,-3.1035,-3.119,-3.119,-3.119,-3.119,-3.119,-3.119,-3.119,-3.119,-3.119,-3.119,-3.119,-3.119,-3.136,-3.1582,-3.1582,-3.2276,-3.3156,-3.3643,-3.432,-3.4996,-3.5481,-3.56,-3.56,-3.56,-3.56,-3.56,-3.56,-3.56,-3.56,-3.56,-3.56,-3.56,-3.56,-3.56,-3.56,-3.56,-3.56,-3.56,-3.56,-3.56,-3.56,-3.56,-3.56,-3.56,-3.56,-3.56,-3.56,-3.56,-3.5131,-3.4861,-3.4861,-3.415,-3.3131,-3.1831,-3.086,-3.0402,-3.0412,-3.0186,-2.9886,0.0,0.0,0.0,0.0,0.0,0.0,-2.735,-2.7689,-2.7925,-2.8739,-2.8891,-2.8908,-2.8959,-2.8942,-2.9179,-2.9922,-3.0057,-3.0091,-3.0108,-3.0717,-3.1173,-3.119,-3.119,-3.119,-3.119,-3.119,-3.119,-3.119,-3.119,-3.119,-3.119,-3.119,-3.0852,-3.0091,-3.0784,-3.0818,-3.0125,-3.0818,-3.1173,-3.119,-3.119,-3.119,-3.119,-3.119,-3.119,-3.119,-3.119,-3.0858,-3.0372,-3.0975,-3.119,-3.119,-3.119,-3.119,-3.119,-3.119,-3.119,-3.119,-3.119,-3.119,-3.119,-3.119,-3.119,-3.119,-3.119,-3.1718,-3.2293,-3.2293,-3.3359,-3.4506,-3.4523,-3.5064,-3.56,-3.56,-3.56,-3.56,-3.56,-3.56,-3.56,-3.56,-3.56,-3.56,-3.56,-3.56,-3.56,-3.56,-3.56,-3.56,-3.56,-3.56,-3.56,-3.56,-3.56,-3.56,-3.56,-3.56,-3.56,-3.56,-3.56,-3.56,-3.56,-3.56,-3.56,-3.56,-3.4895,-3.4523,-3.4523,-3.3055,-3.2412,-3.2502,-3.1753,-3.1514,-2.2296,0.0,0.0,0.0,0.0,0.0,-2.4526,-2.5033,-2.5625,-2.6387,-2.6539,-2.6877,-2.7943,-2.7706,-2.7571,-2.8314,-2.8924,-2.9482,-3.0023,-3.0294,-3.0598,-3.114,-3.119,-3.119,-3.119,-3.119,-3.119,-3.119,-3.119,-3.119,-3.119,-3.119,-3.0615,-2.933,-3.0023,-3.0311,-3.0108,-3.0311,-3.0666,-3.119,-3.119,-3.119,-3.119,-3.119,-3.119,-3.119,-3.119,-3.1112,-3.0958,-3.1131,-3.119,-3.119,-3.119,-3.119,-3.119,-3.119,-3.119,-3.119,-3.119,-3.119,-3.119,-3.119,-3.119,-3.119,-3.119,-3.1718,-3.2293,-3.2293,-3.3359,-3.4624,-3.5165,-3.5447,-3.56,-3.56,-3.56,-3.56,-3.56,-3.56,-3.56,-3.56,-3.56,-3.56,-3.56,-3.56,-3.56,-3.56,-3.56,-3.56,-3.56,-3.56,-3.56,-3.56,-3.56,-3.56,-3.56,-3.56,-3.56,-3.56,-3.56,-3.56,-3.56,-3.56,-3.56,-3.56,-3.5397,-3.5295,-3.5301,-3.3812,-3.3102,-3.3139,-3.2497,-3.2488,-2.2296,-2.2296,-2.2364,-2.2682,0.0,0.0,-2.3729,-2.3949,-2.4338,-2.5389,-2.5592,-2.5947,-2.7131,-2.6996,-2.6843,-2.7283,-2.7723,-2.8227,-2.8766,-2.9365,-2.99,-3.0339,-3.0389,-3.0583,-3.1154,-3.092,-3.0734,-3.0734,-3.1021,-3.1072,-3.0768,-3.0446,-2.9719,-2.8535,-2.9245,-2.9482,-2.9142,-2.9465,-3.0006,-3.0734,-3.0734,-3.0903,-3.119,-3.119,-3.119,-3.119,-3.119,-3.119,-3.119,-3.119,-3.119,-3.119,-3.119,-3.119,-3.119,-3.119,-3.119,-3.119,-3.119,-3.119,-3.119,-3.119,-3.119,-3.119,-3.119,-3.1918,-3.2767,-3.2767,-3.3812,-3.5064,-3.5481,-3.56,-3.56,-3.56,-3.56,-3.56,-3.56,-3.56,-3.56,-3.56,-3.56,-3.56,-3.56,-3.56,-3.56,-3.56,-3.56,-3.56,-3.56,-3.56,-3.56,-3.56,-3.56,-3.56,-3.56,-3.56,-3.56,-3.56,-3.56,-3.56,-3.56,-3.56,-3.56,-3.56,-3.56,-3.56,-3.56,-3.4438,-3.3863,-3.3863,-3.3806,-3.3995,-2.2313,-2.2296,-2.2448,-2.3105,-2.2852,0.0,-2.3983,-2.3814,-2.3765,-2.5101,-2.5372,-2.5592,-2.6319,-2.6454,-2.6454,-2.6454,-2.6522,-2.6724,-2.7116,-2.8265,-2.9108,-2.9248,-2.9211,-2.9653,-3.083,-3.0362,-2.9989,-2.9989,-3.0581,-3.0632,-2.9869,-2.9314,-2.8586,-2.7705,-2.845,-2.8518,-2.7807,-2.8501,-2.9279,-3.0108,-3.0108,-3.0497,-3.119,-3.119,-3.119,-3.119,-3.119,-3.119,-3.119,-3.119,-3.119,-3.119,-3.119,-3.119,-3.119,-3.119,-3.119,-3.119,-3.119,-3.119,-3.119,-3.119,-3.119,-3.119,-3.119,-3.2239,-3.344,-3.3609,-3.4585,-3.56,-3.56,-3.56,-3.56,-3.56,-3.56,-3.56,-3.56,-3.56,-3.56,-3.56,-3.56,-3.56,-3.56,-3.56,-3.56,-3.56,-3.56,-3.56,-3.56,-3.56,-3.56,-3.56,-3.56,-3.56,-3.56,-3.56,-3.56,-3.56,-3.56,-3.56,-3.56,-3.56,-3.56,-3.56,-3.56,-3.56,-3.56,-3.4945,-3.4624,-3.4641,-3.5278,-3.56,-2.2448,-2.2296,-2.233,-2.2482,-2.2852,0.0,-2.2801,-2.3071,-2.3477,-2.3765,-2.3833,-2.4052,-2.4795,-2.4931,-2.4931,-2.4931,-2.5423,-2.6252,-2.7481,-2.7901,-2.8323,-2.8964,-2.9048,-2.9136,-2.9397,-2.9297,-2.9213,-2.9213,-2.9348,-2.9076,-2.8297,-2.8721,-2.8367,-2.6962,-2.7638,-2.7959,-2.7807,-2.7959,-2.872,-3.0108,-3.0108,-3.0497,-3.119,-3.119,-3.119,-3.119,-3.119,-3.119,-3.119,-3.119,-3.119,-3.119,-3.119,-3.119,-3.119,-3.119,-3.119,-3.119,-3.119,-3.119,-3.119,-3.119,-3.119,-3.119,-3.119,-3.2239,-3.366,-3.4839,-3.538,-3.56,-3.56,-3.56,-3.56,-3.56,-3.56,-3.56,-3.56,-3.56,-3.56,-3.56,-3.56,-3.56,-3.56,-3.56,-3.56,-3.56,-3.56,-3.56,-3.56,-3.56,-3.56,-3.56,-3.56,-3.56,-3.56,-3.56,-3.56,-3.56,-3.56,-3.56,-3.56,-3.56,-3.56,-3.56,-3.56,-3.56,-3.56,-3.5447,-3.538,-3.538,-3.5532,-3.56,-2.2499,-2.2296,-2.2381,-2.2767,-2.2852,0.0,0.0,-2.2852,-2.297,-2.3325,-2.3393,-2.3628,-2.4355,-2.4491,-2.4491,-2.4491,-2.5118,-2.5744,-2.6099,-2.6855,-2.7531,-2.7987,-2.7983,-2.8226,-2.8941,-2.8636,-2.8569,-2.8976,-2.8299,-2.7841,-2.7807,-2.7824,-2.7503,-2.6708,-2.7063,-2.7249,-2.7249,-2.7249,-2.7807,-2.8956,-2.9364,-2.9939,-3.0666,-3.1021,-3.119,-3.119,-3.119,-3.119,-3.119,-3.119,-3.119,-3.119,-3.119,-3.119,-3.119,-3.119,-3.119,-3.119,-3.119,-3.119,-3.119,-3.119,-3.119,-3.1258,-3.165,-3.278,-3.4184,-3.5278,-3.56,-3.56,-3.56,-3.56,-3.56,-3.56,-3.56,-3.56,-3.56,-3.56,-3.56,-3.56,-3.56,-3.56,-3.56,-3.56,-3.56,-3.56,-3.56,-3.56,-3.56,-3.56,-3.56,-3.56,-3.56,-3.56,-3.56,-3.56,-3.56,-3.56,-3.56,-3.56,-3.56,-3.56,-3.56,-3.56,-3.56,-3.56,-3.56,-3.56,-3.56,-3.56,-3.56,-3.56,-2.2919,-2.2733,-2.2835,-2.3291,-2.3054,-2.2818,0.0,0.0,0.0,-2.3088,-2.319,-2.3359,-2.3966,-2.4085,-2.4085,-2.4085,-2.4695,-2.4966,-2.4372,-2.553,-2.6526,-2.6783,-2.6844,-2.7323,-2.8448,-2.7841,-2.7689,-2.8502,-2.7266,-2.681,-2.7553,-2.7029,-2.6691,-2.6691,-2.6691,-2.6691,-2.6691,-2.6691,-2.708,-2.7807,-2.8619,-2.9381,-3.0142,-3.0869,-3.119,-3.119,-3.119,-3.119,-3.119,-3.119,-3.119,-3.119,-3.119,-3.119,-3.119,-3.119,-3.119,-3.119,-3.119,-3.119,-3.119,-3.119,-3.119,-3.136,-3.2259,-3.3339,-3.4472,-3.5346,-3.56,-3.56,-3.56,-3.56,-3.56,-3.56,-3.56,-3.56,-3.56,-3.56,-3.56,-3.56,-3.56,-3.56,-3.56,-3.56,-3.56,-3.56,-3.56,-3.56,-3.56,-3.56,-3.56,-3.56,-3.56,-3.56,-3.56,-3.56,-3.56,-3.56,-3.56,-3.56,-3.56,-3.56,-3.56,-3.56,-3.56,-3.56,-3.56,-3.56,-3.56,-3.56,-3.56,-3.56,-2.4457,-2.4254,-2.4118,-2.3528,-2.3831,-2.3932,-2.2699,0.0,-2.3105,-2.2533,0.0,-2.2448,-2.2533,0.0,0.0,-2.255,-2.3173,-2.3613,-2.3528,-2.4243,-2.5022,-2.5696,-2.6337,-2.6792,-2.6945,-2.6285,-2.6167,-2.6911,-2.6201,-2.6048,-2.6793,-2.6742,-2.6691,-2.6691,-2.6691,-2.6691,-2.6691,-2.6691,-2.708,-2.7807,-2.8619,-2.9381,-3.0142,-3.0869,-3.119,-3.119,-3.119,-3.119,-3.119,-3.119,-3.119,-3.119,-3.119,-3.119,-3.119,-3.119,-3.119,-3.119,-3.119,-3.119,-3.119,-3.119,-3.119,-3.1461,-3.2848,-3.3389,-3.3829,-3.5211,-3.56,-3.56,-3.56,-3.56,-3.56,-3.56,-3.56,-3.56,-3.56,-3.56,-3.56,-3.56,-3.56,-3.56,-3.56,-3.56,-3.56,-3.56,-3.56,-3.56,-3.56,-3.56,-3.56,-3.56,-3.56,-3.56,-3.56,-3.56,-3.56,-3.56,-3.56,-3.56,-3.56,-3.56,-3.56,-3.56,-3.56,-3.56,-3.56,-3.56,-3.56,-3.56,-3.56,-3.56,-2.4694,-2.4491,-2.4423,-2.4118,-2.3949,-2.3712,-2.3088,-2.2852,-2.2682,-2.2347,0.0,0.0,0.0,0.0,0.0,0.0,-2.2919,-2.3241,-2.2818,-2.378,-2.4609,-2.4915,-2.5235,-2.5591,-2.6031,-2.5795,-2.5913,-2.664,-2.6031,-2.593,-2.6657,-2.6691,-2.6691,-2.6691,-2.6691,-2.6691,-2.6691,-2.6691,-2.686,-2.7182,-2.7943,-2.8704,-2.9482,-3.0226,-3.0801,-3.119,-3.119,-3.119,-3.119,-3.119,-3.119,-3.119,-3.119,-3.119,-3.119,-3.119,-3.119,-3.119,-3.119,-3.119,-3.119,-3.119,-3.1782,-3.2594,-3.322,-3.4015,-3.4805,-3.543,-3.56,-3.56,-3.56,-3.56,-3.56,-3.56,-3.56,-3.56,-3.56,-3.56,-3.56,-3.56,-3.56,-3.56,-3.56,-3.56,-3.56,-3.56,-3.56,-3.56,-3.56,-3.56,-3.56,-3.56,-3.56,-3.56,-3.56,-3.56,-3.56,-3.56,-3.56,-3.56,-3.56,-3.56,-3.56,-3.56,-3.56,-3.56,-3.56,-3.56,-3.56,-3.56,-3.56,-3.56,-2.5439,-2.527,-2.5137,-2.4623,-2.4101,-2.3596,-2.319,-2.2835,-2.2598,-2.2598,-2.2767,0.0,0.0,0.0,0.0,0.0,0.0,-2.3139,-2.2398,-2.3224,-2.3966,-2.4169,-2.4372,-2.4711,-2.5253,-2.5118,-2.5389,-2.6336,-2.5727,-2.571,-2.664,-2.6691,-2.6691,-2.6691,-2.6691,-2.6691,-2.6691,-2.6691,-2.6691,-2.6708,-2.7452,-2.823,-2.9027,-2.977,-3.0497,-3.119,-3.119,-3.119,-3.119,-3.119,-3.119,-3.119,-3.119,-3.119,-3.119,-3.119,-3.119,-3.119,-3.119,-3.119,-3.1224,-3.1427,-3.2222,-3.3169,-3.3575,-3.4455,-3.5329,-3.5532,-3.56,-3.56,-3.56,-3.56,-3.56,-3.56,-3.56,-3.56,-3.56,-3.56,-3.56,-3.56,-3.56,-3.56,-3.56,-3.56,-3.56,-3.56,-3.56,-3.56,-3.56,-3.56,-3.56,-3.56,-3.56,-3.56,-3.56,-3.56,-3.56,-3.56,-3.56,-3.56,-3.56,-3.56,-3.56,-3.56,-3.56,-3.56,-3.56,-3.56,-3.56,-3.56,-3.56,-3.56,-2.7326,-2.7201,-2.6763,-2.4955,-2.4474,-2.4085,-2.2651,-2.2868,-2.3359,-2.3359,-2.3932,-2.4423,-2.4423,-2.4423,0.0,0.0,0.0,0.0,0.0,-2.233,-2.2649,-2.3342,-2.4068,-2.4508,-2.4525,-2.3898,-2.4069,-2.5541,-2.4949,-2.5168,-2.6607,-2.6691,-2.6691,-2.6691,-2.6691,-2.6691,-2.6691,-2.6691,-2.6691,-2.6708,-2.7452,-2.823,-2.9027,-2.977,-3.0497,-3.119,-3.119,-3.119,-3.119,-3.119,-3.119,-3.119,-3.119,-3.119,-3.119,-3.119,-3.119,-3.119,-3.119,-3.119,-3.1309,-3.2039,-3.2293,-3.2598,-3.4037,-3.4489,-3.4675,-3.5397,-3.56,-3.56,-3.56,-3.56,-3.56,-3.56,-3.56,-3.56,-3.56,-3.56,-3.56,-3.56,-3.56,-3.56,-3.56,-3.56,-3.56,-3.56,-3.56,-3.56,-3.56,-3.56,-3.56,-3.56,-3.56,-3.56,-3.56,-3.56,-3.56,-3.56,-3.56,-3.56,-3.56,-3.56,-3.56,-3.56,-3.56,-3.56,-3.56,-3.56,-3.56,-3.56,-3.56,-3.56,-2.7722,-2.771,-2.7359,-2.5982,-2.5254,-2.456,-2.3313,-2.3224,-2.3393,-2.3393,-2.4,-2.4491,-2.4491,0.0,0.0,0.0,0.0,0.0,0.0,-2.2296,-2.2381,-2.2634,-2.3325,-2.378,-2.378,-2.3545,-2.4002,-2.549,-2.4915,-2.5134,-2.6607,-2.6691,-2.6691,-2.6691,-2.6691,-2.6691,-2.6691,-2.6691,-2.6691,-2.6725,-2.7228,-2.7857,-2.863,-2.9692,-3.0557,-3.1289,-3.1508,-3.1603,-3.1584,-3.131,-3.119,-3.119,-3.119,-3.119,-3.119,-3.119,-3.119,-3.119,-3.119,-3.1532,-3.1972,-3.2226,-3.297,-3.3846,-3.4336,-3.4844,-3.5278,-3.5532,-3.56,-3.56,-3.56,-3.56,-3.56,-3.56,-3.56,-3.56,-3.56,-3.56,-3.56,-3.56,-3.56,-3.56,-3.56,-3.56,-3.56,-3.56,-3.56,-3.56,-3.56,-3.56,-3.56,-3.56,-3.56,-3.56,-3.56,-3.56,-3.56,-3.56,-3.5941,-3.5985,-3.5622,-3.5941,-3.5963,-3.56,-3.56,-3.56,-3.56,-3.56,-3.56,-3.56,-3.56,-3.56,-2.8134,-2.8075,-2.7814,-2.6704,-2.6058,-2.5411,-2.4256,-2.4206,-2.4366,-2.4201,-2.4778,-2.5286,-2.5286,-2.5286,0.0,0.0,0.0,0.0,0.0,-2.2296,-2.2296,-2.2296,-2.2733,-2.3004,-2.3004,-2.3004,-2.363,-2.5101,-2.4778,-2.5134,-2.6607,-2.6691,-2.6691,-2.6691,-2.6691,-2.6691,-2.6691,-2.6841,-2.6923,-2.6923,-2.7334,-2.7886,-2.8638,-2.9706,-3.0608,-3.132,-3.1655,-3.1807,-3.1771,-3.137,-3.119,-3.119,-3.119,-3.119,-3.119,-3.119,-3.119,-3.1241,-3.1515,-3.1904,-3.2395,-3.2919,-3.3732,-3.4539,-3.481,-3.5211,-3.56,-3.56,-3.56,-3.56,-3.56,-3.56,-3.56,-3.56,-3.56,-3.56,-3.56,-3.56,-3.56,-3.56,-3.5761,-3.5876,-3.5876,-3.6054,-3.6054,-3.565,-3.56,-3.56,-3.56,-3.56,-3.56,-3.56,-3.56,-3.56,-3.56,-3.56,-3.56,-3.56,-3.6097,-3.6228,-3.5898,-3.6395,-3.6437,-3.5898,-3.6075,-3.5989,-3.56,-3.5805,-3.5783,-3.56,-3.56,-3.56]},{"header":{"parameterUnit":"m.s-1","parameterCategory":1,"la1":30.6,"la2":29.2853,"lo1":-89.7004,"lo2":-87.6739,"dy":0.0162,"dx":0.0183,"nx":112,"ny":82,"refTime":"2026-04-27T00:00:00:Z","depth":0,"parameterNumber":3,"parameterNumberName":"V-component_of_WINDS"},"data":[0.0,0.0,0.0,0.0,0.0,0.0,0.0,0.0,0.0,0.0,0.0,0.0,0.0,0.0,0.0,0.0,0.0,0.0,0.0,0.0,0.0,0.0,0.0,0.0,0.0,0.0,0.0,0.0,0.0,0.0,0.0,0.0,0.0,0.0,0.0,0.0,0.0,0.0,0.0,0.0,0.0,0.0,0.0,0.0,0.0,0.0,0.0,0.0,0.0,0.0,0.0,0.0,0.0,0.0,0.0,0.0,0.0,0.0,0.0,0.0,0.0,0.0,0.0,0.0,0.0,0.0,0.0,0.0,0.0,0.0,0.0,0.0,0.0,0.0,0.0,0.0,0.0,0.0,0.0,0.0,0.0,0.0,0.0,0.0,0.0,0.0,0.0,0.0,0.0,0.0,-2.2711,-2.4104,-2.5607,-2.6298,-2.5774,-2.5573,-2.4607,-2.2543,0.0,0.0,0.0,0.0,0.0,0.0,0.0,0.0,0.0,0.0,0.0,0.0,0.0,0.0,0.0,0.0,0.0,0.0,0.0,0.0,0.0,0.0,0.0,0.0,0.0,0.0,0.0,0.0,0.0,0.0,0.0,0.0,0.0,0.0,0.0,0.0,0.0,0.0,0.0,0.0,0.0,0.0,0.0,0.0,0.0,0.0,0.0,0.0,0.0,0.0,0.0,0.0,0.0,0.0,0.0,0.0,0.0,0.0,0.0,0.0,0.0,0.0,0.0,0.0,0.0,0.0,0.0,0.0,0.0,0.0,0.0,0.0,0.0,0.0,0.0,0.0,0.0,0.0,0.0,0.0,0.0,0.0,0.0,0.0,0.0,0.0,0.0,0.0,0.0,0.0,0.0,0.0,0.0,0.0,0.0,0.0,0.0,0.0,0.0,0.0,0.0,0.0,0.0,0.0,-2.2573,-2.5084,-2.6047,-2.6461,-2.6373,-2.5473,-2.4362,-2.3058,0.0,0.0,0.0,0.0,0.0,0.0,0.0,0.0,0.0,0.0,0.0,0.0,0.0,0.0,0.0,0.0,0.0,0.0,0.0,0.0,0.0,0.0,0.0,0.0,0.0,0.0,0.0,0.0,0.0,0.0,0.0,0.0,0.0,0.0,0.0,0.0,0.0,0.0,0.0,0.0,0.0,0.0,0.0,0.0,0.0,0.0,0.0,0.0,0.0,0.0,0.0,0.0,0.0,0.0,0.0,0.0,0.0,0.0,0.0,0.0,0.0,0.0,0.0,0.0,0.0,0.0,0.0,0.0,0.0,0.0,0.0,0.0,0.0,0.0,0.0,0.0,0.0,0.0,0.0,0.0,0.0,0.0,0.0,0.0,0.0,0.0,0.0,0.0,0.0,0.0,0.0,0.0,0.0,0.0,0.0,0.0,0.0,0.0,0.0,0.0,0.0,0.0,0.0,-2.2385,-2.3678,-2.5871,-2.6336,-2.6499,-2.6499,-2.5711,-2.4612,-2.3195,-2.2594,0.0,0.0,0.0,0.0,0.0,0.0,0.0,0.0,0.0,0.0,0.0,0.0,0.0,0.0,0.0,0.0,0.0,0.0,0.0,0.0,0.0,0.0,0.0,0.0,0.0,0.0,0.0,0.0,0.0,0.0,0.0,0.0,0.0,0.0,0.0,0.0,0.0,0.0,0.0,0.0,0.0,0.0,0.0,0.0,0.0,0.0,0.0,0.0,0.0,0.0,0.0,0.0,0.0,0.0,0.0,0.0,0.0,0.0,0.0,0.0,0.0,0.0,0.0,0.0,0.0,0.0,0.0,0.0,0.0,0.0,0.0,0.0,0.0,0.0,0.0,0.0,0.0,0.0,0.0,0.0,0.0,0.0,0.0,0.0,0.0,0.0,0.0,0.0,0.0,0.0,0.0,0.0,0.0,0.0,0.0,0.0,0.0,0.0,0.0,0.0,0.0,0.0,-2.413,-2.4908,-2.6348,-2.6499,-2.6499,-2.6499,-2.5699,-2.4619,-2.3195,-2.2372,0.0,0.0,0.0,0.0,0.0,0.0,0.0,0.0,0.0,0.0,0.0,0.0,0.0,0.0,0.0,0.0,0.0,0.0,0.0,0.0,0.0,0.0,0.0,0.0,0.0,0.0,0.0,0.0,0.0,0.0,0.0,0.0,0.0,0.0,0.0,0.0,0.0,0.0,0.0,0.0,0.0,0.0,0.0,0.0,0.0,0.0,0.0,0.0,0.0,0.0,0.0,0.0,0.0,0.0,0.0,0.0,0.0,0.0,0.0,0.0,0.0,0.0,0.0,0.0,0.0,0.0,0.0,0.0,0.0,0.0,0.0,0.0,0.0,0.0,0.0,0.0,0.0,0.0,0.0,0.0,0.0,0.0,0.0,0.0,0.0,0.0,0.0,0.0,0.0,0.0,0.0,0.0,0.0,0.0,0.0,0.0,0.0,0.0,0.0,0.0,0.0,0.0,-2.4531,-2.5737,-2.6424,-2.6499,-2.6499,-2.6499,-2.5021,-2.3828,-2.3145,-2.1656,0.0,0.0,0.0,0.0,0.0,0.0,0.0,0.0,0.0,0.0,0.0,0.0,0.0,0.0,0.0,0.0,0.0,0.0,0.0,0.0,0.0,0.0,0.0,0.0,0.0,0.0,0.0,0.0,0.0,0.0,0.0,0.0,0.0,0.0,0.0,0.0,0.0,0.0,0.0,0.0,0.0,0.0,0.0,0.0,0.0,0.0,0.0,0.0,0.0,0.0,0.0,0.0,0.0,0.0,0.0,0.0,0.0,0.0,0.0,0.0,0.0,0.0,0.0,0.0,0.0,0.0,0.0,0.0,0.0,0.0,0.0,0.0,0.0,0.0,0.0,0.0,0.0,0.0,0.0,0.0,0.0,0.0,0.0,0.0,0.0,0.0,0.0,0.0,0.0,0.0,0.0,0.0,0.0,0.0,0.0,0.0,0.0,0.0,0.0,0.0,0.0,0.0,-2.4261,-2.546,-2.6399,-2.6499,-2.6499,-2.6499,-2.5594,-2.4456,-2.3183,0.0,0.0,0.0,0.0,0.0,0.0,0.0,0.0,0.0,0.0,0.0,0.0,0.0,0.0,0.0,0.0,0.0,0.0,0.0,0.0,0.0,0.0,0.0,0.0,0.0,0.0,0.0,0.0,0.0,0.0,0.0,0.0,0.0,0.0,0.0,0.0,0.0,0.0,0.0,0.0,0.0,0.0,0.0,0.0,0.0,0.0,0.0,0.0,0.0,0.0,0.0,0.0,0.0,0.0,0.0,0.0,0.0,0.0,0.0,0.0,0.0,0.0,0.0,0.0,0.0,0.0,0.0,0.0,0.0,0.0,0.0,0.0,0.0,0.0,0.0,0.0,0.0,0.0,0.0,0.0,0.0,0.0,0.0,0.0,0.0,0.0,0.0,0.0,0.0,0.0,0.0,0.0,0.0,0.0,0.0,0.0,0.0,0.0,0.0,0.0,0.0,0.0,-2.2857,-2.4418,-2.5636,-2.6411,-2.6499,-2.6411,-2.6235,-2.5511,-2.4381,-2.2694,0.0,0.0,0.0,0.0,0.0,0.0,0.0,0.0,0.0,0.0,0.0,0.0,0.0,0.0,0.0,0.0,0.0,0.0,0.0,0.0,0.0,0.0,0.0,0.0,0.0,0.0,0.0,0.0,0.0,0.0,0.0,0.0,0.0,0.0,0.0,0.0,0.0,0.0,0.0,0.0,0.0,0.0,0.0,0.0,0.0,0.0,0.0,0.0,0.0,0.0,0.0,0.0,0.0,0.0,0.0,0.0,0.0,0.0,0.0,0.0,0.0,0.0,0.0,0.0,0.0,0.0,0.0,0.0,0.0,0.0,0.0,0.0,0.0,0.0,0.0,0.0,0.0,0.0,0.0,0.0,0.0,0.0,0.0,0.0,0.0,0.0,0.0,0.0,0.0,0.0,0.0,0.0,0.0,0.0,0.0,0.0,0.0,0.0,0.0,0.0,0.0,0.0,-2.2957,-2.5071,-2.6487,-2.6499,-2.6499,-2.626,-2.5649,-2.4619,-2.3276,0.0,0.0,0.0,0.0,0.0,0.0,0.0,0.0,0.0,0.0,0.0,0.0,0.0,0.0,0.0,0.0,0.0,0.0,0.0,0.0,0.0,0.0,0.0,0.0,0.0,0.0,0.0,0.0,0.0,0.0,0.0,0.0,0.0,0.0,0.0,0.0,0.0,0.0,0.0,0.0,0.0,0.0,0.0,0.0,0.0,0.0,0.0,0.0,0.0,0.0,0.0,0.0,0.0,0.0,0.0,0.0,0.0,0.0,0.0,0.0,0.0,0.0,0.0,0.0,0.0,0.0,0.0,0.0,0.0,0.0,0.0,0.0,0.0,0.0,0.0,0.0,0.0,0.0,0.0,0.0,0.0,0.0,0.0,0.0,0.0,0.0,0.0,0.0,0.0,0.0,0.0,0.0,0.0,0.0,0.0,0.0,0.0,0.0,0.0,0.0,0.0,0.0,0.0,-2.2907,-2.472,-2.6047,-2.6449,-2.6499,-2.626,-2.5649,-2.4619,-2.3276,-2.1594,0.0,0.0,0.0,0.0,0.0,0.0,0.0,0.0,0.0,0.0,0.0,0.0,0.0,0.0,0.0,0.0,0.0,0.0,0.0,0.0,0.0,0.0,0.0,0.0,0.0,0.0,0.0,0.0,0.0,0.0,0.0,0.0,0.0,0.0,0.0,0.0,0.0,0.0,0.0,0.0,0.0,0.0,0.0,0.0,0.0,0.0,0.0,0.0,0.0,0.0,0.0,0.0,0.0,0.0,0.0,0.0,0.0,0.0,0.0,0.0,0.0,0.0,0.0,0.0,0.0,0.0,0.0,0.0,0.0,0.0,0.0,0.0,0.0,0.0,0.0,0.0,0.0,0.0,0.0,0.0,0.0,0.0,0.0,0.0,0.0,0.0,0.0,0.0,0.0,0.0,0.0,0.0,0.0,0.0,0.0,0.0,0.0,0.0,0.0,0.0,0.0,0.0,-2.2895,-2.4569,-2.5824,-2.6436,-2.6285,-2.5921,-2.5335,-2.428,-2.2836,-2.0941,0.0,0.0,0.0,0.0,0.0,0.0,0.0,0.0,0.0,0.0,0.0,0.0,0.0,0.0,0.0,0.0,0.0,0.0,0.0,0.0,0.0,0.0,0.0,0.0,0.0,0.0,0.0,0.0,0.0,0.0,0.0,0.0,0.0,0.0,0.0,0.0,0.0,0.0,0.0,0.0,0.0,0.0,0.0,0.0,0.0,0.0,0.0,0.0,0.0,0.0,0.0,0.0,0.0,0.0,0.0,0.0,0.0,0.0,0.0,0.0,0.0,0.0,0.0,0.0,0.0,0.0,0.0,0.0,0.0,0.0,0.0,0.0,0.0,0.0,0.0,0.0,0.0,0.0,0.0,0.0,0.0,0.0,0.0,0.0,0.0,0.0,0.0,0.0,0.0,0.0,0.0,0.0,0.0,0.0,0.0,0.0,0.0,0.0,0.0,0.0,0.0,0.0,-2.2819,-2.4456,-2.5674,-2.6285,-2.5837,-2.531,-2.4763,-2.3684,-2.2092,-1.9949,0.0,0.0,0.0,0.0,0.0,0.0,0.0,0.0,0.0,0.0,0.0,0.0,0.0,0.0,0.0,0.0,0.0,0.0,0.0,0.0,0.0,0.0,0.0,0.0,0.0,0.0,0.0,0.0,0.0,0.0,0.0,0.0,0.0,0.0,0.0,0.0,0.0,0.0,0.0,0.0,0.0,0.0,0.0,0.0,0.0,0.0,0.0,0.0,0.0,0.0,0.0,0.0,0.0,0.0,0.0,0.0,0.0,0.0,0.0,0.0,-2.0878,-2.0478,0.0,0.0,0.0,0.0,0.0,0.0,0.0,0.0,0.0,0.0,0.0,0.0,0.0,0.0,0.0,0.0,0.0,0.0,0.0,0.0,0.0,0.0,0.0,0.0,0.0,0.0,0.0,0.0,0.0,0.0,0.0,0.0,0.0,0.0,0.0,0.0,0.0,0.0,0.0,0.0,-2.2272,-2.3577,-2.4556,-2.5109,-2.5059,-2.4738,-2.4217,-2.3138,-2.1719,-1.9911,-1.8907,0.0,0.0,0.0,0.0,0.0,0.0,0.0,0.0,0.0,0.0,0.0,0.0,0.0,0.0,0.0,0.0,0.0,0.0,0.0,0.0,0.0,0.0,0.0,0.0,0.0,0.0,0.0,0.0,0.0,0.0,0.0,0.0,0.0,0.0,0.0,0.0,0.0,0.0,0.0,0.0,0.0,0.0,0.0,0.0,0.0,0.0,0.0,0.0,0.0,0.0,0.0,0.0,0.0,0.0,0.0,0.0,0.0,0.0,0.0,-2.2058,-2.1606,0.0,0.0,0.0,0.0,0.0,0.0,0.0,0.0,0.0,0.0,0.0,0.0,0.0,0.0,0.0,0.0,0.0,0.0,0.0,0.0,0.0,0.0,0.0,0.0,0.0,0.0,0.0,0.0,0.0,0.0,0.0,0.0,0.0,0.0,0.0,0.0,0.0,0.0,0.0,0.0,-2.2096,-2.3301,-2.4217,-2.4725,-2.4582,-2.4305,-2.4017,-2.2723,-2.143,-2.0288,-1.8945,0.0,0.0,0.0,0.0,0.0,0.0,0.0,0.0,0.0,0.0,0.0,0.0,0.0,0.0,0.0,0.0,0.0,0.0,0.0,0.0,0.0,0.0,0.0,0.0,0.0,0.0,0.0,0.0,0.0,0.0,0.0,0.0,0.0,0.0,0.0,0.0,0.0,0.0,0.0,0.0,0.0,0.0,0.0,0.0,0.0,0.0,0.0,0.0,0.0,0.0,0.0,0.0,0.0,-2.3188,-2.3735,-2.3847,-2.4456,-2.4707,-2.4657,-2.3627,-2.3183,-2.3183,-2.2196,0.0,0.0,0.0,0.0,0.0,0.0,0.0,0.0,0.0,0.0,0.0,0.0,0.0,0.0,0.0,0.0,0.0,0.0,0.0,0.0,0.0,0.0,-2.0955,-2.0263,-2.0878,-2.1104,-1.9196,0.0,0.0,0.0,0.0,0.0,0.0,0.0,0.0,0.0,0.0,0.0,-2.197,-2.315,-2.4017,-2.4449,-2.4117,-2.3853,-2.3853,-2.2397,-2.1282,-2.0729,-1.9208,-1.8053,0.0,0.0,0.0,0.0,0.0,0.0,0.0,0.0,0.0,0.0,0.0,0.0,0.0,0.0,0.0,0.0,0.0,0.0,0.0,0.0,0.0,0.0,0.0,0.0,0.0,0.0,0.0,0.0,0.0,0.0,0.0,0.0,-1.6337,-1.6475,0.0,0.0,0.0,0.0,0.0,0.0,0.0,0.0,0.0,0.0,0.0,0.0,0.0,-2.123,-2.1167,-2.2761,-2.3841,-2.4362,-2.5498,-2.6311,-2.6753,-2.7306,-2.7557,-2.7532,-2.6904,0.0,-2.3841,-2.3158,0.0,0.0,0.0,0.0,0.0,0.0,0.0,0.0,0.0,0.0,0.0,0.0,0.0,0.0,0.0,0.0,0.0,0.0,0.0,0.0,0.0,0.0,-2.2518,-2.1506,-2.1744,-2.1995,-2.123,-1.9987,-1.8958,-1.882,-1.8456,-1.8003,0.0,0.0,0.0,0.0,0.0,0.0,-2.1443,-2.256,-2.3246,-2.3321,-2.3258,-2.3221,-2.3221,-2.2171,-2.1282,-2.0729,-1.956,-1.8455,-1.7448,-1.726,0.0,0.0,0.0,0.0,0.0,0.0,0.0,0.0,0.0,0.0,0.0,0.0,0.0,0.0,0.0,0.0,0.0,0.0,0.0,0.0,0.0,0.0,0.0,0.0,0.0,0.0,0.0,0.0,0.0,-1.6296,-1.6886,-1.6538,-1.681,-1.6873,0.0,0.0,0.0,0.0,0.0,0.0,0.0,0.0,0.0,-2.0413,-2.2033,-2.2899,-2.2899,-2.4576,-2.5498,-2.5749,-2.6854,-2.7507,-2.7758,-2.7996,-2.8109,-2.8097,-2.7846,-2.7193,-2.6189,-2.4662,-2.3722,-2.3201,0.0,0.0,0.0,0.0,-2.2698,-2.251,-2.3201,-2.308,-2.2485,-2.2159,0.0,0.0,0.0,0.0,0.0,0.0,0.0,-2.083,-2.143,-2.2133,-2.2594,-2.2447,-2.2569,-2.2681,-2.2443,-2.1578,-2.0575,-1.9622,-1.9522,-1.9145,-1.7662,-1.7662,0.0,0.0,0.0,-2.069,-2.1807,-2.2606,-2.3108,-2.3108,-2.3108,-2.2982,-2.2669,-2.1945,-2.1282,-2.0729,-1.9635,-1.8795,-1.8329,-1.7714,-1.7285,0.0,0.0,0.0,0.0,0.0,0.0,0.0,0.0,0.0,0.0,0.0,0.0,0.0,0.0,0.0,0.0,0.0,0.0,0.0,0.0,0.0,0.0,0.0,0.0,0.0,0.0,0.0,0.0,-1.6681,-1.7184,-1.6563,-1.7149,-1.7363,0.0,0.0,0.0,0.0,0.0,0.0,-2.0213,-2.1443,-2.2133,-2.2133,-2.3615,-2.4481,-2.4632,-2.6021,-2.6851,-2.714,-2.7921,-2.8398,-2.8536,-2.8536,-2.8536,-2.8524,-2.8386,-2.831,-2.816,-2.6088,-2.4996,-2.4556,-2.381,-2.3534,-2.3584,-2.4054,-2.391,-2.371,-2.4971,-2.487,-2.4155,-2.3822,-2.3371,-2.2669,-2.1305,0.0,0.0,0.0,0.0,-2.1773,-2.2698,-2.2849,-2.2849,-2.3233,-2.3208,-2.3108,-2.3108,-2.2782,-2.2108,-2.0715,-2.0704,-2.0339,-1.8554,-1.8592,0.0,-1.9359,-2.0263,-2.1257,-2.2184,-2.2769,-2.3108,-2.3108,-2.3108,-2.2882,-2.2359,-2.1807,-2.1282,-2.0729,-1.9761,-1.9146,-1.9008,-1.8103,-1.7549,-1.741,0.0,0.0,0.0,0.0,0.0,0.0,0.0,0.0,0.0,0.0,0.0,0.0,0.0,0.0,0.0,0.0,0.0,0.0,0.0,0.0,0.0,0.0,0.0,0.0,0.0,0.0,0.0,0.0,0.0,-1.6563,-1.7488,0.0,0.0,0.0,0.0,-1.8958,-2.0464,-2.138,-2.1405,-2.2975,-2.3866,-2.3866,-2.4933,-2.5774,-2.6361,-2.6964,-2.777,-2.8762,-2.8825,-2.9176,-2.9704,-2.9704,-2.9704,-2.9679,-2.9126,-2.885,-2.8712,-2.7067,-2.6399,-2.626,-2.5159,-2.47,-2.4713,-2.4738,-2.4725,-2.4713,-2.48,-2.4788,-2.4825,-2.5322,-2.5121,-2.455,-2.3966,-2.3401,0.0,0.0,-2.3828,-2.3966,-2.4512,-2.4305,-2.3916,-2.3954,-2.354,-2.3108,-2.3108,-2.3083,-2.2882,-2.2297,-2.1782,-2.1242,-2.0641,0.0,-2.0578,-2.0603,-2.1106,-2.1656,-2.2234,-2.2769,-2.3108,-2.3108,-2.3108,-2.2882,-2.2359,-2.1807,-2.1282,-2.0729,-2.01,-1.9547,-1.902,-1.8468,-1.7915,-1.741,-1.6271,0.0,0.0,0.0,0.0,0.0,0.0,0.0,0.0,0.0,0.0,0.0,0.0,0.0,0.0,0.0,0.0,0.0,0.0,0.0,0.0,0.0,0.0,0.0,0.0,0.0,0.0,0.0,0.0,-1.813,-1.9108,0.0,-1.8995,-1.9635,-2.0376,-2.1051,-2.1992,-2.2862,-2.359,-2.4519,-2.5021,-2.5021,-2.6101,-2.6813,-2.7014,-2.7896,-2.8499,-2.89,-2.9302,-2.9591,-2.9792,-2.9792,-2.9792,-2.9779,-2.9578,-2.9478,-2.9402,-2.8448,-2.7846,-2.7444,-2.6691,-2.6402,-2.6364,-2.6,-2.5908,-2.5908,-2.5908,-2.5908,-2.585,-2.5649,-2.5247,-2.475,-2.4562,-2.4349,-2.4236,-2.4437,-2.4519,-2.4569,-2.4738,-2.4406,-2.4004,-2.4004,-2.3521,-2.3108,-2.3108,-2.3108,-2.3045,-2.2844,-2.2397,-2.1732,-2.0842,-2.0993,-2.1219,-2.1219,-2.1656,-2.2221,-2.2744,-2.2982,-2.3108,-2.3108,-2.2782,-2.2355,-2.1832,-2.1307,-2.0742,-2.015,-1.9911,-1.971,-1.9509,-1.8681,-1.8108,-1.7915,-1.6473,-1.5691,0.0,0.0,0.0,0.0,0.0,0.0,0.0,0.0,0.0,0.0,0.0,0.0,0.0,0.0,0.0,0.0,0.0,0.0,0.0,0.0,0.0,0.0,0.0,0.0,0.0,-1.848,-1.9196,-1.902,-2.0162,-2.0742,-2.015,-2.0968,-2.1794,-2.2506,-2.3409,-2.4261,-2.5046,-2.5598,-2.5975,-2.6163,-2.6892,-2.7457,-2.7833,-2.8524,-2.8988,-2.9227,-2.9616,-2.9792,-2.9792,-2.9792,-2.9792,-2.9792,-2.9792,-2.9792,-2.9767,-2.9377,-2.9001,-2.8599,-2.7858,-2.7557,-2.7494,-2.6977,-2.6776,-2.6751,-2.6562,-2.6499,-2.6436,-2.6047,-2.5649,-2.5372,-2.5372,-2.5372,-2.5372,-2.5372,-2.5372,-2.5372,-2.5372,-2.482,-2.428,-2.428,-2.3659,-2.3108,-2.3108,-2.3108,-2.3108,-2.3108,-2.2807,-2.233,-2.1631,-2.1794,-2.2046,-2.2046,-2.2347,-2.2694,-2.3058,-2.3108,-2.3032,-2.2844,-2.2506,-2.202,-2.1307,-2.0905,-2.044,-1.9836,-1.9635,-1.9547,-1.9547,-1.8505,-1.7933,-1.7929,-1.6475,-1.5605,-1.5425,0.0,0.0,0.0,0.0,0.0,0.0,0.0,0.0,0.0,0.0,0.0,0.0,0.0,0.0,0.0,0.0,0.0,0.0,0.0,0.0,0.0,0.0,0.0,-1.7398,-1.8819,-1.966,-1.9158,-2.0552,-2.1343,-2.0842,-2.2221,-2.3145,-2.3183,-2.4695,-2.5598,-2.5624,-2.6185,-2.6751,-2.7268,-2.7341,-2.7821,-2.8888,-2.8913,-2.9239,-2.9792,-2.9792,-2.9792,-2.9792,-2.9792,-2.9792,-2.9792,-2.9792,-2.9792,-2.9792,-2.9792,-2.9792,-2.9679,-2.8561,-2.8134,-2.8059,-2.7507,-2.7293,-2.7241,-2.6688,-2.6499,-2.6499,-2.6499,-2.6499,-2.6499,-2.6499,-2.6499,-2.6499,-2.6499,-2.6499,-2.6499,-2.6499,-2.5636,-2.4788,-2.4788,-2.3935,-2.3108,-2.3108,-2.3108,-2.3108,-2.3108,-2.3108,-2.3108,-2.3108,-2.3108,-2.3108,-2.3108,-2.3108,0.0,-2.3083,-2.3083,-2.2869,-2.2347,-2.2272,-2.1832,-2.0779,-2.0679,-2.0415,-1.9811,-1.9284,-1.9008,-1.9008,-1.799,-1.7415,-1.7399,-1.6298,-1.5459,-1.4934,0.0,0.0,0.0,0.0,0.0,0.0,0.0,0.0,0.0,0.0,0.0,0.0,0.0,0.0,0.0,0.0,0.0,0.0,0.0,0.0,0.0,-1.719,-1.8066,-1.9007,-1.9912,-2.0704,-2.133,-2.213,-2.2757,-2.305,-2.3489,-2.4092,-2.4858,-2.5335,-2.5774,-2.6235,-2.6411,-2.6751,-2.7268,-2.767,-2.8222,-2.8888,-2.934,-2.9641,-2.9792,-2.9792,-2.9792,-2.9792,-2.9792,-2.9792,-2.9792,-2.9792,-2.9792,-2.9792,-2.9792,-2.9792,-2.9729,-2.8988,-2.8662,-2.8637,-2.8084,-2.762,-2.7241,-2.6688,-2.6499,-2.6499,-2.6499,-2.6499,-2.6499,-2.6499,-2.6499,-2.6499,-2.6499,-2.6499,-2.6499,-2.6499,-2.5636,-2.4788,-2.4788,-2.3935,-2.3108,-2.3108,-2.3108,-2.3108,-2.3108,-2.3108,-2.3108,-2.3108,-2.3108,-2.3108,-2.3108,-2.3108,-2.2957,-2.2556,-2.2506,-2.2293,-2.1782,-2.1355,-2.1018,-2.0717,-2.0302,-1.9811,-1.9246,-1.9083,-1.9008,-1.9008,-1.8355,-1.7804,-1.7417,-1.6669,-1.6022,0.0,0.0,0.0,0.0,0.0,0.0,0.0,0.0,0.0,0.0,0.0,0.0,0.0,0.0,0.0,0.0,0.0,0.0,0.0,0.0,0.0,0.0,-1.8154,-1.9258,-2.0351,-2.0817,-2.1358,-2.2209,-2.2769,-2.3333,-2.3941,-2.4205,-2.4695,-2.5536,-2.5824,-2.6135,-2.6474,-2.6499,-2.6851,-2.7607,-2.7946,-2.8486,-2.9289,-2.9628,-2.9792,-2.9792,-2.9792,-2.9792,-2.9792,-2.9792,-2.9792,-2.9792,-2.9792,-2.9792,-2.9792,-2.9792,-2.9792,-2.9767,0.0,0.0,0.0,0.0,-2.7758,-2.7241,-2.6688,-2.6499,-2.6499,-2.6499,-2.6499,-2.6499,-2.6499,-2.6499,-2.6499,-2.6499,-2.6499,-2.6436,-2.6197,-2.546,-2.4725,-2.4531,-2.376,-2.3108,-2.3108,-2.3108,-2.3108,-2.3108,-2.3108,0.0,-2.3108,-2.3108,-2.3108,-2.3108,-2.2907,-2.2644,-2.2347,-2.2108,-2.1757,-2.1232,-2.088,-2.0591,-2.0352,-1.9987,0.0,0.0,0.0,-1.8795,-1.8345,-1.8013,0.0,0.0,0.0,0.0,0.0,0.0,0.0,0.0,-1.6522,-1.6534,0.0,0.0,0.0,0.0,0.0,0.0,0.0,0.0,0.0,0.0,0.0,0.0,0.0,0.0,0.0,0.0,-1.9145,-2.02,-2.133,-2.1543,-2.1782,-2.2334,-2.2807,-2.3358,-2.4029,-2.4531,-2.5059,-2.5649,-2.6197,-2.6499,-2.6499,-2.6499,0.0,0.0,0.0,-2.8649,-2.9779,-2.9792,-2.9792,-2.9792,-2.9792,-2.9792,-2.9792,-2.9792,-2.9792,-2.9792,-2.9792,-2.9792,-2.9792,-2.9792,-2.9792,-2.9792,-2.9792,-2.9792,-2.9654,-2.8524,-2.7795,-2.7293,-2.6713,0.0,0.0,-2.6499,-2.6499,-2.6499,-2.6499,-2.6499,-2.6499,-2.6499,-2.6499,-2.6361,-2.5749,-2.5209,-2.465,-2.413,-2.3521,-2.3108,-2.3108,-2.3108,-2.3108,-2.3108,-2.3108,-2.3108,-2.3108,-2.3108,-2.3108,-2.3108,-2.2631,-2.2284,-2.2234,-2.1732,-2.1207,-2.0654,-2.0591,0.0,-1.9849,-1.9798,-1.9773,-1.971,-1.9259,-1.857,-1.7622,-1.7572,-1.7563,-1.7577,-1.7516,-1.7703,-1.821,-1.821,-1.8223,-1.8293,-1.7738,-1.7738,0.0,0.0,0.0,0.0,0.0,0.0,0.0,0.0,0.0,0.0,0.0,0.0,0.0,0.0,0.0,-1.8594,-1.9397,-2.02,-2.133,-2.187,-2.233,-2.2882,-2.3045,-2.3509,-2.4525,-2.4725,-2.5222,-2.6248,-2.6436,-2.6499,-2.6499,-2.6499,-2.7002,-2.8072,-2.8109,-2.8649,-2.9779,-2.9792,-2.9792,-2.9792,-2.9792,0.0,-2.9792,-2.9792,-2.9792,-2.9792,-2.9792,-2.9792,-2.9792,-2.9792,-2.9792,-2.9792,-2.9792,-2.9792,-2.9654,-2.8524,-2.8034,-2.7808,-2.6839,-2.6499,-2.6499,-2.6499,-2.6499,-2.6499,-2.6499,-2.6499,0.0,-2.6499,-2.6499,-2.6361,-2.5749,-2.5209,-2.465,-2.413,-2.3521,-2.3108,-2.3108,-2.3108,-2.3108,-2.3108,-2.3108,-2.3108,-2.3108,-2.3108,-2.3108,-2.3108,-2.2631,-2.2146,-2.1707,-2.1194,-2.0629,-2.0037,-1.9962,-1.9924,-1.9811,-1.9798,-1.9623,-1.9171,-1.9058,-1.8919,-1.869,-1.8683,-1.8677,-1.8697,-1.8263,-1.8091,-1.8214,-1.8214,-1.8424,-1.8834,-1.83,-1.8091,0.0,0.0,0.0,0.0,0.0,0.0,0.0,0.0,0.0,0.0,0.0,-1.5957,-1.6798,0.0,-1.8105,-1.9208,-2.0112,-2.0941,-2.1782,-2.2343,-2.2794,-2.307,-2.3358,-2.3873,-2.4713,-2.5059,-2.5548,-2.6436,-2.6499,-2.6499,-2.6499,-2.6751,-2.7291,-2.8084,-2.8373,-2.8925,-2.9779,-2.9792,-2.9792,-2.9792,-2.9792,-2.9792,-2.9792,-2.9792,-2.9792,-2.9792,-2.9792,-2.9792,-2.9792,-2.9792,-2.9792,-2.9792,-2.9792,-2.9792,-2.9654,-2.8524,-2.8109,-2.7946,-2.6876,-2.6499,-2.6499,-2.6499,-2.6499,-2.6499,-2.6499,-2.6499,-2.6499,-2.6499,-2.6499,-2.6361,-2.5749,-2.5209,-2.465,-2.413,-2.3521,-2.3108,-2.3108,-2.3108,-2.3108,-2.3108,-2.3108,-2.3108,-2.3108,-2.3108,-2.3108,-2.3108,-2.2435,-2.1794,-2.1518,-2.0779,-2.0125,-1.9836,-1.9798,-1.9798,-1.9798,-1.9798,-1.9698,-1.9409,-1.9384,-1.9283,-1.9008,-1.9008,-1.8996,-1.9013,-1.8735,-1.8735,-1.8987,-1.8987,-1.9151,-1.9404,-1.9113,-1.8987,0.0,0.0,0.0,0.0,0.0,0.0,0.0,0.0,-1.4833,-1.5839,-1.6459,-1.7024,-1.7589,-1.843,-1.9208,-1.9874,-2.0828,-2.1681,-2.2234,-2.2757,-2.3108,-2.3108,-2.3521,-2.4092,-2.4725,-2.5197,-2.5724,-2.6449,-2.6499,-2.6499,-2.6499,-2.6914,-2.7419,-2.8084,-2.8536,-2.9101,-2.9779,-2.9792,-2.9792,-2.9792,-2.9792,-2.9792,-2.9792,-2.9792,-2.9792,-2.9792,-2.9792,-2.9792,-2.9792,-2.9792,-2.9729,-2.9628,-2.9628,-2.9566,-2.9352,-2.8448,-2.8034,-2.7808,-2.6839,-2.6499,-2.6499,-2.6499,-2.6499,-2.6499,-2.6499,-2.6499,-2.6499,-2.6499,-2.6499,-2.6361,-2.5749,-2.5209,-2.465,-2.413,-2.3521,-2.3108,-2.3108,-2.3108,-2.3108,-2.3108,-2.3108,-2.3108,-2.3108,-2.3108,-2.307,-2.2957,-2.2133,-2.1443,-2.137,-2.0439,-1.9798,-1.9798,-1.9798,-1.9798,-1.9798,-1.9798,-1.9798,-1.9798,-1.9798,-1.962,-1.9163,-1.9151,-1.9151,-1.9151,-1.9151,-1.9366,-1.9798,-1.9798,-1.9798,-1.9798,-1.9798,-1.9798,-1.5512,-1.4928,-1.44,-1.5299,-1.4796,-1.4475,0.0,0.0,-1.6421,-1.7084,-1.7639,-1.8191,-1.8719,-1.892,-1.9334,-2.0427,-2.1119,-2.1681,-2.2234,-2.2757,-2.3108,-2.3108,-2.3158,-2.3622,-2.4687,-2.4838,-2.5335,-2.6411,-2.6499,-2.6499,-2.6499,-2.6549,-2.7065,-2.8072,-2.816,-2.8712,-2.9779,-2.9792,-2.9792,-2.9792,-2.9792,-2.9792,-2.9792,-2.9792,-2.9792,-2.9792,-2.9792,-2.9792,-2.9792,-2.9792,-2.949,-2.8988,-2.8988,-2.8725,-2.8285,-2.816,-2.7795,-2.7293,-2.6713,-2.6499,-2.6499,-2.6499,-2.6499,-2.6499,-2.6499,-2.6499,-2.6499,-2.6499,-2.6499,-2.6361,-2.5749,-2.5209,-2.465,-2.413,-2.3521,-2.3108,-2.3108,-2.3108,-2.3108,-2.3108,-2.3108,-2.3108,-2.3108,-2.3108,-2.2945,-2.2443,-2.1882,-2.1333,-2.0842,-2.02,-1.9798,-1.9798,-1.9798,-1.9798,-1.9798,-1.9798,-1.9798,-1.9798,-1.9798,-1.976,-1.9709,-1.9709,-1.9709,-1.9709,-1.9709,-1.9747,-1.9798,-1.9798,-1.9798,-1.9798,-1.9798,-1.9798,-1.5718,-1.5593,-1.5462,-1.5286,-1.5135,-1.5299,-1.6283,-1.65,-1.6751,-1.7677,-1.8304,-1.8732,-1.8958,-1.9259,-1.9849,-2.0993,-2.1343,-2.1794,-2.2644,-2.2957,-2.3108,-2.3108,-2.3108,-2.3547,-2.4675,-2.5096,-2.5598,-2.6436,-2.6499,-2.6499,-2.6499,-2.7102,-2.7632,-2.8097,-2.875,-2.9315,-2.9792,-2.9792,-2.9792,-2.9792,-2.9792,-2.9792,-2.9792,-2.9792,-2.9792,-2.9792,-2.9792,-2.9792,-2.9792,-2.9792,-2.9641,-2.9402,-2.9026,-2.8549,-2.8059,-2.7745,-2.7482,-2.7241,-2.6688,-2.6499,-2.6499,-2.6499,-2.6499,-2.6499,-2.6499,-2.6499,-2.6499,-2.6499,-2.6248,-2.5933,-2.5661,-2.4971,-2.4293,-2.4054,-2.3521,-2.3108,-2.3108,-2.3108,-2.3108,-2.3108,-2.3108,-2.3108,-2.3108,-2.3108,-2.2807,-2.197,-2.1631,-2.1405,-2.1207,-2.0363,-1.9798,-1.9798,-1.9798,-1.9798,-1.9798,-1.9798,-1.9798,-1.9798,-1.9798,-1.9798,-1.9798,-1.9798,-1.9798,-1.9798,-1.9798,-1.9798,-1.9798,-1.9798,-1.9798,-1.9798,-1.9798,-1.9798,-1.5994,-1.5994,-1.5944,-1.5462,-1.563,-1.607,-1.6622,-1.6964,-1.7415,-1.8243,-1.8832,-1.9221,-1.9221,-1.9547,-2.0175,-2.1305,-2.1493,-2.187,-2.2945,-2.3108,-2.3108,-2.3108,-2.3108,-2.3484,-2.4462,-2.5071,-2.5686,-2.6436,-2.6499,-2.6499,-2.6499,-2.7253,-2.7795,-2.8097,-2.89,-2.9478,-2.9792,-2.9792,-2.9792,-2.9792,-2.9792,-2.9792,-2.9792,-2.9792,-2.9792,-2.9792,-2.9792,-2.9792,-2.9792,-2.9792,-2.9603,-2.9289,-2.8863,-2.8273,-2.7607,-2.7241,-2.709,-2.7027,-2.6637,-2.6499,-2.6499,-2.6499,-2.6499,-2.6499,-2.6499,-2.6499,-2.6499,-2.6499,-2.6197,-2.5837,-2.5837,-2.5034,-2.423,-2.423,-2.3634,-2.3108,-2.3108,-2.3108,-2.3108,-2.3108,-2.3108,-2.3108,-2.3108,-2.3108,-2.2782,-2.1857,-2.1581,-2.138,-2.1066,-2.0313,-1.9798,-1.9798,-1.9798,-1.9798,-1.9798,-1.9798,-1.9798,-1.9798,-1.9798,-1.9798,-1.9798,-1.9798,-1.9798,-1.9798,-1.9798,-1.9798,-1.9798,-1.9798,-1.9798,-1.9798,-1.9798,-1.9798,-1.6337,-1.5731,-1.5185,-1.6208,-1.645,-1.6626,-1.7247,-1.8191,-1.8933,-1.897,-1.9384,-1.9773,-1.9773,-1.9798,-2.0175,-2.1305,-2.1493,-2.187,-2.2945,-2.3108,-2.3108,-2.3108,-2.3108,-2.3333,-2.3966,-2.4519,-2.5297,-2.6411,-2.6499,-2.6499,-2.6499,-2.6524,-2.704,-2.8072,-2.8134,-2.8674,-2.9779,-2.9792,-2.9792,-2.9792,-2.9792,-2.9792,-2.9792,-2.9792,-2.9792,-2.9792,-2.9792,-2.9792,-2.9792,-2.9792,-2.9151,-2.816,-2.8134,-2.7469,-2.6549,-2.6524,-2.6512,-2.6512,-2.6499,-2.6499,-2.6499,-2.6499,-2.6499,-2.6499,-2.6499,-2.6499,-2.6499,-2.6499,-2.6487,-2.6461,-2.6461,-2.5624,-2.4763,-2.4763,-2.391,-2.3108,-2.3108,-2.3108,-2.3108,-2.3108,-2.3108,-2.3108,-2.3108,-2.3108,-2.2907,-2.2372,-2.1832,-2.1091,-1.9999,-1.9823,-1.9798,-1.9798,-1.9798,-1.9798,-1.9798,-1.9798,-1.9798,-1.9798,-1.9798,-1.9798,-1.9798,-1.9798,-1.9798,-1.9798,-1.9798,-1.9798,-1.9798,-1.9798,-1.9798,-1.9798,-1.9798,-1.9798,-1.5567,-1.568,-1.6057,-1.64,-1.681,-1.7338,-1.8254,-1.8744,-1.9096,-1.9472,-1.9673,-1.9798,-1.9798,-1.9798,-2.0175,-2.1305,-2.1493,-2.187,-2.2945,-2.3108,-2.3108,-2.3108,-2.3108,-2.3333,-2.3941,-2.4506,-2.5121,-2.5871,-2.6273,-2.6499,-2.6499,-2.6839,-2.7379,-2.8084,-2.8461,-2.9013,-2.9779,-2.9792,-2.9792,-2.9792,-2.9792,-2.9792,-2.9792,-2.9792,-2.9792,-2.9792,-2.9792,-2.9792,-2.9792,-2.9792,-2.934,-2.8612,-2.8247,-2.7657,-2.7002,-2.6625,-2.6499,-2.6499,-2.6499,-2.6499,-2.6499,-2.6499,-2.6499,-2.6499,-2.6499,-2.6499,-2.6499,-2.6499,-2.5971,-2.5448,-2.5799,-2.4795,-2.3772,-2.418,-2.3659,-2.3108,-2.3108,-2.3108,-2.3108,-2.3108,-2.3108,-2.3108,-2.3108,-2.3108,-2.2794,-2.1895,-2.1292,-2.0691,-1.9899,-1.9798,-1.9798,-1.9798,-1.9798,-1.9798,-1.9798,-1.9798,-1.9798,-1.9798,-1.9798,-1.9798,-1.9798,-1.9798,-1.9798,-1.9798,-1.9798,-1.9798,-1.9798,-1.9798,-1.9798,-1.9798,-1.9798,-1.9798,-1.5927,-1.6304,-1.6873,-1.7074,-1.772,-1.8446,-1.8894,-1.9344,-1.9609,-1.9522,-1.9497,-1.9472,-1.9271,-1.9233,-1.966,-2.1006,-2.1219,-2.1644,-2.292,-2.3108,-2.3108,-2.3108,-2.3108,-2.3246,-2.3653,-2.4205,-2.482,-2.5548,-2.6172,-2.6499,-2.6499,-2.6839,-2.7278,-2.7795,-2.8348,-2.89,-2.9478,-2.9691,-2.9792,-2.9792,-2.9792,-2.9792,-2.9792,-2.9792,-2.9792,-2.9792,-2.9792,-2.9792,-2.9779,-2.9566,-2.9151,-2.8549,-2.8021,-2.7469,-2.6977,-2.6625,-2.6499,-2.6499,-2.6499,-2.6499,-2.6499,-2.6499,-2.6499,-2.6499,-2.6499,-2.6499,-2.6499,-2.6499,-2.5984,-2.5435,-2.5561,-2.4669,-2.3747,-2.3954,-2.3521,-2.3108,-2.3108,-2.3108,-2.3108,-2.3108,-2.3108,-2.3108,-2.3108,-2.2782,-2.2234,-2.1358,-2.0742,-2.0251,-1.9849,-1.9798,-1.9798,-1.9798,-1.9798,-1.9798,-1.9798,-1.9798,-1.9798,-1.9798,-1.9798,-1.9798,-1.9798,-1.962,-1.9594,-1.9798,-1.962,-1.962,-1.9798,-1.9798,-1.9798,-1.9798,-1.9798,-1.9798,-1.7237,-1.7423,-1.7574,-1.8103,-1.9096,-1.9769,-1.918,-1.987,-2.035,-1.9231,-1.8982,-1.8795,0.0,0.0,-1.8756,-2.0352,-2.0679,-2.1295,-2.2844,-2.3083,-2.3108,-2.3108,-2.3108,-2.3108,-2.3145,-2.3703,-2.4469,-2.5523,-2.6135,-2.6461,-2.6499,-2.6499,-2.6763,-2.7306,-2.7833,-2.8386,-2.8925,-2.9515,-2.9792,-2.9792,-2.9792,-2.9792,-2.9792,-2.9792,-2.9792,-2.9792,-2.9792,-2.9792,-2.9741,-2.9126,-2.8562,-2.8047,-2.7494,-2.6977,-2.6499,-2.6499,-2.6499,-2.6499,-2.6499,-2.6499,-2.6499,-2.6499,-2.6499,-2.6499,-2.6499,-2.6499,-2.6499,-2.6499,-2.6474,-2.6336,-2.5774,-2.5209,-2.4625,-2.4155,-2.3547,-2.3108,-2.3108,-2.3108,-2.3108,-2.3108,-2.3108,-2.3095,-2.3058,-2.2196,-2.1333,-2.0779,-2.0201,-1.9798,-1.9798,-1.9798,-1.9798,-1.9798,-1.9798,-1.9798,-1.9798,-1.9798,-1.9798,-1.9798,-1.9798,-1.9798,-1.9798,-1.9316,-1.9279,-1.98,-1.9304,-1.929,-1.9798,-1.9798,-1.9798,-1.9798,-1.9798,-1.9798,-1.736,-1.7677,-1.8129,-1.8657,-1.8726,-1.8803,-1.9453,-1.923,-1.8891,-1.8973,-1.8678,-1.8242,-1.7689,-1.8267,-1.8933,-1.9346,-2.0476,-2.1568,-2.2397,-2.2844,-2.3108,-2.3108,0.0,-2.3283,-2.374,-2.428,-2.4895,-2.5548,-2.5737,-2.6034,-2.6474,-2.6499,-2.6939,-2.7871,-2.8034,-2.8574,-2.9566,-2.9716,-2.9792,-2.9792,-2.9792,-2.9792,-2.9792,-2.9792,-2.9792,-2.9792,-2.9792,-2.9792,-2.9741,-2.9126,-2.8562,-2.8047,-2.7494,-2.6977,-2.6499,-2.6499,-2.6499,-2.6499,-2.6499,-2.6499,-2.6499,-2.6499,-2.6499,-2.6499,-2.6499,-2.6499,-2.6499,-2.6499,-2.6185,-2.5921,-2.6197,-2.5234,-2.428,-2.4512,-2.3822,-2.3108,-2.3108,-2.3108,-2.3108,-2.3108,-2.3108,-2.297,-2.2556,-2.1945,-2.1333,-2.0779,-2.0201,-1.9798,-1.9798,-1.9798,-1.9798,-1.9798,-1.9798,-1.9798,-1.9798,-1.9798,-1.9798,-1.9798,-1.9798,-1.9798,-1.9798,-1.9671,-1.967,-1.9804,-1.9656,-1.9671,-1.9798,-1.9798,-1.9798,-1.9798,-1.9798,-1.9798,-1.8103,-1.8493,-1.8982,-1.9296,-1.9165,-1.9074,-1.9396,-1.9023,-1.8534,-1.8348,-1.8058,-1.7601,-1.6785,-1.7551,-1.8356,-1.8607,-2.0049,0.0,-2.2196,-2.2757,-2.3108,0.0,-2.3108,0.0,-2.3941,-2.428,-2.477,-2.5536,-2.5871,-2.6147,-2.6474,-2.6499,-2.6776,-2.7369,-2.7846,-2.8649,-2.9779,-2.9792,-2.9792,-2.9792,-2.9792,-2.9792,-2.9792,-2.9792,-2.9792,-2.9792,-2.9792,-2.9641,-2.9365,-2.88,-2.8247,-2.7695,-2.7165,-2.6763,-2.6499,-2.6499,-2.6499,-2.6499,-2.6499,-2.6499,-2.6499,-2.6499,-2.6499,-2.6499,-2.6499,-2.6499,-2.6499,-2.6499,-2.626,-2.6021,-2.6097,-2.5222,-2.4381,-2.4443,-2.3747,-2.3108,-2.3108,-2.3108,-2.3108,-2.3108,-2.3108,-2.2844,-2.2083,-2.1694,-2.1245,-2.044,-2.0012,-1.9798,-1.9798,-1.9798,-1.9798,-1.9798,-1.9798,-1.9798,-1.9798,-1.9798,-1.9798,-1.9798,-1.9798,-1.9798,-1.9798,-1.9582,-1.956,-1.9807,-1.9559,-1.9544,-1.9798,-1.9798,-1.9798,-1.9798,-1.9798,-1.9798,-1.9096,-1.9459,-1.9786,-1.971,-1.9718,-1.9606,-1.9026,-1.8812,-1.8493,-1.7575,-1.733,-1.6945,-1.5793,-1.6572,-1.7536,-1.7915,0.0,-2.0968,-2.2046,-2.2644,-2.302,-2.3095,-2.3108,-2.3358,-2.4042,-2.4104,-2.4556,-2.5636,-2.621,-2.6499,-2.6499,-2.6499,-2.6524,-2.66,-2.7645,-2.8687,-2.9666,-2.9754,-2.9792,-2.9792,-2.9792,-2.9792,-2.9792,-2.9716,-2.9716,-2.9792,-2.9716,-2.939,-2.885,-2.8335,-2.777,-2.7266,-2.6713,-2.6499,-2.6499,-2.6499,-2.6499,-2.6499,-2.6499,-2.6499,-2.6499,-2.6499,-2.6499,-2.6499,-2.6499,-2.6499,-2.6499,-2.6499,-2.6499,-2.6361,-2.5749,-2.5209,-2.465,-2.413,-2.3521,-2.3108,-2.3108,-2.3108,-2.3108,-2.3108,-2.3108,-2.2727,-2.1556,-2.1437,-2.1077,-1.9831,-1.9747,-1.9798,-1.9798,-1.9798,-1.9798,-1.9798,-1.9798,-1.9798,-1.9798,-1.9798,-1.9798,-1.9798,-1.9798,-1.9798,-1.9798,-1.9366,-1.9328,-1.9798,-1.9328,-1.9328,-1.9798,-1.9798,-1.9798,-1.9798,-1.9798,-1.9798,-1.9547,-1.9736,-1.9698,-1.9246,-1.8817,-1.8486,-1.8377,-1.7608,0.0,0.0,-1.697,-1.6321,-1.5236,-1.6329,-1.7262,-1.6851,-1.8581,-2.0338,-2.1468,-2.2108,-2.2594,0.0,-2.3108,-2.3509,-2.455,-2.465,-2.5134,-2.626,-2.6436,-2.6499,-2.6499,-2.6499,-2.67,-2.7165,-2.821,-2.885,-2.9038,-2.9553,-2.9792,-2.9792,-2.9792,-2.9792,-2.9779,-2.9302,-2.934,-2.9767,-2.9289,-2.8988,-2.885,-2.8335,-2.777,-2.7266,-2.6713,-2.6499,-2.6499,-2.6499,-2.6499,-2.6499,-2.6499,-2.6499,-2.6499,-2.6499,-2.6499,-2.6499,-2.6499,-2.6499,-2.6499,-2.6499,-2.6499,-2.6361,-2.5749,-2.5209,-2.465,-2.413,-2.3521,-2.3108,-2.3108,-2.3108,-2.3108,-2.3108,-2.3108,-2.2566,-2.0875,-2.1103,-2.0911,-1.9148,-1.9423,-1.9798,-1.9798,-1.9798,-1.9798,-1.9798,-1.9798,-1.9798,-1.9798,-1.9798,-1.9798,-1.9798,-1.9798,-1.9798,-1.9798,-1.9709,-1.9709,-1.9798,-1.9709,-1.9709,-1.9798,-1.9798,-1.9798,-1.9798,-1.9798,-1.9798,-1.9736,-1.9798,-1.9673,-1.9133,-1.8594,-1.8124,-1.7849,0.0,0.0,0.0,-1.668,-1.6249,-1.5462,-1.6468,-1.7187,-1.6588,-1.8118,-1.9786,-2.093,-2.1543,-2.2196,-2.3007,-2.3371,-2.3873,-2.4713,-2.5059,-2.5573,-2.6436,-2.6499,-2.6499,-2.6499,-2.6499,-2.6751,-2.7268,-2.8072,-2.8599,-2.8888,-2.9503,-2.9792,-2.9792,-2.9792,-2.9641,-2.934,-2.9365,-2.9365,-2.9327,-2.9013,-2.8725,-2.8461,-2.7908,-2.7392,-2.6864,-2.66,-2.6499,-2.6499,-2.6499,-2.6499,-2.6499,-2.6499,-2.6499,-2.6499,-2.6499,-2.6499,-2.6499,-2.6499,-2.6499,-2.6499,-2.6499,-2.6499,-2.6436,-2.6147,-2.5435,-2.4725,-2.4494,-2.3735,-2.3108,-2.3108,-2.3108,-2.2975,-2.2567,-2.2476,-2.2001,-2.0544,-2.0595,-2.0486,-1.9426,-1.9579,-1.9798,-1.9798,-1.9798,-1.9798,-1.9798,-1.9798,-1.9798,-1.9798,-1.9798,-1.9798,-1.9798,-1.9798,-1.9798,-1.9798,-1.9798,-1.9798,-1.9798,-1.9798,-1.9798,-1.9798,-1.9798,-1.9798,-1.9798,-1.9798,-1.9798,-1.9798,-1.9798,-1.9648,-1.8983,-1.8506,-1.8028,-1.735,-1.6848,0.0,-1.65,-1.65,-1.6337,-1.5793,-1.6522,-1.7049,0.0,-1.7804,-1.9271,-2.0515,-2.1169,-2.1895,-2.297,-2.364,0.0,-2.4738,-2.5297,-2.5837,-2.6449,-2.6499,-2.6499,-2.6499,-2.6499,-2.6688,-2.7128,-2.7645,-2.8197,-2.8712,-2.9315,-2.9666,-2.9792,-2.9666,-2.944,-2.9076,-2.9214,-2.9139,-2.8875,-2.865,-2.8335,-2.7896,-2.7457,-2.6989,-2.6499,-2.6499,-2.6499,-2.6499,-2.6499,-2.6499,-2.6499,-2.6499,-2.6499,-2.6499,-2.6499,-2.6499,-2.6499,-2.6499,-2.6499,-2.6499,-2.6499,-2.6499,-2.6436,-2.6197,-2.5473,-2.4725,-2.4487,-2.3747,-2.3108,-2.3108,-2.2944,-2.2659,-2.2002,-2.1753,-2.1322,-2.0323,-2.0181,-2.0117,-1.9809,-1.977,-1.9798,-1.9798,-1.9798,-1.9798,-1.9798,-1.9798,-1.9798,-1.9798,-1.9798,-1.9798,-1.9798,-1.9798,-1.9798,-1.9798,-1.9798,-1.9798,-1.9798,-1.9798,-1.9798,-1.9798,-1.9798,-1.9798,-1.9798,-1.9798,-1.9798,-1.9798,-1.9798,-1.956,-1.853,-1.8242,-1.7928,-1.6814,0.0,-1.65,-1.65,-1.65,-1.6337,-1.5793,-1.6183,-1.655,-1.65,0.0,-1.8844,-2.0465,-2.1169,-2.1895,-2.297,0.0,0.0,-2.4738,-2.5297,-2.5837,-2.6449,-2.6499,-2.6499,-2.6499,-2.6499,-2.6512,-2.6562,-2.7102,-2.762,-2.8185,-2.87,-2.9277,-2.9779,-2.9252,-2.9252,-2.9666,-2.8185,-2.8034,-2.8838,-2.7871,-2.7406,-2.7356,-2.7306,-2.6989,-2.6499,-2.6499,-2.6499,-2.6499,-2.6499,-2.6499,-2.6499,-2.6499,-2.6499,-2.6499,-2.6499,-2.6499,-2.6499,-2.6499,-2.6499,-2.6499,-2.6499,-2.6499,-2.626,-2.5222,-2.4863,-2.4525,-2.3496,-2.3183,-2.3108,-2.3108,-2.2537,-2.2002,-2.1908,-2.127,-2.0549,-2.0028,-2.0062,-2.0065,-1.9686,-1.9717,-1.9798,-1.9798,-1.9798,-1.9798,-1.9798,-1.9798,-1.9798,-1.9798,-1.9798,-1.9798,-1.9798,-1.9798,-1.9798,-1.9798,-1.9798,-1.9798,-1.9798,-1.9798,-1.9798,-1.9798,-1.9798,-1.9798,-1.9798,-1.9798,-1.9798,-1.971,-1.9798,-1.9547,-1.848,-1.8204,-1.7903,-1.6751,0.0,-1.65,-1.65,-1.65,-1.6425,-1.6233,-1.635,-1.65,-1.65,-1.6876,-1.7652,-1.8995,-1.966,-2.0539,-2.197,-2.3238,-2.4217,-2.4738,-2.5598,-2.6248,-2.6474,-2.6499,-2.6499,-2.6499,-2.6499,-2.6499,-2.6499,-2.7318,-2.7883,-2.8109,-2.9001,-2.939,-2.9264,-2.9001,-2.8699,-2.8273,-2.7934,-2.7833,-2.7908,-2.7469,-2.7281,-2.7256,-2.6952,-2.6688,-2.6499,-2.6499,-2.6499,-2.6499,-2.6499,-2.6499,-2.6499,-2.6499,-2.6499,-2.6499,-2.6499,-2.6499,-2.6499,-2.6499,-2.6499,-2.6424,-2.6072,-2.5971,-2.5774,-2.4988,-2.4569,-2.4117,-2.3296,-2.3108,-2.2975,-2.2476,-2.2137,-2.1753,-2.1239,-2.0846,-2.0581,-2.0576,-2.0622,-2.0698,-2.0744,-2.0515,-2.0352,-2.0352,-2.0012,-1.9798,-1.9798,-1.9798,-1.9798,-1.9798,-1.9798,-1.9798,-1.9798,-1.9798,-1.9798,-1.9798,-1.9798,-1.9798,-1.9798,-1.9798,-1.9798,-1.9798,-1.9798,-1.9798,-1.9798,-1.9798,-1.9798,-1.9447,-1.9685,-1.9547,-1.848,-1.8204,-1.7903,0.0,-1.65,-1.65,-1.65,-1.65,-1.65,-1.65,-1.65,-1.65,0.0,-1.6638,-1.7162,-1.8268,-1.8895,-1.9811,-2.1305,-2.2824,-2.3966,-2.4519,-2.5757,-2.6499,-2.6499,-2.6499,-2.6499,-2.6499,-2.6499,-2.6499,-2.6499,-2.7218,-2.7695,-2.7858,-2.8649,-2.8925,-2.865,-2.8511,-2.8122,-2.7532,-2.7595,-2.7494,-2.7268,-2.714,-2.7065,-2.704,-2.665,-2.6499,-2.6499,-2.6499,-2.6499,-2.6499,-2.6499,-2.6499,-2.6499,-2.6499,-2.6499,-2.6499,-2.6499,-2.6386,-2.6235,-2.6235,-2.6235,-2.6122,-2.5523,-2.5247,-2.5034,-2.4669,-2.4167,-2.3578,-2.2892,-2.2763,-2.2506,-2.1678,-2.1302,-2.1049,-2.0655,-2.0171,-2.0062,-2.0773,-2.0527,-2.0519,-2.1244,-2.0761,-2.0397,-2.0665,-2.0189,-1.9798,-1.9798,-1.9798,-1.9798,-1.9798,-1.9798,-1.9798,-1.9798,-1.9798,-1.9798,-1.9798,-1.9798,-1.9798,-1.9798,-1.9798,-1.9798,-1.9798,-1.9798,-1.9798,-1.9798,-1.9798,-1.9798,-1.9008,-1.9384,-1.9547,-1.848,-1.8204,-1.7903,-1.6751,-1.65,-1.65,-1.65,-1.65,-1.65,-1.65,-1.65,-1.65,-1.65,-1.6999,-1.7765,-1.8845,-1.9434,-2.0213,0.0,-2.2443,-2.3346,-2.3954,-2.5531,-2.6499,-2.6499,-2.6499,-2.6499,-2.6499,-2.6499,-2.6499,-2.6499,-2.6499,-2.6776,-2.7281,-2.7341,-2.7582,-2.8109,-2.7557,-2.7582,-2.8059,-2.7002,-2.6801,-2.7291,-2.6738,-2.6499,-2.6499,-2.6499,-2.6499,-2.6499,-2.6499,-2.6499,-2.6499,-2.6499,-2.6499,-2.6499,-2.6499,-2.6499,-2.6499,-2.6499,-2.6109,-2.5598,-2.5598,-2.5598,-2.5498,-2.4938,-2.4443,-2.4017,-2.4004,-2.3547,-2.2927,-2.2094,-2.1908,-2.1659,-2.0814,-1.9944,-1.9595,-2.043,-1.9199,-1.8596,-2.0301,-1.9458,-1.9102,-2.0756,-2.0108,-1.9732,-2.0584,-2.0189,-1.9798,-1.9798,-1.9798,-1.9798,-1.9798,-1.9798,-1.9798,-1.9798,-1.9798,-1.9798,-1.9798,-1.9798,-1.9798,-1.9798,-1.9798,-1.9798,-1.9798,-1.9798,-1.9798,-1.9798,-1.9798,-1.9798,-1.8355,-1.8593,-1.8543,-1.7815,-1.7639,-1.7451,-1.6685,-1.65,-1.65,-1.65,-1.65,-1.65,-1.65,-1.65,-1.6751,-1.7551,-1.7827,0.0,-1.8907,-1.9811,0.0,-2.1405,-2.3464,-2.5046,-2.5657,-2.6185,-2.6499,-2.6499,-2.6499,-2.6499,-2.6499,-2.6499,-2.6499,-2.6499,-2.6864,-2.714,-2.7281,-2.7657,-2.7745,-2.7544,-2.7369,-2.7216,-2.7002,-2.665,-2.6587,-2.6738,-2.6562,-2.6499,-2.6499,-2.6499,-2.6499,-2.6499,-2.6499,-2.6499,-2.6499,-2.6499,-2.6499,-2.6499,-2.6499,-2.6499,-2.6499,-2.6499,-2.6097,-2.5523,-2.5172,-2.5059,-2.4958,-2.4406,-2.3841,-2.3384,-2.3384,-2.2837,-2.223,-2.197,-2.1428,-2.0782,-1.9911,-1.9944,-2.0268,-2.0558,-2.0139,-2.0139,-2.1302,-2.1131,-2.0985,-2.1523,-2.1175,-2.0927,-2.1202,-2.0388,-1.9618,-1.9097,-1.9501,-1.9798,-1.9798,-1.9328,-1.9252,-1.976,-1.9328,-1.9278,-1.9773,-1.9798,-1.9798,-1.9798,-1.9798,-1.9798,-1.9798,-1.9798,-1.9798,-1.9798,-1.9798,-2.0012,-1.7739,-1.8053,-1.8078,-1.7513,-1.741,-1.7247,-1.6647,-1.65,-1.65,-1.65,-1.65,-1.65,-1.65,-1.65,-1.6726,-1.7428,-1.7752,-1.8166,0.0,0.0,0.0,-2.197,-2.4004,-2.5523,-2.6109,-2.6361,-2.6499,-2.6499,-2.6499,-2.6499,-2.6499,-2.6499,-2.6499,-2.6499,-2.6826,-2.7002,-2.7002,-2.7318,-2.7318,-2.7002,-2.7002,-2.6826,-2.6499,-2.6499,-2.6499,-2.6499,-2.6499,-2.6499,0.0,-2.6499,-2.6499,-2.6499,-2.6499,-2.6499,-2.6499,-2.6499,-2.6499,-2.6499,-2.6499,-2.6499,-2.6499,-2.6499,-2.5971,-2.5209,-2.4669,-2.4324,-2.4086,-2.3735,-2.3384,-2.3035,-2.2732,-2.2292,-2.171,-2.108,-2.0494,-1.9879,-1.9011,-1.9233,-1.9726,-2.0042,-1.9846,-2.0009,-2.1195,-2.1144,-2.1132,-2.1815,-2.129,-2.1071,-2.1709,-2.0416,-1.9335,-1.9075,-1.9159,-1.9289,-1.9384,-1.8965,-1.8911,-1.9363,-1.8943,-1.9025,-1.976,-1.9798,-1.9798,-1.9798,-1.9798,-1.9798,-1.9798,-1.9798,-1.9798,-1.9798,-1.9798,-2.0112,0.0,-1.7666,-1.7965,-1.7473,-1.7348,-1.7187,-1.6635,-1.65,0.0,-1.65,-1.65,-1.65,-1.655,-1.6525,-1.6538,-1.6651,-1.7149,-1.789,-1.897,-1.9698,0.0,-2.297,-2.4224,-2.5134,-2.5611,-2.6172,-2.6499,-2.6499,-2.6499,-2.6499,-2.6499,-2.6499,-2.6499,-2.6499,-2.6499,-2.6499,-2.6499,-2.6499,-2.6499,-2.6499,-2.6499,-2.6499,-2.6499,-2.6499,-2.6499,-2.6499,-2.6499,-2.6499,-2.6499,-2.6499,-2.6499,-2.6499,-2.6499,-2.6499,-2.6499,-2.6499,-2.6499,-2.6499,-2.6499,-2.6499,-2.6487,-2.6399,-2.5649,-2.4675,-2.4117,-2.3521,-2.3078,-2.3035,-2.3005,-2.2823,-2.2002,-2.1753,-2.1302,-1.9694,-1.9233,-1.8977,-1.8168,-1.8042,-1.8337,-1.9144,-1.8654,-1.863,-2.0301,-1.9944,-1.9944,-2.1659,-2.0695,-2.0381,-2.2005,-2.027,-1.9039,-1.9434,-1.8777,-1.8391,-1.8568,-1.862,-1.8661,-1.8764,-1.8725,-1.9025,-1.976,-1.9798,-1.9798,-1.9798,-1.9798,-1.9798,-1.9798,-1.9798,-1.9798,-1.9798,-1.9798,-2.0125,-1.5977,0.0,-1.6864,-1.6748,-1.6701,-1.6663,0.0,-1.65,-1.65,-1.65,-1.65,-1.6638,-1.7099,-1.6823,-1.6914,-1.8205,-1.8531,-1.9032,-2.0151,-2.1857,-2.3364,-2.4274,-2.5398,-2.616,-2.6285,-2.6411,-2.6499,-2.6499,-2.6499,-2.6499,-2.6499,-2.6499,-2.6499,-2.6499,-2.6499,-2.6499,-2.6499,-2.6499,-2.6499,-2.6499,-2.6499,-2.6499,-2.6499,-2.6499,-2.6499,-2.6499,-2.6499,-2.6499,-2.6499,-2.6499,-2.6499,-2.6499,-2.6499,-2.6499,-2.6499,-2.6499,-2.6499,-2.6499,-2.6499,-2.6499,-2.6361,-2.5473,-2.5034,-2.46,-2.3609,-2.3208,-2.2975,-2.2353,-2.2199,-2.197,-2.1132,-2.0398,-1.9824,-1.9398,-1.8787,-1.8236,-1.8042,-1.8529,-1.9044,-1.9276,-1.9133,-1.9332,-2.0398,-2.043,-2.0655,-2.1753,-2.1231,-2.0847,-2.1248,-1.9913,-1.8728,-1.827,-1.8287,-1.8098,-1.7597,-1.7745,-1.8344,-1.9463,-1.9018,-1.9025,-1.976,-1.9798,-1.9798,-1.9798,-1.9798,-1.9798,-1.9798,-1.9798,-1.9798,-1.9798,-1.9798,-2.0338,-1.5186,-1.5421,-1.5678,-1.5678,-1.5678,-1.5678,-1.5678,-1.5678,-1.5744,-1.603,0.0,-1.6259,-1.6879,-1.6948,-1.7212,-1.8129,-1.8894,-1.9949,-2.1568,-2.2886,-2.405,-2.5043,-2.554,-2.599,-2.6452,-2.6499,-2.6499,-2.6499,-2.6499,-2.6499,-2.6499,-2.6499,-2.6499,-2.6499,-2.6499,-2.6499,-2.6499,-2.6499,-2.6499,-2.6499,-2.6499,-2.6499,-2.6499,-2.6499,-2.6499,-2.6499,-2.6499,-2.6499,-2.6499,-2.6499,-2.6499,-2.6499,-2.6499,-2.6499,-2.6499,-2.6499,-2.6499,-2.6499,-2.6499,-2.6499,-2.6348,-2.546,-2.4735,-2.4038,-2.3161,-2.2473,-2.1959,-2.1908,-2.1616,-2.1101,-2.0236,-1.9661,-1.921,-1.8787,-1.8327,-1.8008,-1.8008,-1.8361,-1.8687,-1.8687,-1.9044,-1.9595,-2.0462,-2.059,-2.089,-2.1784,-2.0922,-2.0364,-2.078,-1.9441,-1.8396,-1.8187,-1.8335,-1.8341,-1.8094,-1.8363,-1.8733,-1.9254,-1.8917,-1.9046,-1.9773,-1.9798,-1.9798,-1.9798,-1.9798,-1.9798,-1.9798,-1.9798,-1.9798,-1.9811,-2.0075,-2.0691,-1.4626,-1.4671,-1.4706,-1.4697,-1.4698,-1.4698,-1.4698,0.0,0.0,0.0,0.0,0.0,-1.6504,-1.713,-1.7586,-1.775,-1.9058,-2.0778,-2.2807,-2.3359,-2.4059,-2.5423,-2.5391,-2.5558,-2.6418,-2.6499,-2.6499,-2.6499,-2.6499,-2.6499,-2.6499,-2.6499,-2.6499,-2.6499,-2.6499,-2.6499,-2.6499,-2.6499,-2.6499,-2.6499,-2.6499,-2.6499,-2.6499,-2.6499,-2.6499,-2.6499,-2.6499,-2.6499,-2.6499,-2.6499,-2.6499,-2.6499,-2.6499,-2.6499,-2.6499,-2.6499,-2.6499,-2.6499,-2.6499,-2.6499,-2.6386,-2.5686,-2.4574,-2.3394,-2.2754,-2.1541,-2.0558,-2.1302,-2.0974,-2.0204,-1.9332,-1.911,-1.8921,-1.8178,-1.8008,-1.8008,-1.8008,-1.811,-1.8202,-1.8202,-1.8787,-1.9628,-2.0623,-2.059,-2.0751,-2.1753,-2.043,-1.9562,-2.0301,-1.9011,-1.8121,-1.8473,-1.8552,-1.8753,-1.9167,-1.943,-1.9432,-1.9025,-1.8935,-1.914,-1.9759,-1.9798,-1.9798,-1.9798,-1.9798,-1.9798,-1.9798,-1.9798,-1.9798,-1.9811,-2.0427,-2.0993,-1.4352,-1.4541,-1.4626,-1.4694,-1.4698,-1.4698,-1.4698,-1.4698,0.0,0.0,0.0,0.0,0.0,-1.7661,-1.838,-1.9284,-2.0439,-2.1669,-2.292,-2.3935,-2.4833,-2.5536,-2.5999,-2.6349,-2.6499,-2.6499,-2.6499,-2.6499,-2.6499,-2.6499,-2.6499,-2.6499,-2.6499,-2.6499,-2.6499,-2.6499,-2.6499,-2.6499,-2.6499,-2.6499,-2.6499,-2.6499,-2.6499,-2.6499,-2.6499,-2.6499,-2.6499,-2.6499,-2.6499,-2.6499,-2.6499,-2.6499,-2.6499,-2.6499,-2.6499,-2.6499,-2.6499,-2.6499,-2.6499,-2.6499,-2.6336,-2.5272,-2.4292,-2.3323,-2.2325,-2.0839,-1.9529,-1.9661,-1.9595,-1.9299,-1.8438,-1.8202,-1.8178,-1.8042,-1.8008,-1.8008,-1.8008,-1.8596,-1.911,-1.911,-1.9199,-1.9824,-2.1428,-2.0462,-2.0042,-2.1659,-2.043,-1.9332,-1.9497,-1.862,-1.8012,-1.8079,-1.8404,-1.8881,-1.9543,-1.9599,-1.9815,-2.0371,-1.9922,-1.9681,-1.9811,-1.9798,-1.9798,-1.9798,-1.9798,-1.9798,-1.9798,-1.9798,-1.9798,-1.9811,-2.0427,-2.0993,-1.364,-1.3628,-1.3736,-1.3986,-1.4603,-1.5057,-1.4765,-1.4698,0.0,0.0,0.0,0.0,0.0,0.0,-1.8856,-2.0232,-2.1287,-2.2435,-2.381,-2.4008,-2.4525,-2.5929,-2.5864,-2.5908,-2.6465,-2.6499,-2.6499,-2.6499,-2.6499,-2.6499,-2.6499,-2.6499,-2.6499,-2.6499,-2.6499,-2.6499,-2.6499,-2.6499,-2.6499,-2.6499,-2.6499,-2.6499,-2.6499,-2.6499,-2.6499,-2.6499,-2.6499,-2.6499,-2.6499,-2.6499,-2.6499,-2.6499,-2.6499,-2.6499,-2.6499,-2.6499,-2.6499,-2.6499,-2.6499,-2.6285,-2.5782,-2.4521,-2.3311,-2.2131,-2.0879,-1.9595,-1.8596,-1.8596,-1.8596,-1.8496,-1.811,-1.8008,-1.8008,-1.8008,-1.8008,-1.8008,-1.8008,-1.8303,-1.8596,-1.8596,-1.8977,-1.9562,-2.0365,-1.9814,-1.9562,-2.0365,-1.9398,-1.8596,-1.8596,-1.8236,-1.8008,-1.8008,-1.9012,-1.9831,-2.0148,-2.0707,-2.0816,-2.0244,-1.9938,-1.9798,-1.9798,-1.9798,-1.9798,-1.9798,-1.9798,-1.9798,-1.9798,-1.9798,-1.9962,-2.0314,-2.088,-2.1405,-1.3184,-1.3175,-1.3357,-1.3636,0.0,-1.4867,-1.4843,-1.4745,-1.5012,0.0,0.0,0.0,0.0,-1.8607,-1.9543,-2.123,-2.1883,-2.2827,-2.4575,-2.4153,-2.4378,-2.6292,-2.5804,-2.5664,-2.6418,-2.6499,-2.6499,-2.6499,-2.6499,-2.6499,-2.6499,-2.6499,-2.6499,-2.6499,-2.6499,-2.6499,-2.6499,-2.6499,-2.6499,-2.6499,-2.6499,-2.6499,-2.6499,-2.6499,-2.6499,-2.6499,-2.6499,-2.6499,-2.6499,-2.6499,-2.6499,-2.6499,-2.6499,-2.6499,-2.6499,-2.6499,-2.6499,-2.6499,-2.6499,-2.5961,-2.5086,-2.3881,-2.2405,-2.0864,-1.9667,-1.8687,-1.8008,-1.8008,-1.8008,-1.8008,-1.8008,-1.8008,-1.8008,-1.8008,-1.8008,-1.8008,-1.8008,-1.8168,-1.8303,-1.8303,-1.8854,-1.9365,-1.9562,-1.9266,-1.9077,-1.9266,-1.8563,-1.8008,-1.8008,-1.8008,-1.8076,-1.8269,-1.9694,-2.0705,-2.0971,-2.1795,-2.1709,-2.03,-2.0205,-2.0156,-2.0028,-2.0015,-1.9938,-1.9798,-1.9798,-1.9798,-1.9798,-1.9936,-2.0264,-2.0717,-2.1395,-2.1907,-1.3516,-1.3967,-1.4444,-1.4366,-1.3718,-1.3451,-1.486,-1.4889,0.0,-1.6156,0.0,0.0,0.0,-1.9197,-2.0708,-2.2635,-2.2354,-2.2587,-2.4528,-2.4755,-2.5123,-2.6361,-2.643,-2.6418,-2.6499,-2.6499,-2.6499,-2.6499,-2.6499,-2.6499,-2.6499,-2.6499,-2.6499,-2.6499,-2.6499,-2.6499,-2.6499,-2.6499,-2.6499,-2.6499,-2.6499,-2.6499,-2.6499,-2.6499,-2.6499,-2.6499,-2.6499,-2.6499,-2.6499,-2.6499,-2.6499,-2.6499,-2.6499,-2.6499,-2.6499,-2.6499,-2.6499,-2.6499,-2.6499,-2.5573,-2.4294,-2.3702,-2.1992,-2.0067,-1.9468,-1.8687,-1.8008,-1.8008,-1.8008,-1.8008,-1.8008,-1.8008,-1.8008,-1.8008,-1.8008,-1.8008,-1.8008,-1.863,-1.9199,-1.9199,-1.9276,-1.9562,-2.0365,-1.9166,-1.8371,-1.9177,-1.8563,-1.8008,-1.8008,-1.8008,-1.8303,-1.911,-2.0042,-2.1031,-2.2075,-2.2256,-2.205,-2.143,-2.1392,-2.1159,-2.0656,-2.0643,-2.0373,-1.9811,-1.9798,-1.9798,-1.9798,-2.0365,-2.0654,-2.0717,-2.1757,-2.2272,-1.3253,-1.3516,-1.3907,-1.3857,-1.3743,0.0,0.0,-1.5375,-1.5908,-1.7491,-1.7802,0.0,0.0,-2.0437,-2.1697,-2.2262,-2.2506,-2.3022,-2.4142,-2.4305,-2.4707,-2.5799,-2.5925,-2.6097,-2.6461,-2.6499,-2.6499,-2.6499,-2.6499,-2.6336,-2.5971,-2.5925,-2.5774,-2.5448,-2.5435,-2.5598,-2.5946,-2.5925,-2.6135,-2.6499,-2.6499,-2.6499,-2.6499,-2.6499,-2.6499,-2.6499,-2.6499,-2.6499,-2.6499,-2.6499,-2.6499,-2.6499,-2.6499,-2.6499,-2.6499,-2.6499,-2.6499,-2.6499,-2.6499,-2.5517,-2.409,-2.3015,-2.1661,-2.017,-1.8876,-1.8458,-1.8315,-1.8086,-1.8008,-1.8008,-1.8008,-1.8008,-1.8008,-1.8008,-1.8008,-1.8008,-1.8008,-1.8269,-1.8496,-1.8496,-1.8496,-1.8596,-1.8921,-1.8428,-1.811,-1.8428,-1.8202,-1.8008,-1.8008,-1.8008,-1.8337,-1.9199,-2.0558,-2.1794,-2.2718,-2.2787,-2.2713,-2.2506,-2.1877,-2.1411,-2.1223,-2.1216,-2.1091,-2.0853,-2.0853,-2.0853,-2.0853,-2.1106,-2.1355,-2.1694,-2.2121,-2.2498,-1.3055,-1.3096,-1.334,-1.3477,0.0,0.0,-1.5455,-1.5953,-1.6634,-1.8236,-1.8673,-1.9048,-1.9947,0.0,-2.1972,-2.2237,-2.2537,-2.3021,-2.3885,-2.4004,-2.433,-2.5247,-2.536,-2.5511,-2.59,-2.5971,-2.5971,-2.5971,-2.5971,-2.5774,-2.5372,-2.536,-2.5197,-2.48,-2.4788,-2.4996,-2.5347,-2.536,-2.5548,-2.5971,-2.5971,-2.616,-2.6499,-2.6499,-2.6499,-2.6499,-2.6499,-2.6499,-2.6499,-2.6499,-2.6499,-2.6499,-2.6499,-2.6499,-2.6499,-2.6499,-2.6499,-2.6452,-2.6129,-2.5055,-2.3584,-2.2191,-2.0954,-1.9732,-1.8394,-1.8178,-1.8344,-1.8086,-1.8008,-1.8008,-1.8008,-1.8008,-1.8008,-1.8008,-1.8008,-1.8008,-1.8008,-1.8008,-1.8008,-1.8008,-1.8008,-1.8008,-1.8008,-1.8008,-1.8008,-1.8008,-1.8008,-1.8008,-1.8008,-1.8236,-1.8854,-2.0009,-2.1428,-2.2408,-2.2687,-2.2955,-2.2997,-2.2747,-2.2261,-2.1946,-2.1753,-2.1765,-2.1681,-2.1493,-2.1493,-2.1493,-2.1493,-2.1656,-2.1945,-2.2293,-2.2456,-2.2744,-1.3055,-1.2905,-1.2988,-1.3408,0.0,0.0,-1.6213,-1.6595,-1.6846,-1.8037,-1.9298,-2.0375,-2.0884,-2.1009,-2.147,-2.2857,-2.2445,-2.2411,-2.381,-2.3991,-2.4192,-2.4713,-2.4775,-2.4775,-2.4788,-2.4788,-2.4788,-2.4788,-2.4788,-2.4788,-2.4775,-2.4775,-2.4775,-2.4775,-2.4775,-2.4775,-2.4775,-2.4775,-2.4775,-2.4788,-2.4788,-2.5385,-2.6474,-2.6474,-2.6474,-2.6474,-2.6474,-2.6474,-2.6474,-2.6487,-2.6487,-2.6487,-2.6499,-2.6499,-2.6499,-2.6499,-2.6487,-2.6349,-2.5335,-2.4083,-2.2659,-2.1257,-1.9828,-1.8529,-1.81,-1.8008,-1.8018,-1.8008,-1.8008,-1.8008,-1.8008,-1.8008,-1.8008,-1.8008,-1.8008,-1.8008,-1.8008,-1.8008,-1.8008,-1.8008,-1.8008,-1.8008,-1.8008,-1.8008,-1.8008,-1.8008,-1.8008,-1.8008,-1.8008,-1.8787,-1.9977,-2.1721,-2.2598,-2.276,-2.1988,-2.262,-2.276,-2.1958,-2.265,-2.2857,-2.2346,-2.231,-2.2043,-2.1546,-2.1506,-2.1506,-2.1506,-2.2058,-2.2322,-2.2305,-2.2844,-2.3108,-1.2954,-1.3096,-1.335,-1.3477,0.0,0.0,0.0,-1.6017,0.0,0.0,-1.936,-2.0543,-2.0691,-2.1226,-2.1976,-2.295,-2.2884,-2.2885,-2.3303,-2.3358,-2.3572,-2.418,-2.4243,-2.4393,-2.475,-2.4788,-2.4788,-2.4788,-2.4788,-2.4657,-2.4268,-2.4243,-2.4054,-2.3622,-2.3597,-2.3797,-2.4243,-2.4243,-2.4443,-2.4788,-2.4788,-2.4996,-2.531,-2.531,-2.531,-2.531,-2.531,-2.531,-2.5335,-2.5699,-2.585,-2.5921,-2.6336,-2.6499,-2.6499,-2.6499,-2.606,-2.5406,-2.5111,-2.3608,-2.1718,-2.1009,-2.0043,-1.8965,-1.8232,-1.8213,-1.8354,-1.8096,-1.8008,-1.8008,-1.8008,-1.8008,-1.8008,-1.8008,-1.8008,-1.8008,-1.8008,-1.8008,-1.8008,-1.8008,-1.8008,-1.8008,-1.8008,-1.8008,-1.8008,-1.8008,-1.8008,-1.8202,-1.8854,-1.9694,-2.0655,-2.1784,-2.2094,-2.2378,-2.2729,-2.2425,-2.2411,-2.2729,-2.2955,-2.301,-2.2857,-2.2852,-2.2786,-2.2619,-2.2619,-2.2619,-2.2619,-2.2782,-2.2857,-2.2869,-2.3032,-2.3108,-1.3086,-1.3311,0.0,-1.3936,-1.4717,-1.5547,-1.6074,0.0,0.0,0.0,-1.911,-2.0074,-2.0074,-2.108,-2.2063,-2.2537,-2.2884,-2.3108,-2.3108,-2.3108,-2.3233,-2.3615,-2.3653,-2.376,-2.4086,-2.4123,-2.4123,-2.4123,-2.4123,-2.3973,-2.3665,-2.3653,-2.3471,-2.3108,-2.3108,-2.3271,-2.3653,-2.3653,-2.3797,-2.4123,-2.4123,-2.4123,-2.4136,-2.4587,-2.4788,-2.4788,-2.4788,-2.4788,-2.4813,-2.5159,-2.5285,-2.5322,-2.5674,-2.5812,-2.5766,-2.545,-2.4915,-2.4317,-2.357,-2.2361,-2.102,-2.0215,-1.9514,-1.8896,-1.8223,-1.8184,-1.8295,-1.8086,-1.8008,-1.8008,-1.8008,-1.8008,-1.8008,-1.8008,-1.8008,-1.8008,-1.8008,-1.8008,-1.8008,-1.8008,-1.8008,-1.8008,-1.8008,-1.8008,-1.8008,-1.8008,-1.8008,-1.8428,-1.9661,-2.0268,-2.0942,-2.1815,-2.1908,-2.183,-2.1594,-2.1791,-2.1966,-2.2092,-2.2747,-2.3108,-2.3108,-2.3108,-2.3108,-2.3108,-2.3108,-2.3108,-2.3108,-2.3108,-2.3108,-2.3108,-2.3108,-2.3108,-1.3389,-1.3506,-1.3711,-1.457,-1.5156,0.0,-1.7148,-1.7441,-1.7549,-1.793,0.0,-1.921,-1.9299,-2.059,-2.1721,-2.1877,-2.2506,-2.3005,-2.3078,-2.3108,-2.3108,-2.3108,-2.3108,-2.3108,-2.3108,-2.3108,-2.3108,-2.3108,-2.3108,-2.3108,-2.3108,-2.3108,-2.3108,-2.3108,-2.3108,-2.3108,-2.3108,-2.3108,-2.3108,-2.3108,-2.3108,-2.3108,-2.3145,-2.4161,-2.4637,-2.4637,-2.4637,-2.4637,-2.4637,-2.4687,-2.4713,-2.4713,-2.4775,-2.4755,-2.4581,-2.3779,-2.3402,-2.3021,-2.1376,-2.0698,-2.0382,-1.9043,-1.8578,-1.8471,-1.8125,-1.8008,-1.8008,-1.8008,-1.8008,-1.8008,-1.8008,-1.8008,-1.8008,-1.8008,-1.8008,-1.8008,-1.8008,-1.8008,-1.8008,-1.8008,-1.8008,-1.8008,-1.8008,-1.8008,-1.8008,-1.8008,-1.8008,-1.8586,-2.0268,-2.0494,-2.0846,-2.1815,-2.1753,-2.1103,-1.9661,-2.0849,-2.1396,-2.0763,-2.2152,-2.301,-2.3108,-2.3108,-2.3108,-2.3108,-2.3108,-2.3108,-2.3108,-2.3108,-2.3108,-2.3108,-2.3108,-2.3108,-1.3389,-1.3506,0.0,-1.457,-1.5625,-1.6668,-1.7656,-1.7871,-1.79,-1.7988,-1.8144,-1.8496,-1.9177,-1.9595,-2.0301,-2.169,-2.2032,-2.2384,-2.3017,-2.3108,-2.3108,-2.3108,-2.3108,-2.3108,-2.3108,-2.3108,-2.3108,-2.3108,-2.3108,-2.3108,-2.3108,-2.3108,-2.3108,-2.3108,-2.3108,-2.3108,-2.3108,-2.3108,-2.3108,-2.3108,-2.3108,-2.3108,-2.3108,-2.3358,-2.3471,-2.3471,-2.3471,-2.3471,-2.3496,-2.3991,-2.418,-2.4217,-2.4657,-2.4373,-2.3746,-2.358,-2.2616,-2.1341,-2.0931,-2.0031,-1.9033,-1.8697,-1.8383,-1.8091,-1.8037,-1.8008,-1.8008,-1.8008,-1.8008,-1.8008,-1.8008,-1.8008,-1.8008,-1.8008,-1.8008,-1.8008,-1.8008,-1.8008,-1.8008,-1.8008,-1.8008,-1.8008,-1.8008,-1.8008,-1.8008,-1.8008,-1.8008,-1.8371,-1.9431,-1.9595,-2.0171,-2.1721,-2.0687,-2.027,-2.1277,-2.0446,-2.0355,-2.156,-2.1958,-2.2443,-2.3065,-2.3108,-2.3108,-2.3108,-2.3108,-2.3108,-2.3108,-2.3108,-2.3108,-2.3108,-2.3108,-2.3108,-1.3643,0.0,0.0,-1.54,0.0,-1.7217,-1.7861,-1.8008,-1.8008,-1.8008,-1.8008,-1.8134,-1.8596,-1.9011,-1.9595,-2.0526,-2.1365,-2.2032,-2.2476,-2.2854,-2.3108,-2.3108,-2.3108,-2.3108,-2.3108,-2.3108,-2.3108,-2.3108,-2.3108,-2.3108,-2.3108,-2.3108,-2.3108,-2.3108,-2.3108,-2.3108,-2.3108,-2.3108,-2.3108,-2.3108,-2.2689,-2.231,-2.1928,-2.272,-2.3108,-2.3108,-2.3108,-2.3108,-2.3133,-2.3434,-2.359,-2.3553,-2.3441,-2.3127,-2.2621,-2.1794,-2.0884,-2.0023,-1.9596,-1.8968,-1.8295,-1.8295,-1.8184,-1.8008,-1.8008,-1.8008,-1.8008,-1.8008,-1.8008,-1.8008,-1.8008,-1.8008,-1.8008,-1.8008,-1.8008,-1.8008,-1.8008,-1.8008,-1.8008,-1.8008,-1.8008,-1.8008,-1.8008,-1.8008,-1.8008,-1.8008,-1.8008,-1.8303,-1.9177,-1.9454,-1.9959,-2.084,-2.0319,-2.0025,-2.0303,-1.9876,-1.9903,-2.0623,-2.1057,-2.164,-2.248,-2.2524,-2.2702,-2.3078,-2.3108,-2.3108,-2.3108,-2.3108,-2.3108,-2.3108,-2.3108,-2.3108,-1.3704,0.0,-1.4523,-1.6268,-1.7002,0.0,-1.79,-1.8008,-1.8008,-1.8008,-1.8008,-1.8008,-1.8008,-1.8596,-1.911,-1.9276,-2.0526,-2.1491,-2.1647,-2.2384,-2.2884,-2.2884,-2.3005,-2.3047,-2.2914,-2.2884,-2.2823,-2.2689,-2.2659,-2.2659,-2.2659,-2.2823,-2.2884,-2.2884,-2.3035,-2.3108,-2.3108,-2.3108,-2.3108,-2.3078,-2.2279,-2.1522,-2.0878,-2.2082,-2.275,-2.2884,-2.2884,-2.2975,-2.3108,-2.3108,-2.3108,-2.3005,-2.2218,-2.1815,-2.1491,-1.9879,-1.921,-1.8977,-1.8236,-1.8008,-1.8008,-1.8008,-1.8008,-1.8008,-1.8008,-1.8008,-1.8008,-1.8008,-1.8008,-1.8008,-1.8008,-1.8008,-1.8008,-1.8008,-1.8008,-1.8008,-1.8008,-1.8008,-1.8008,-1.8008,-1.8008,-1.8008,-1.8008,-1.8008,-1.8008,-1.8008,-1.8008,-1.8299,-1.9081,-1.9479,-1.9761,-1.9982,-2.0232,-1.998,-1.9028,-1.9465,-1.9732,-1.9544,-2.0128,-2.0869,-2.1742,-2.1849,-2.2199,-2.2884,-2.3035,-2.3108,-2.3108,-2.3108,-2.3108,-2.3108,-2.3108,-2.3108,-1.3042,0.0,-1.4523,0.0,-1.6746,-1.6999,0.0,0.0,-1.8008,-1.8008,-1.8008,-1.8008,-1.8008,-1.811,-1.8428,-1.9177,-1.9497,-1.9911,-2.0655,-2.1522,-2.2063,-2.2063,-2.2671,-2.2823,-2.2137,-2.2063,-2.1753,-2.1005,-2.0942,-2.0942,-2.0942,-2.1647,-2.2063,-2.2063,-2.2732,-2.3108,-2.3108,-2.3108,-2.3108,-2.3078,-2.2279,-2.1846,-2.1721,-2.1164,-2.1353,-2.2063,-2.2063,-2.2445,-2.3108,-2.3108,-2.3108,-2.3005,-2.2218,-2.1428,-2.0655,-1.9661,-1.8821,-1.8168,-1.8042,-1.8008,-1.8008,-1.8008,-1.8008,-1.8008,-1.8008,-1.8008,-1.8008,-1.8008,-1.8008,-1.8008,-1.8008,-1.8008,-1.8008,-1.8008,-1.8008,-1.8008,-1.8008,-1.8008,-1.8008,-1.8008,-1.8008,-1.8008,-1.8008,-1.8008,-1.8008,-1.8008,-1.8008,-1.8169,-1.8636,-1.8734,-1.9219,-2.0361,-1.9879,-1.9716,-2.027,-1.976,-1.9687,-2.0364,-2.0158,-2.0394,-2.1263,-2.1678,-2.1939,-2.2063,-2.2732,-2.3108,-2.3108,-2.3108,-2.3108,-2.3108,-2.3108,-2.3108,-1.3457,-1.4172,-1.5128,0.0,-1.6882,-1.7256,-1.7871,-1.8008,-1.8008,-1.8008,-1.8008,-1.8008,-1.8008,-1.8008,-1.8144,-1.8496,-1.8977,-1.9431,-1.9814,-2.1037,-2.1721,-2.1227,-2.1896,-2.2094,-2.1239,-2.1164,-2.1005,-2.0623,-2.059,-2.059,-2.059,-2.0942,-2.1164,-2.1164,-2.151,-2.171,-2.171,-2.2187,-2.2187,-2.171,-2.0846,-2.0171,-1.9683,-1.9299,-2.0139,-2.1908,-2.1908,-2.2353,-2.3078,-2.2598,-2.2445,-2.2292,-2.0974,-2.0204,-1.9759,-1.8877,-1.8337,-1.8008,-1.8008,-1.8008,-1.8008,-1.8008,-1.8008,-1.8008,-1.8008,-1.8008,-1.8008,-1.8008,-1.8008,-1.8066,-1.8266,-1.8325,-1.8383,-1.8662,-1.8721,-1.8721,-1.8721,-1.8535,-1.8403,-1.8682,-1.8721,-1.8721,-1.8721,-1.8721,-1.8721,-1.8721,-1.8721,-1.8789,-1.8975,-1.9173,-1.957,-2.0142,-2.0106,-2.0072,-2.0209,-1.9865,-1.9686,-1.9872,-1.9686,-1.9952,-2.0832,-2.0827,-2.1026,-2.1481,-2.2561,-2.3108,-2.3108,-2.3108,-2.3108,-2.3108,-2.3108,-2.3108,-1.3714,-1.4416,-1.5166,-1.6122,-1.6807,-1.7324,0.0,0.0,-1.8008,-1.8008,-1.8008,-1.8008,-1.8008,-1.8008,-1.8008,-1.8008,-1.8563,-1.8977,-1.8977,-2.0268,-2.1005,-2.0333,-2.1049,-2.1239,-2.0365,-2.0268,-2.0171,-1.9955,-1.9944,-1.9944,-1.9944,-2.0139,-2.0268,-2.0268,-2.0494,-2.059,-2.059,-2.1227,-2.1227,-2.059,-1.9726,-1.8944,-1.8337,-1.811,-1.9177,-2.1239,-2.1239,-2.1834,-2.2732,-2.1908,-2.1553,-2.1428,-1.9879,-1.9299,-1.9199,-1.8337,-1.8008,-1.8008,-1.8008,-1.8008,-1.8008,-1.8008,-1.8008,-1.8008,-1.8008,-1.8008,-1.8008,-1.8008,-1.8086,-1.8208,-1.852,-1.8685,-1.8887,-1.9209,-1.9287,-1.9287,-1.9287,-1.9033,-1.8896,-1.9219,-1.9287,-1.9287,-1.9287,-1.9287,-1.9287,-1.9287,-1.9287,-1.9326,-1.9434,-1.9717,-1.9961,-2.0068,-2.041,-2.045,-2.0091,-2.0091,-1.9936,-1.9637,-1.9531,-1.9755,-2.0383,-2.0205,-2.039,-2.1027,-2.2083,-2.2567,-2.2463,-2.2463,-2.2567,-2.2793,-2.2793,-2.2884,-1.3311,-1.3574,-1.3906,-1.5137,-1.6102,-1.6853,0.0,-1.7725,-1.8008,-1.8008,-1.8008,-1.8008,-1.8008,-1.8008,-1.8008,-1.8008,-1.8042,-1.8076,-1.8076,-1.8854,-1.9431,-1.9365,-2.0139,-2.0333,-1.9464,-1.9365,-1.9011,-1.8202,-1.8144,-1.8144,-1.8144,-1.8911,-1.9365,-1.9365,-2.0171,-2.059,-2.059,-2.0655,-2.0655,-2.059,-1.9726,-1.9276,-1.921,-1.8371,-1.8529,-1.9431,-1.9431,-2.0398,-2.1908,-2.1037,-2.0655,-2.059,-1.9661,-1.9299,-1.9199,-1.8337,-1.8008,-1.8008,-1.8008,-1.8008,-1.8008,-1.8008,-1.8008,-1.8008,-1.8008,-1.8008,-1.8008,-1.8008,-1.8256,-1.8568,-1.8598,-1.8945,-1.9258,-1.9277,-1.9287,-1.9287,-1.9287,-1.9268,-1.9258,-1.9287,-1.9287,-1.9287,-1.9287,-1.9287,-1.9287,-1.9287,-1.9287,-1.9434,-1.9824,-1.9902,-2.0078,-2.0527,-2.0595,-2.0605,-2.0557,-2.0557,-2.0557,-2.0547,-2.0091,-1.9878,-1.9927,-2.0346,-2.0571,-2.0642,-2.1082,-2.1115,-2.0719,-2.0719,-2.1164,-2.197,-2.197,-2.2384,-1.335,-1.3506,0.0,-1.4756,-1.5449,-1.5996,-1.6467,-1.6875,-1.7155,-1.7155,-1.7155,-1.7275,-1.7559,-1.7832,-1.8008,-1.8008,-1.8008,-1.8008,-1.8008,-1.8754,-1.9077,-1.8529,-1.9233,-1.9431,-1.8563,-1.8462,-1.8337,-1.8008,-1.8008,-1.8008,-1.8008,-1.8303,-1.8462,-1.8462,-1.8754,-1.921,-1.9748,-1.9199,-1.9199,-1.9748,-1.8877,-1.8462,-1.8462,-1.8134,-1.8496,-1.9266,-1.8721,-1.9464,-2.1005,-2.0139,-1.9759,-1.9694,-1.8821,-1.8462,-1.8428,-1.811,-1.8008,-1.8008,-1.8008,-1.8008,-1.8008,-1.8008,-1.8008,-1.8008,-1.8008,-1.8008,-1.8008,-1.8008,-1.8276,-1.8666,-1.8984,-1.9365,-1.9766,-2.0077,-2.0145,-2.0145,-2.0145,-2.0145,-2.0145,-2.0145,-2.0145,-2.0145,-2.0145,-2.0145,-2.0145,-2.0145,-2.0145,-2.0204,-2.0312,-2.0332,-2.0391,-2.0586,-2.0605,-2.0605,-2.0605,-2.0605,-2.0605,-2.0605,-2.045,-2.0353,-2.0353,-2.0224,-2.0149,-2.0149,-2.0032,-2.0294,-2.0984,-2.0736,-2.0751,-2.108,-2.108,-2.1522,-1.3223,-1.3398,0.0,0.0,-1.4883,-1.5352,-1.5958,-1.632,-1.6553,-1.6668,-1.6697,-1.6794,-1.7109,-1.7393,-1.7627,-1.7773,-1.7803,-1.7803,-1.7803,-1.8405,-1.8654,-1.8076,-1.8496,-1.863,-1.8076,-1.8008,-1.8008,-1.8008,-1.8008,-1.8008,-1.8008,-1.8008,-1.7949,-1.7803,-1.7939,-1.82,-1.8662,-1.8234,-1.8303,-1.8854,-1.8269,-1.8008,-1.8008,-1.8008,-1.8337,-1.8811,-1.8236,-1.8821,-2.0107,-1.9233,-1.8844,-1.8821,-1.8236,-1.8008,-1.8008,-1.8008,-1.8008,-1.8008,-1.8008,-1.8008,-1.8008,-1.8008,-1.8008,-1.8008,-1.8008,-1.8105,-1.8188,-1.8188,-1.8588,-1.9095,-1.9424,-1.9814,-2.0205,-2.0537,-2.0605,-2.0605,-2.0605,-2.0605,-2.0605,-2.0605,-2.0605,-2.0605,-2.0605,-2.0605,-2.0605,-2.0605,-2.0605,-2.0605,-2.0605,-2.0605,-2.0605,-2.0605,-2.0605,-2.0605,-2.0605,-2.0605,-2.0605,-2.0605,-2.0605,-2.0605,-2.0605,-2.0283,-2.0127,-2.0127,-1.9717,-1.9907,-2.077,-2.0185,-2.017,-2.061,-2.0457,-2.0927,0.0,0.0,0.0,0.0,0.0,0.0,-1.5831,-1.6026,-1.6163,-1.6551,-1.6638,-1.6648,-1.6677,-1.6668,-1.6804,-1.7275,-1.7353,-1.7373,-1.7383,-1.7734,-1.7998,-1.8008,-1.8008,-1.8008,-1.8008,-1.8008,-1.8008,-1.8008,-1.8008,-1.8008,-1.8008,-1.8008,-1.7812,-1.7373,-1.7773,-1.7793,-1.7393,-1.7793,-1.7998,-1.8008,-1.8008,-1.8008,-1.8008,-1.8008,-1.8008,-1.8008,-1.8008,-1.8496,-1.921,-1.8337,-1.8008,-1.8008,-1.8008,-1.8008,-1.8008,-1.8008,-1.8008,-1.8008,-1.8008,-1.8008,-1.8008,-1.8008,-1.8008,-1.8008,-1.8008,-1.8266,-1.8598,-1.8598,-1.9212,-1.9922,-1.9932,-2.0244,-2.0605,-2.0605,-2.0605,-2.0605,-2.0605,-2.0605,-2.0605,-2.0605,-2.0605,-2.0605,-2.0605,-2.0605,-2.0605,-2.0605,-2.0605,-2.0605,-2.0605,-2.0605,-2.0605,-2.0605,-2.0605,-2.0605,-2.0605,-2.0605,-2.0605,-2.0605,-2.0605,-2.0605,-2.0605,-2.0605,-2.0605,-2.0605,-2.0146,-1.9932,-1.9932,-1.9036,-1.9283,-2.0557,-2.0132,-2.0612,-1.2905,0.0,0.0,0.0,0.0,0.0,-1.416,-1.4453,-1.4795,-1.5234,-1.5322,-1.5518,-1.6133,-1.5996,-1.5918,-1.6388,-1.6699,-1.7021,-1.7334,-1.749,-1.7666,-1.7978,-1.8008,-1.8008,-1.8008,-1.8008,-1.8008,-1.8008,-1.8008,-1.8008,-1.8008,-1.8008,-1.7676,-1.6934,-1.7334,-1.75,-1.7383,-1.75,-1.7705,-1.8008,-1.8008,-1.8008,-1.8008,-1.8008,-1.8008,-1.8008,-1.8008,-1.8144,-1.8327,-1.811,-1.8008,-1.8008,-1.8008,-1.8008,-1.8008,-1.8008,-1.8008,-1.8008,-1.8008,-1.8008,-1.8008,-1.8008,-1.8008,-1.8008,-1.8008,-1.8266,-1.8598,-1.8598,-1.9212,-1.999,-2.0303,-2.0517,-2.0605,-2.0605,-2.0605,-2.0605,-2.0605,-2.0605,-2.0605,-2.0605,-2.0605,-2.0605,-2.0605,-2.0605,-2.0605,-2.0605,-2.0605,-2.0605,-2.0605,-2.0605,-2.0605,-2.0605,-2.0605,-2.0605,-2.0605,-2.0605,-2.0605,-2.0605,-2.0605,-2.0605,-2.0605,-2.0605,-2.0605,-2.0605,-2.0488,-2.0429,-2.0381,-1.9521,-1.9305,-1.9667,-2.0159,-2.0797,-1.2905,-1.2905,-1.2944,-1.3096,0.0,0.0,-1.3665,-1.3792,-1.4016,-1.4658,-1.4813,-1.5019,-1.5664,-1.5586,-1.5498,-1.5752,-1.6006,-1.6421,-1.7199,-1.7644,-1.7966,-1.8184,-1.8214,-1.8195,-1.8032,-1.7852,-1.7744,-1.7744,-1.791,-1.7939,-1.7764,-1.7578,-1.7158,-1.6475,-1.6885,-1.7021,-1.6868,-1.7012,-1.7324,-1.7744,-1.7744,-1.7842,-1.8008,-1.8008,-1.8008,-1.8008,-1.8008,-1.8008,-1.8008,-1.8008,-1.8008,-1.8008,-1.8008,-1.8008,-1.8008,-1.8008,-1.8008,-1.8008,-1.8008,-1.8008,-1.8008,-1.8008,-1.8008,-1.8008,-1.8008,-1.8428,-1.887,-1.887,-1.9521,-2.0244,-2.0537,-2.0605,-2.0605,-2.0605,-2.0605,-2.0605,-2.0605,-2.0605,-2.0605,-2.0605,-2.0605,-2.0605,-2.0605,-2.0605,-2.0605,-2.0605,-2.0605,-2.0605,-2.0605,-2.0605,-2.0605,-2.0605,-2.0605,-2.0605,-2.0605,-2.0605,-2.0605,-2.0605,-2.0605,-2.0605,-2.0605,-2.0605,-2.0605,-2.0605,-2.0605,-2.0605,-2.0605,-1.9883,-1.9551,-1.9551,-2.0263,-2.0781,-1.2915,-1.2905,-1.2993,-1.334,-1.3193,0.0,-1.3812,-1.3714,-1.3721,-1.4492,-1.4648,-1.4775,-1.5195,-1.5273,-1.5273,-1.5273,-1.5312,-1.5742,-1.6903,-1.7791,-1.8322,-1.832,-1.8342,-1.826,-1.789,-1.7529,-1.7314,-1.7314,-1.7656,-1.7686,-1.7288,-1.6882,-1.6504,-1.6036,-1.6426,-1.6465,-1.6095,-1.6455,-1.6904,-1.7383,-1.7383,-1.7607,-1.8008,-1.8008,-1.8008,-1.8008,-1.8008,-1.8008,-1.8008,-1.8008,-1.8008,-1.8008,-1.8008,-1.8008,-1.8008,-1.8008,-1.8008,-1.8008,-1.8008,-1.8008,-1.8008,-1.8008,-1.8008,-1.8008,-1.8008,-1.8613,-1.9307,-1.9404,-2.0018,-2.0605,-2.0605,-2.0605,-2.0605,-2.0605,-2.0605,-2.0605,-2.0605,-2.0605,-2.0605,-2.0605,-2.0605,-2.0605,-2.0605,-2.0605,-2.0605,-2.0605,-2.0605,-2.0605,-2.0605,-2.0605,-2.0605,-2.0605,-2.0605,-2.0605,-2.0605,-2.0605,-2.0605,-2.0605,-2.0605,-2.0605,-2.0605,-2.0605,-2.0605,-2.0605,-2.0605,-2.0605,-2.0605,-2.0176,-1.999,-2.0,-2.0419,-2.0605,-1.2993,-1.2905,-1.2925,-1.3013,-1.3193,0.0,-1.3164,-1.332,-1.3555,-1.3721,-1.376,-1.3887,-1.428,-1.4358,-1.4358,-1.4358,-1.4678,-1.5233,-1.6188,-1.6476,-1.6683,-1.7018,-1.7068,-1.7034,-1.6973,-1.6872,-1.6824,-1.6824,-1.6902,-1.6787,-1.6378,-1.6582,-1.6336,-1.5566,-1.5997,-1.6183,-1.6095,-1.6183,-1.6623,-1.7383,-1.7383,-1.7607,-1.8008,-1.8008,-1.8008,-1.8008,-1.8008,-1.8008,-1.8008,-1.8008,-1.8008,-1.8008,-1.8008,-1.8008,-1.8008,-1.8008,-1.8008,-1.8008,-1.8008,-1.8008,-1.8008,-1.8008,-1.8008,-1.8008,-1.8008,-1.8613,-1.9434,-2.0165,-2.0478,-2.0605,-2.0605,-2.0605,-2.0605,-2.0605,-2.0605,-2.0605,-2.0605,-2.0605,-2.0605,-2.0605,-2.0605,-2.0605,-2.0605,-2.0605,-2.0605,-2.0605,-2.0605,-2.0605,-2.0605,-2.0605,-2.0605,-2.0605,-2.0605,-2.0605,-2.0605,-2.0605,-2.0605,-2.0605,-2.0605,-2.0605,-2.0605,-2.0605,-2.0605,-2.0605,-2.0605,-2.0605,-2.0605,-2.0517,-2.0478,-2.0478,-2.0566,-2.0605,-1.3023,-1.2905,-1.2954,-1.3145,-1.3193,0.0,0.0,-1.3193,-1.3262,-1.3467,-1.3506,-1.3607,-1.4026,-1.4104,-1.4104,-1.4104,-1.4502,-1.4863,-1.5068,-1.6056,-1.6788,-1.6941,-1.7022,-1.696,-1.6709,-1.6533,-1.6494,-1.6687,-1.6297,-1.6074,-1.6095,-1.6064,-1.5839,-1.542,-1.5625,-1.5732,-1.5732,-1.5732,-1.6095,-1.676,-1.6953,-1.7285,-1.7705,-1.791,-1.8008,-1.8008,-1.8008,-1.8008,-1.8008,-1.8008,-1.8008,-1.8008,-1.8008,-1.8008,-1.8008,-1.8008,-1.8008,-1.8008,-1.8008,-1.8008,-1.8008,-1.8008,-1.8008,-1.8047,-1.8227,-1.8926,-1.9736,-2.0419,-2.0605,-2.0605,-2.0605,-2.0605,-2.0605,-2.0605,-2.0605,-2.0605,-2.0605,-2.0605,-2.0605,-2.0605,-2.0605,-2.0605,-2.0605,-2.0605,-2.0605,-2.0605,-2.0605,-2.0605,-2.0605,-2.0605,-2.0605,-2.0605,-2.0605,-2.0605,-2.0605,-2.0605,-2.0605,-2.0605,-2.0605,-2.0605,-2.0605,-2.0605,-2.0605,-2.0605,-2.0605,-2.0605,-2.0605,-2.0605,-2.0605,-2.0605,-2.0605,-2.0605,-1.3232,-1.3125,-1.3184,-1.3447,-1.3311,-1.3174,0.0,0.0,0.0,-1.333,-1.3389,-1.3486,-1.3802,-1.387,-1.387,-1.387,-1.4258,-1.4414,-1.4036,-1.5606,-1.6777,-1.6736,-1.6896,-1.6867,-1.6507,-1.6074,-1.6026,-1.6414,-1.5742,-1.5478,-1.5948,-1.5605,-1.541,-1.541,-1.541,-1.541,-1.541,-1.541,-1.5635,-1.6095,-1.6523,-1.6963,-1.7402,-1.7822,-1.8008,-1.8008,-1.8008,-1.8008,-1.8008,-1.8008,-1.8008,-1.8008,-1.8008,-1.8008,-1.8008,-1.8008,-1.8008,-1.8008,-1.8008,-1.8008,-1.8008,-1.8008,-1.8008,-1.8105,-1.8578,-1.9248,-1.9902,-2.0458,-2.0605,-2.0605,-2.0605,-2.0605,-2.0605,-2.0605,-2.0605,-2.0605,-2.0605,-2.0605,-2.0605,-2.0605,-2.0605,-2.0605,-2.0605,-2.0605,-2.0605,-2.0605,-2.0605,-2.0605,-2.0605,-2.0605,-2.0605,-2.0605,-2.0605,-2.0605,-2.0605,-2.0605,-2.0605,-2.0605,-2.0605,-2.0605,-2.0605,-2.0605,-2.0605,-2.0605,-2.0605,-2.0605,-2.0605,-2.0605,-2.0605,-2.0605,-2.0605,-2.0605,-1.4085,-1.3968,-1.389,-1.3584,-1.3724,-1.3782,-1.3105,0.0,-1.334,-1.3042,0.0,-1.2993,-1.3042,0.0,0.0,-1.3052,-1.3379,-1.3633,-1.3584,-1.4103,-1.4629,-1.5023,-1.5398,-1.5625,-1.5557,-1.5176,-1.5107,-1.5537,-1.5127,-1.5039,-1.5469,-1.5439,-1.541,-1.541,-1.541,-1.541,-1.541,-1.541,-1.5635,-1.6095,-1.6523,-1.6963,-1.7402,-1.7822,-1.8008,-1.8008,-1.8008,-1.8008,-1.8008,-1.8008,-1.8008,-1.8008,-1.8008,-1.8008,-1.8008,-1.8008,-1.8008,-1.8008,-1.8008,-1.8008,-1.8008,-1.8008,-1.8008,-1.8164,-1.8965,-1.9277,-1.9531,-2.038,-2.0605,-2.0605,-2.0605,-2.0605,-2.0605,-2.0605,-2.0605,-2.0605,-2.0605,-2.0605,-2.0605,-2.0605,-2.0605,-2.0605,-2.0605,-2.0605,-2.0605,-2.0605,-2.0605,-2.0605,-2.0605,-2.0605,-2.0605,-2.0605,-2.0605,-2.0605,-2.0605,-2.0605,-2.0605,-2.0605,-2.0605,-2.0605,-2.0605,-2.0605,-2.0605,-2.0605,-2.0605,-2.0605,-2.0605,-2.0605,-2.0605,-2.0605,-2.0605,-2.0605,-1.4221,-1.4104,-1.4065,-1.389,-1.3792,-1.3656,-1.333,-1.3193,-1.3096,-1.2935,0.0,0.0,0.0,0.0,0.0,0.0,-1.3232,-1.3418,-1.3174,-1.3695,-1.4172,-1.4385,-1.4533,-1.4738,-1.5029,-1.4893,-1.4961,-1.5381,-1.5029,-1.4971,-1.5391,-1.541,-1.541,-1.541,-1.541,-1.541,-1.541,-1.541,-1.5508,-1.5693,-1.6133,-1.6572,-1.7021,-1.7451,-1.7783,-1.8008,-1.8008,-1.8008,-1.8008,-1.8008,-1.8008,-1.8008,-1.8008,-1.8008,-1.8008,-1.8008,-1.8008,-1.8008,-1.8008,-1.8008,-1.8008,-1.8008,-1.835,-1.8818,-1.918,-1.9639,-2.0145,-2.0507,-2.0605,-2.0605,-2.0605,-2.0605,-2.0605,-2.0605,-2.0605,-2.0605,-2.0605,-2.0605,-2.0605,-2.0605,-2.0605,-2.0605,-2.0605,-2.0605,-2.0605,-2.0605,-2.0605,-2.0605,-2.0605,-2.0605,-2.0605,-2.0605,-2.0605,-2.0605,-2.0605,-2.0605,-2.0605,-2.0605,-2.0605,-2.0605,-2.0605,-2.0605,-2.0605,-2.0605,-2.0605,-2.0605,-2.0605,-2.0605,-2.0605,-2.0605,-2.0605,-2.0605,-1.4174,-1.4116,-1.4113,-1.4109,-1.388,-1.3623,-1.3389,-1.3184,-1.3047,-1.3047,-1.3145,0.0,0.0,0.0,0.0,0.0,0.0,-1.3359,-1.2964,-1.3408,-1.3802,-1.3919,-1.4036,-1.4231,-1.458,-1.4502,-1.4658,-1.5205,-1.4853,-1.4844,-1.5381,-1.541,-1.541,-1.541,-1.541,-1.541,-1.541,-1.541,-1.541,-1.542,-1.5889,-1.6299,-1.6716,-1.7187,-1.7607,-1.8008,-1.8008,-1.8008,-1.8008,-1.8008,-1.8008,-1.8008,-1.8008,-1.8008,-1.8008,-1.8008,-1.8008,-1.8008,-1.8008,-1.8008,-1.8027,-1.8144,-1.8603,-1.915,-1.9385,-1.9893,-2.0449,-2.0566,-2.0605,-2.0605,-2.0605,-2.0605,-2.0605,-2.0605,-2.0605,-2.0605,-2.0605,-2.0605,-2.0605,-2.0605,-2.0605,-2.0605,-2.0605,-2.0605,-2.0605,-2.0605,-2.0605,-2.0605,-2.0605,-2.0605,-2.0605,-2.0605,-2.0605,-2.0605,-2.0605,-2.0605,-2.0605,-2.0605,-2.0605,-2.0605,-2.0605,-2.0605,-2.0605,-2.0605,-2.0605,-2.0605,-2.0605,-2.0605,-2.0605,-2.0605,-2.0605,-2.0605,-1.3999,-1.4198,-1.4192,-1.4119,-1.4094,-1.387,-1.3111,-1.3203,-1.3486,-1.3486,-1.3782,-1.4065,-1.4065,-1.4065,0.0,0.0,0.0,0.0,0.0,-1.2925,-1.3076,-1.3477,-1.386,-1.4114,-1.4124,-1.3763,-1.3896,-1.4746,-1.4404,-1.4494,-1.5361,-1.541,-1.541,-1.541,-1.541,-1.541,-1.541,-1.541,-1.541,-1.542,-1.5889,-1.6299,-1.6716,-1.7187,-1.7607,-1.8008,-1.8008,-1.8008,-1.8008,-1.8008,-1.8008,-1.8008,-1.8008,-1.8008,-1.8008,-1.8008,-1.8008,-1.8008,-1.8008,-1.8008,-1.8076,-1.8451,-1.8598,-1.8773,-1.9602,-1.9912,-2.0019,-2.0488,-2.0605,-2.0605,-2.0605,-2.0605,-2.0605,-2.0605,-2.0605,-2.0605,-2.0605,-2.0605,-2.0605,-2.0605,-2.0605,-2.0605,-2.0605,-2.0605,-2.0605,-2.0605,-2.0605,-2.0605,-2.0605,-2.0605,-2.0605,-2.0605,-2.0605,-2.0605,-2.0605,-2.0605,-2.0605,-2.0605,-2.0605,-2.0605,-2.0605,-2.0605,-2.0605,-2.0605,-2.0605,-2.0605,-2.0605,-2.0605,-2.0605,-2.0605,-2.0605,-2.0605,-1.3334,-1.3403,-1.3455,-1.3706,-1.3534,-1.33,-1.3291,-1.3408,-1.3506,-1.3506,-1.3821,-1.4104,-1.4104,0.0,0.0,0.0,0.0,0.0,0.0,-1.2905,-1.2954,-1.3101,-1.3467,-1.3695,-1.3695,-1.3594,-1.3857,-1.4717,-1.4385,-1.4475,-1.5361,-1.541,-1.541,-1.541,-1.541,-1.541,-1.541,-1.541,-1.541,-1.5391,-1.5015,-1.5086,-1.5504,-1.5292,-1.5444,-1.5857,-1.6709,-1.707,-1.7104,-1.7759,-1.8008,-1.8008,-1.8008,-1.8008,-1.8008,-1.8008,-1.8008,-1.8008,-1.8008,-1.8159,-1.8412,-1.8559,-1.8987,-1.9541,-1.9824,-2.0117,-2.0419,-2.0566,-2.0605,-2.0605,-2.0605,-2.0605,-2.0605,-2.0605,-2.0605,-2.0605,-2.0605,-2.0605,-2.0605,-2.0605,-2.0605,-2.0605,-2.0605,-2.0605,-2.0605,-2.0605,-2.0605,-2.0605,-2.0605,-2.0605,-2.0605,-2.0605,-2.0605,-2.0605,-2.0605,-2.0605,-2.0605,-2.0605,-1.9923,-1.9844,-2.0566,-1.9923,-1.9883,-2.0605,-2.0605,-2.0605,-2.0605,-2.0605,-2.0605,-2.0605,-2.0605,-2.0605,-1.2489,-1.2573,-1.2676,-1.306,-1.2957,-1.2808,-1.3204,-1.3417,-1.3611,-1.3902,-1.427,-1.4562,-1.4562,-1.4562,0.0,0.0,0.0,0.0,0.0,-1.2905,-1.2905,-1.2905,-1.3125,-1.3281,-1.3281,-1.3281,-1.3643,-1.4492,-1.427,-1.4475,-1.5361,-1.541,-1.541,-1.541,-1.541,-1.541,-1.541,-1.5108,-1.4962,-1.4962,-1.4154,-1.4018,-1.4435,-1.4209,-1.4313,-1.4772,-1.6042,-1.6602,-1.6671,-1.7613,-1.8008,-1.8008,-1.8008,-1.8008,-1.8008,-1.8008,-1.8008,-1.8037,-1.8149,-1.8373,-1.8656,-1.8958,-1.9426,-1.9941,-2.0098,-2.038,-2.0605,-2.0605,-2.0605,-2.0605,-2.0605,-2.0605,-2.0605,-2.0605,-2.0605,-2.0605,-2.0605,-2.0605,-2.0605,-2.0605,-2.0284,-2.004,-2.004,-1.9678,-1.9678,-2.0479,-2.0605,-2.0605,-2.0605,-2.0605,-2.0605,-2.0605,-2.0605,-2.0605,-2.0605,-2.0605,-2.0605,-2.0605,-1.9599,-1.9313,-2.0001,-1.8997,-1.8917,-2.0001,-1.9638,-1.9795,-2.0605,-2.0206,-2.0245,-2.0605,-2.0605,-2.0605]}]]